<?xml version="1.0" encoding="UTF-8" standalone="no" ?>
<gpx xmlns="http://www.topografix.com/GPX/1/1" xmlns:xsi="http://www.w3.org/2001/XMLSchema-instance" xsi:schemaLocation="http://www.topografix.com/GPX/1/1 http://www.topografix.com/GPX/1/1/gpx.xsd" version="1.1" creator="VisuGPX - https://www.visugpx.com">
  <metadata>
    <name>Prada</name>
  </metadata>
  <trk>
    <name><![CDATA[Prada]]></name>
    <trkseg>
      <trkpt lat="42.84802" lon="0.28412">
        <ele>1261</ele>
        <time>2022-02-13T07:44:06Z</time>
      </trkpt>
      <trkpt lat="42.84784" lon="0.28398">
        <ele>1263</ele>
        <time>2022-02-13T07:44:20Z</time>
      </trkpt>
      <trkpt lat="42.84779" lon="0.28385">
        <ele>1265</ele>
        <time>2022-02-13T07:44:40Z</time>
      </trkpt>
      <trkpt lat="42.84775" lon="0.28372">
        <ele>1267</ele>
        <time>2022-02-13T07:44:56Z</time>
      </trkpt>
      <trkpt lat="42.84774" lon="0.28356">
        <ele>1270</ele>
        <time>2022-02-13T07:45:11Z</time>
      </trkpt>
      <trkpt lat="42.84773" lon="0.28341">
        <ele>1271</ele>
        <time>2022-02-13T07:45:25Z</time>
      </trkpt>
      <trkpt lat="42.84774" lon="0.28325">
        <ele>1273</ele>
        <time>2022-02-13T07:45:38Z</time>
      </trkpt>
      <trkpt lat="42.84774" lon="0.28312">
        <ele>1273</ele>
        <time>2022-02-13T07:45:51Z</time>
      </trkpt>
      <trkpt lat="42.84774" lon="0.28299">
        <ele>1275</ele>
        <time>2022-02-13T07:46:04Z</time>
      </trkpt>
      <trkpt lat="42.84776" lon="0.28282">
        <ele>1277</ele>
        <time>2022-02-13T07:46:17Z</time>
      </trkpt>
      <trkpt lat="42.84777" lon="0.28266">
        <ele>1279</ele>
        <time>2022-02-13T07:46:31Z</time>
      </trkpt>
      <trkpt lat="42.84778" lon="0.28248">
        <ele>1282</ele>
        <time>2022-02-13T07:46:44Z</time>
      </trkpt>
      <trkpt lat="42.84781" lon="0.28232">
        <ele>1283</ele>
        <time>2022-02-13T07:47:02Z</time>
      </trkpt>
      <trkpt lat="42.84786" lon="0.28215">
        <ele>1284</ele>
        <time>2022-02-13T07:47:17Z</time>
      </trkpt>
      <trkpt lat="42.84788" lon="0.28196">
        <ele>1286</ele>
        <time>2022-02-13T07:47:31Z</time>
      </trkpt>
      <trkpt lat="42.84791" lon="0.28176">
        <ele>1289</ele>
        <time>2022-02-13T07:47:44Z</time>
      </trkpt>
      <trkpt lat="42.84794" lon="0.28163">
        <ele>1290</ele>
        <time>2022-02-13T07:47:57Z</time>
      </trkpt>
      <trkpt lat="42.84796" lon="0.28142">
        <ele>1292</ele>
        <time>2022-02-13T07:48:13Z</time>
      </trkpt>
      <trkpt lat="42.84799" lon="0.28128">
        <ele>1294</ele>
        <time>2022-02-13T07:48:29Z</time>
      </trkpt>
      <trkpt lat="42.84803" lon="0.28094">
        <ele>1295</ele>
        <time>2022-02-13T07:48:45Z</time>
      </trkpt>
      <trkpt lat="42.84804" lon="0.2809">
        <ele>1295</ele>
        <time>2022-02-13T07:48:49Z</time>
      </trkpt>
      <trkpt lat="42.84807" lon="0.28082">
        <ele>1295</ele>
        <time>2022-02-13T07:48:55Z</time>
      </trkpt>
      <trkpt lat="42.84812" lon="0.28067">
        <ele>1297</ele>
        <time>2022-02-13T07:49:10Z</time>
      </trkpt>
      <trkpt lat="42.84816" lon="0.28062">
        <ele>1299</ele>
        <time>2022-02-13T07:49:16Z</time>
      </trkpt>
      <trkpt lat="42.84825" lon="0.28044">
        <ele>1300</ele>
        <time>2022-02-13T07:49:29Z</time>
      </trkpt>
      <trkpt lat="42.8483" lon="0.28034">
        <ele>1302</ele>
        <time>2022-02-13T07:49:39Z</time>
      </trkpt>
      <trkpt lat="42.84831" lon="0.28032">
        <ele>1302</ele>
        <time>2022-02-13T07:49:41Z</time>
      </trkpt>
      <trkpt lat="42.84843" lon="0.28013">
        <ele>1303</ele>
        <time>2022-02-13T07:49:57Z</time>
      </trkpt>
      <trkpt lat="42.84854" lon="0.27993">
        <ele>1305</ele>
        <time>2022-02-13T07:50:13Z</time>
      </trkpt>
      <trkpt lat="42.84859" lon="0.27974">
        <ele>1306</ele>
        <time>2022-02-13T07:50:27Z</time>
      </trkpt>
      <trkpt lat="42.84861" lon="0.27961">
        <ele>1307</ele>
        <time>2022-02-13T07:50:39Z</time>
      </trkpt>
      <trkpt lat="42.84868" lon="0.27938">
        <ele>1308</ele>
        <time>2022-02-13T07:50:53Z</time>
      </trkpt>
      <trkpt lat="42.84873" lon="0.27917">
        <ele>1310</ele>
        <time>2022-02-13T07:51:08Z</time>
      </trkpt>
      <trkpt lat="42.84877" lon="0.27902">
        <ele>1312</ele>
        <time>2022-02-13T07:51:23Z</time>
      </trkpt>
      <trkpt lat="42.8488" lon="0.27885">
        <ele>1313</ele>
        <time>2022-02-13T07:51:38Z</time>
      </trkpt>
      <trkpt lat="42.84883" lon="0.27868">
        <ele>1316</ele>
        <time>2022-02-13T07:51:53Z</time>
      </trkpt>
      <trkpt lat="42.84905" lon="0.27838">
        <ele>1319</ele>
        <time>2022-02-13T07:52:09Z</time>
      </trkpt>
      <trkpt lat="42.84905" lon="0.27795">
        <ele>1321</ele>
        <time>2022-02-13T07:52:23Z</time>
      </trkpt>
      <trkpt lat="42.84911" lon="0.27774">
        <ele>1322</ele>
        <time>2022-02-13T07:52:37Z</time>
      </trkpt>
      <trkpt lat="42.84918" lon="0.27756">
        <ele>1324</ele>
        <time>2022-02-13T07:52:52Z</time>
      </trkpt>
      <trkpt lat="42.84927" lon="0.27734">
        <ele>1326</ele>
        <time>2022-02-13T07:53:07Z</time>
      </trkpt>
      <trkpt lat="42.84928" lon="0.27733">
        <ele>1327</ele>
        <time>2022-02-13T07:53:08Z</time>
      </trkpt>
      <trkpt lat="42.84938" lon="0.27719">
        <ele>1328</ele>
        <time>2022-02-13T07:53:24Z</time>
      </trkpt>
      <trkpt lat="42.84943" lon="0.27703">
        <ele>1330</ele>
        <time>2022-02-13T07:53:38Z</time>
      </trkpt>
      <trkpt lat="42.8495" lon="0.27682">
        <ele>1331</ele>
        <time>2022-02-13T07:53:53Z</time>
      </trkpt>
      <trkpt lat="42.84958" lon="0.27659">
        <ele>1333</ele>
        <time>2022-02-13T07:54:08Z</time>
      </trkpt>
      <trkpt lat="42.84965" lon="0.27647">
        <ele>1333</ele>
        <time>2022-02-13T07:54:19Z</time>
      </trkpt>
      <trkpt lat="42.84968" lon="0.2764">
        <ele>1334</ele>
        <time>2022-02-13T07:54:25Z</time>
      </trkpt>
      <trkpt lat="42.84972" lon="0.27623">
        <ele>1334</ele>
        <time>2022-02-13T07:54:38Z</time>
      </trkpt>
      <trkpt lat="42.84973" lon="0.27597">
        <ele>1333</ele>
        <time>2022-02-13T07:54:51Z</time>
      </trkpt>
      <trkpt lat="42.84975" lon="0.27581">
        <ele>1335</ele>
        <time>2022-02-13T07:55:02Z</time>
      </trkpt>
      <trkpt lat="42.84979" lon="0.27561">
        <ele>1336</ele>
        <time>2022-02-13T07:55:16Z</time>
      </trkpt>
      <trkpt lat="42.84984" lon="0.27543">
        <ele>1337</ele>
        <time>2022-02-13T07:55:32Z</time>
      </trkpt>
      <trkpt lat="42.8499" lon="0.27524">
        <ele>1339</ele>
        <time>2022-02-13T07:55:47Z</time>
      </trkpt>
      <trkpt lat="42.85" lon="0.27511">
        <ele>1340</ele>
        <time>2022-02-13T07:56:01Z</time>
      </trkpt>
      <trkpt lat="42.85013" lon="0.27493">
        <ele>1342</ele>
        <time>2022-02-13T07:56:18Z</time>
      </trkpt>
      <trkpt lat="42.85029" lon="0.27477">
        <ele>1345</ele>
        <time>2022-02-13T07:56:36Z</time>
      </trkpt>
      <trkpt lat="42.85043" lon="0.27468">
        <ele>1346</ele>
        <time>2022-02-13T07:56:49Z</time>
      </trkpt>
      <trkpt lat="42.85056" lon="0.27455">
        <ele>1348</ele>
        <time>2022-02-13T07:57:03Z</time>
      </trkpt>
      <trkpt lat="42.85069" lon="0.27436">
        <ele>1350</ele>
        <time>2022-02-13T07:57:18Z</time>
      </trkpt>
      <trkpt lat="42.85081" lon="0.27418">
        <ele>1352</ele>
        <time>2022-02-13T07:57:36Z</time>
      </trkpt>
      <trkpt lat="42.85093" lon="0.27403">
        <ele>1354</ele>
        <time>2022-02-13T07:57:50Z</time>
      </trkpt>
      <trkpt lat="42.85104" lon="0.27388">
        <ele>1356</ele>
        <time>2022-02-13T07:58:03Z</time>
      </trkpt>
      <trkpt lat="42.85113" lon="0.27377">
        <ele>1357</ele>
        <time>2022-02-13T07:58:10Z</time>
      </trkpt>
      <trkpt lat="42.85121" lon="0.27366">
        <ele>1359</ele>
        <time>2022-02-13T07:58:24Z</time>
      </trkpt>
      <trkpt lat="42.85127" lon="0.27353">
        <ele>1362</ele>
        <time>2022-02-13T07:58:40Z</time>
      </trkpt>
      <trkpt lat="42.85128" lon="0.27347">
        <ele>1363</ele>
        <time>2022-02-13T07:58:44Z</time>
      </trkpt>
      <trkpt lat="42.85127" lon="0.27329">
        <ele>1362</ele>
        <time>2022-02-13T07:58:56Z</time>
      </trkpt>
      <trkpt lat="42.8513" lon="0.27323">
        <ele>1363</ele>
        <time>2022-02-13T07:59:00Z</time>
      </trkpt>
      <trkpt lat="42.85139" lon="0.27303">
        <ele>1365</ele>
        <time>2022-02-13T07:59:12Z</time>
      </trkpt>
      <trkpt lat="42.8514" lon="0.27294">
        <ele>1365</ele>
        <time>2022-02-13T07:59:27Z</time>
      </trkpt>
      <trkpt lat="42.85142" lon="0.27294">
        <ele>1364</ele>
        <time>2022-02-13T07:59:40Z</time>
      </trkpt>
      <trkpt lat="42.85154" lon="0.2728">
        <ele>1364</ele>
        <time>2022-02-13T08:00:10Z</time>
      </trkpt>
      <trkpt lat="42.85149" lon="0.27279">
        <ele>1363</ele>
        <time>2022-02-13T08:00:33Z</time>
      </trkpt>
      <trkpt lat="42.85151" lon="0.2728">
        <ele>1364</ele>
        <time>2022-02-13T08:00:59Z</time>
      </trkpt>
      <trkpt lat="42.8515" lon="0.27279">
        <ele>1364</ele>
        <time>2022-02-13T08:01:27Z</time>
      </trkpt>
      <trkpt lat="42.85149" lon="0.27287">
        <ele>1364</ele>
        <time>2022-02-13T08:01:54Z</time>
      </trkpt>
      <trkpt lat="42.85149" lon="0.27283">
        <ele>1364</ele>
        <time>2022-02-13T08:02:25Z</time>
      </trkpt>
      <trkpt lat="42.85149" lon="0.2728">
        <ele>1365</ele>
        <time>2022-02-13T08:02:34Z</time>
      </trkpt>
      <trkpt lat="42.85148" lon="0.27277">
        <ele>1365</ele>
        <time>2022-02-13T08:02:52Z</time>
      </trkpt>
      <trkpt lat="42.85146" lon="0.27281">
        <ele>1366</ele>
        <time>2022-02-13T08:03:06Z</time>
      </trkpt>
      <trkpt lat="42.85147" lon="0.27279">
        <ele>1365</ele>
        <time>2022-02-13T08:03:21Z</time>
      </trkpt>
      <trkpt lat="42.85149" lon="0.27278">
        <ele>1367</ele>
        <time>2022-02-13T08:03:40Z</time>
      </trkpt>
      <trkpt lat="42.85151" lon="0.27273">
        <ele>1366</ele>
        <time>2022-02-13T08:03:50Z</time>
      </trkpt>
      <trkpt lat="42.85157" lon="0.27256">
        <ele>1369</ele>
        <time>2022-02-13T08:04:03Z</time>
      </trkpt>
      <trkpt lat="42.85162" lon="0.27238">
        <ele>1370</ele>
        <time>2022-02-13T08:04:16Z</time>
      </trkpt>
      <trkpt lat="42.85172" lon="0.27217">
        <ele>1372</ele>
        <time>2022-02-13T08:04:30Z</time>
      </trkpt>
      <trkpt lat="42.85184" lon="0.27199">
        <ele>1375</ele>
        <time>2022-02-13T08:04:44Z</time>
      </trkpt>
      <trkpt lat="42.85197" lon="0.27176">
        <ele>1378</ele>
        <time>2022-02-13T08:05:00Z</time>
      </trkpt>
      <trkpt lat="42.85202" lon="0.27163">
        <ele>1379</ele>
        <time>2022-02-13T08:05:10Z</time>
      </trkpt>
      <trkpt lat="42.85203" lon="0.2716">
        <ele>1380</ele>
        <time>2022-02-13T08:05:13Z</time>
      </trkpt>
      <trkpt lat="42.85215" lon="0.27146">
        <ele>1382</ele>
        <time>2022-02-13T08:05:28Z</time>
      </trkpt>
      <trkpt lat="42.85226" lon="0.27133">
        <ele>1383</ele>
        <time>2022-02-13T08:05:44Z</time>
      </trkpt>
      <trkpt lat="42.85237" lon="0.27122">
        <ele>1386</ele>
        <time>2022-02-13T08:06:00Z</time>
      </trkpt>
      <trkpt lat="42.8525" lon="0.27117">
        <ele>1389</ele>
        <time>2022-02-13T08:06:16Z</time>
      </trkpt>
      <trkpt lat="42.85258" lon="0.2711">
        <ele>1392</ele>
        <time>2022-02-13T08:06:29Z</time>
      </trkpt>
      <trkpt lat="42.85267" lon="0.27104">
        <ele>1395</ele>
        <time>2022-02-13T08:06:42Z</time>
      </trkpt>
      <trkpt lat="42.85273" lon="0.27096">
        <ele>1395</ele>
        <time>2022-02-13T08:06:54Z</time>
      </trkpt>
      <trkpt lat="42.85278" lon="0.2709">
        <ele>1398</ele>
        <time>2022-02-13T08:07:02Z</time>
      </trkpt>
      <trkpt lat="42.85287" lon="0.2708">
        <ele>1400</ele>
        <time>2022-02-13T08:07:16Z</time>
      </trkpt>
      <trkpt lat="42.85297" lon="0.27071">
        <ele>1402</ele>
        <time>2022-02-13T08:07:30Z</time>
      </trkpt>
      <trkpt lat="42.85309" lon="0.27069">
        <ele>1404</ele>
        <time>2022-02-13T08:07:43Z</time>
      </trkpt>
      <trkpt lat="42.85318" lon="0.27075">
        <ele>1407</ele>
        <time>2022-02-13T08:07:55Z</time>
      </trkpt>
      <trkpt lat="42.85324" lon="0.27075">
        <ele>1408</ele>
        <time>2022-02-13T08:08:06Z</time>
      </trkpt>
      <trkpt lat="42.85324" lon="0.27074">
        <ele>1409</ele>
        <time>2022-02-13T08:08:08Z</time>
      </trkpt>
      <trkpt lat="42.85329" lon="0.27067">
        <ele>1411</ele>
        <time>2022-02-13T08:08:18Z</time>
      </trkpt>
      <trkpt lat="42.85341" lon="0.27065">
        <ele>1412</ele>
        <time>2022-02-13T08:08:31Z</time>
      </trkpt>
      <trkpt lat="42.85344" lon="0.27064">
        <ele>1412</ele>
        <time>2022-02-13T08:08:34Z</time>
      </trkpt>
      <trkpt lat="42.85355" lon="0.27055">
        <ele>1414</ele>
        <time>2022-02-13T08:08:48Z</time>
      </trkpt>
      <trkpt lat="42.85364" lon="0.2705">
        <ele>1417</ele>
        <time>2022-02-13T08:09:01Z</time>
      </trkpt>
      <trkpt lat="42.85372" lon="0.27043">
        <ele>1418</ele>
        <time>2022-02-13T08:09:13Z</time>
      </trkpt>
      <trkpt lat="42.85382" lon="0.27035">
        <ele>1420</ele>
        <time>2022-02-13T08:09:27Z</time>
      </trkpt>
      <trkpt lat="42.8539" lon="0.27027">
        <ele>1423</ele>
        <time>2022-02-13T08:09:41Z</time>
      </trkpt>
      <trkpt lat="42.85398" lon="0.27024">
        <ele>1425</ele>
        <time>2022-02-13T08:09:53Z</time>
      </trkpt>
      <trkpt lat="42.85406" lon="0.27018">
        <ele>1426</ele>
        <time>2022-02-13T08:10:05Z</time>
      </trkpt>
      <trkpt lat="42.85412" lon="0.27006">
        <ele>1429</ele>
        <time>2022-02-13T08:10:21Z</time>
      </trkpt>
      <trkpt lat="42.85417" lon="0.26995">
        <ele>1431</ele>
        <time>2022-02-13T08:10:35Z</time>
      </trkpt>
      <trkpt lat="42.85426" lon="0.26992">
        <ele>1434</ele>
        <time>2022-02-13T08:10:49Z</time>
      </trkpt>
      <trkpt lat="42.85434" lon="0.26977">
        <ele>1436</ele>
        <time>2022-02-13T08:11:05Z</time>
      </trkpt>
      <trkpt lat="42.8544" lon="0.2697">
        <ele>1439</ele>
        <time>2022-02-13T08:11:18Z</time>
      </trkpt>
      <trkpt lat="42.85447" lon="0.2696">
        <ele>1441</ele>
        <time>2022-02-13T08:11:32Z</time>
      </trkpt>
      <trkpt lat="42.85454" lon="0.26953">
        <ele>1444</ele>
        <time>2022-02-13T08:11:46Z</time>
      </trkpt>
      <trkpt lat="42.85459" lon="0.26948">
        <ele>1446</ele>
        <time>2022-02-13T08:12:01Z</time>
      </trkpt>
      <trkpt lat="42.85471" lon="0.26953">
        <ele>1448</ele>
        <time>2022-02-13T08:12:15Z</time>
      </trkpt>
      <trkpt lat="42.8548" lon="0.26957">
        <ele>1451</ele>
        <time>2022-02-13T08:12:30Z</time>
      </trkpt>
      <trkpt lat="42.85483" lon="0.26952">
        <ele>1453</ele>
        <time>2022-02-13T08:12:35Z</time>
      </trkpt>
      <trkpt lat="42.8549" lon="0.26943">
        <ele>1455</ele>
        <time>2022-02-13T08:12:50Z</time>
      </trkpt>
      <trkpt lat="42.855" lon="0.2694">
        <ele>1457</ele>
        <time>2022-02-13T08:13:04Z</time>
      </trkpt>
      <trkpt lat="42.8551" lon="0.26934">
        <ele>1459</ele>
        <time>2022-02-13T08:13:20Z</time>
      </trkpt>
      <trkpt lat="42.8551" lon="0.26934">
        <ele>1459</ele>
        <time>2022-02-13T08:13:21Z</time>
      </trkpt>
      <trkpt lat="42.85519" lon="0.26934">
        <ele>1462</ele>
        <time>2022-02-13T08:13:36Z</time>
      </trkpt>
      <trkpt lat="42.85526" lon="0.26932">
        <ele>1465</ele>
        <time>2022-02-13T08:13:50Z</time>
      </trkpt>
      <trkpt lat="42.85528" lon="0.26932">
        <ele>1465</ele>
        <time>2022-02-13T08:13:59Z</time>
      </trkpt>
      <trkpt lat="42.85534" lon="0.26923">
        <ele>1469</ele>
        <time>2022-02-13T08:14:14Z</time>
      </trkpt>
      <trkpt lat="42.85542" lon="0.26916">
        <ele>1470</ele>
        <time>2022-02-13T08:14:27Z</time>
      </trkpt>
      <trkpt lat="42.8555" lon="0.26907">
        <ele>1473</ele>
        <time>2022-02-13T08:14:40Z</time>
      </trkpt>
      <trkpt lat="42.85557" lon="0.26896">
        <ele>1476</ele>
        <time>2022-02-13T08:14:55Z</time>
      </trkpt>
      <trkpt lat="42.8556" lon="0.26884">
        <ele>1478</ele>
        <time>2022-02-13T08:15:11Z</time>
      </trkpt>
      <trkpt lat="42.85564" lon="0.26874">
        <ele>1480</ele>
        <time>2022-02-13T08:15:25Z</time>
      </trkpt>
      <trkpt lat="42.85567" lon="0.26864">
        <ele>1481</ele>
        <time>2022-02-13T08:15:39Z</time>
      </trkpt>
      <trkpt lat="42.8557" lon="0.26856">
        <ele>1482</ele>
        <time>2022-02-13T08:15:51Z</time>
      </trkpt>
      <trkpt lat="42.85575" lon="0.26844">
        <ele>1486</ele>
        <time>2022-02-13T08:16:06Z</time>
      </trkpt>
      <trkpt lat="42.85581" lon="0.26831">
        <ele>1488</ele>
        <time>2022-02-13T08:16:22Z</time>
      </trkpt>
      <trkpt lat="42.85585" lon="0.2682">
        <ele>1490</ele>
        <time>2022-02-13T08:16:38Z</time>
      </trkpt>
      <trkpt lat="42.8559" lon="0.2681">
        <ele>1493</ele>
        <time>2022-02-13T08:16:56Z</time>
      </trkpt>
      <trkpt lat="42.85591" lon="0.26799">
        <ele>1496</ele>
        <time>2022-02-13T08:17:12Z</time>
      </trkpt>
      <trkpt lat="42.85601" lon="0.26794">
        <ele>1498</ele>
        <time>2022-02-13T08:17:29Z</time>
      </trkpt>
      <trkpt lat="42.8561" lon="0.26797">
        <ele>1500</ele>
        <time>2022-02-13T08:17:41Z</time>
      </trkpt>
      <trkpt lat="42.85615" lon="0.26791">
        <ele>1502</ele>
        <time>2022-02-13T08:17:55Z</time>
      </trkpt>
      <trkpt lat="42.8562" lon="0.26782">
        <ele>1505</ele>
        <time>2022-02-13T08:18:09Z</time>
      </trkpt>
      <trkpt lat="42.85627" lon="0.26784">
        <ele>1506</ele>
        <time>2022-02-13T08:18:22Z</time>
      </trkpt>
      <trkpt lat="42.85634" lon="0.26784">
        <ele>1509</ele>
        <time>2022-02-13T08:18:37Z</time>
      </trkpt>
      <trkpt lat="42.85636" lon="0.26771">
        <ele>1511</ele>
        <time>2022-02-13T08:18:53Z</time>
      </trkpt>
      <trkpt lat="42.85638" lon="0.26769">
        <ele>1512</ele>
        <time>2022-02-13T08:18:56Z</time>
      </trkpt>
      <trkpt lat="42.85648" lon="0.26767">
        <ele>1515</ele>
        <time>2022-02-13T08:19:11Z</time>
      </trkpt>
      <trkpt lat="42.85658" lon="0.26768">
        <ele>1517</ele>
        <time>2022-02-13T08:19:27Z</time>
      </trkpt>
      <trkpt lat="42.85663" lon="0.26766">
        <ele>1519</ele>
        <time>2022-02-13T08:19:37Z</time>
      </trkpt>
      <trkpt lat="42.85672" lon="0.26768">
        <ele>1521</ele>
        <time>2022-02-13T08:19:53Z</time>
      </trkpt>
      <trkpt lat="42.85677" lon="0.26767">
        <ele>1525</ele>
        <time>2022-02-13T08:20:07Z</time>
      </trkpt>
      <trkpt lat="42.85683" lon="0.2676">
        <ele>1527</ele>
        <time>2022-02-13T08:20:21Z</time>
      </trkpt>
      <trkpt lat="42.85686" lon="0.26747">
        <ele>1531</ele>
        <time>2022-02-13T08:20:36Z</time>
      </trkpt>
      <trkpt lat="42.85693" lon="0.26742">
        <ele>1532</ele>
        <time>2022-02-13T08:20:49Z</time>
      </trkpt>
      <trkpt lat="42.857" lon="0.26735">
        <ele>1536</ele>
        <time>2022-02-13T08:21:08Z</time>
      </trkpt>
      <trkpt lat="42.85709" lon="0.26739">
        <ele>1538</ele>
        <time>2022-02-13T08:21:23Z</time>
      </trkpt>
      <trkpt lat="42.85719" lon="0.26743">
        <ele>1541</ele>
        <time>2022-02-13T08:21:39Z</time>
      </trkpt>
      <trkpt lat="42.85722" lon="0.26731">
        <ele>1544</ele>
        <time>2022-02-13T08:21:55Z</time>
      </trkpt>
      <trkpt lat="42.85728" lon="0.26723">
        <ele>1547</ele>
        <time>2022-02-13T08:22:11Z</time>
      </trkpt>
      <trkpt lat="42.85738" lon="0.2673">
        <ele>1549</ele>
        <time>2022-02-13T08:22:26Z</time>
      </trkpt>
      <trkpt lat="42.85737" lon="0.2672">
        <ele>1551</ele>
        <time>2022-02-13T08:22:40Z</time>
      </trkpt>
      <trkpt lat="42.85737" lon="0.26709">
        <ele>1553</ele>
        <time>2022-02-13T08:22:52Z</time>
      </trkpt>
      <trkpt lat="42.85741" lon="0.26702">
        <ele>1555</ele>
        <time>2022-02-13T08:23:04Z</time>
      </trkpt>
      <trkpt lat="42.85746" lon="0.26697">
        <ele>1555</ele>
        <time>2022-02-13T08:23:18Z</time>
      </trkpt>
      <trkpt lat="42.85746" lon="0.26696">
        <ele>1556</ele>
        <time>2022-02-13T08:23:38Z</time>
      </trkpt>
      <trkpt lat="42.85749" lon="0.26697">
        <ele>1556</ele>
        <time>2022-02-13T08:23:58Z</time>
      </trkpt>
      <trkpt lat="42.8575" lon="0.26698">
        <ele>1555</ele>
        <time>2022-02-13T08:24:19Z</time>
      </trkpt>
      <trkpt lat="42.85751" lon="0.26698">
        <ele>1556</ele>
        <time>2022-02-13T08:24:39Z</time>
      </trkpt>
      <trkpt lat="42.85751" lon="0.26695">
        <ele>1556</ele>
        <time>2022-02-13T08:25:02Z</time>
      </trkpt>
      <trkpt lat="42.85756" lon="0.26687">
        <ele>1555</ele>
        <time>2022-02-13T08:25:29Z</time>
      </trkpt>
      <trkpt lat="42.85752" lon="0.26682">
        <ele>1554</ele>
        <time>2022-02-13T08:25:44Z</time>
      </trkpt>
      <trkpt lat="42.85752" lon="0.26682">
        <ele>1554</ele>
        <time>2022-02-13T08:25:55Z</time>
      </trkpt>
      <trkpt lat="42.85743" lon="0.26677">
        <ele>1552</ele>
        <time>2022-02-13T08:26:09Z</time>
      </trkpt>
      <trkpt lat="42.85741" lon="0.26667">
        <ele>1551</ele>
        <time>2022-02-13T08:26:17Z</time>
      </trkpt>
      <trkpt lat="42.85744" lon="0.26645">
        <ele>1550</ele>
        <time>2022-02-13T08:26:33Z</time>
      </trkpt>
      <trkpt lat="42.85744" lon="0.26632">
        <ele>1551</ele>
        <time>2022-02-13T08:26:49Z</time>
      </trkpt>
      <trkpt lat="42.85745" lon="0.26615">
        <ele>1552</ele>
        <time>2022-02-13T08:27:04Z</time>
      </trkpt>
      <trkpt lat="42.85747" lon="0.266">
        <ele>1554</ele>
        <time>2022-02-13T08:27:15Z</time>
      </trkpt>
      <trkpt lat="42.85749" lon="0.26585">
        <ele>1556</ele>
        <time>2022-02-13T08:27:28Z</time>
      </trkpt>
      <trkpt lat="42.85752" lon="0.26572">
        <ele>1558</ele>
        <time>2022-02-13T08:27:44Z</time>
      </trkpt>
      <trkpt lat="42.85754" lon="0.2656">
        <ele>1560</ele>
        <time>2022-02-13T08:27:59Z</time>
      </trkpt>
      <trkpt lat="42.85757" lon="0.26548">
        <ele>1562</ele>
        <time>2022-02-13T08:28:14Z</time>
      </trkpt>
      <trkpt lat="42.85762" lon="0.26532">
        <ele>1563</ele>
        <time>2022-02-13T08:28:30Z</time>
      </trkpt>
      <trkpt lat="42.85762" lon="0.2652">
        <ele>1564</ele>
        <time>2022-02-13T08:28:45Z</time>
      </trkpt>
      <trkpt lat="42.85764" lon="0.26508">
        <ele>1566</ele>
        <time>2022-02-13T08:29:01Z</time>
      </trkpt>
      <trkpt lat="42.85766" lon="0.26493">
        <ele>1568</ele>
        <time>2022-02-13T08:29:14Z</time>
      </trkpt>
      <trkpt lat="42.85769" lon="0.26479">
        <ele>1569</ele>
        <time>2022-02-13T08:29:28Z</time>
      </trkpt>
      <trkpt lat="42.85771" lon="0.26465">
        <ele>1570</ele>
        <time>2022-02-13T08:29:42Z</time>
      </trkpt>
      <trkpt lat="42.85773" lon="0.26449">
        <ele>1572</ele>
        <time>2022-02-13T08:29:58Z</time>
      </trkpt>
      <trkpt lat="42.85775" lon="0.26434">
        <ele>1575</ele>
        <time>2022-02-13T08:30:15Z</time>
      </trkpt>
      <trkpt lat="42.85779" lon="0.26418">
        <ele>1576</ele>
        <time>2022-02-13T08:30:29Z</time>
      </trkpt>
      <trkpt lat="42.85781" lon="0.26406">
        <ele>1577</ele>
        <time>2022-02-13T08:30:43Z</time>
      </trkpt>
      <trkpt lat="42.85784" lon="0.2639">
        <ele>1580</ele>
        <time>2022-02-13T08:31:00Z</time>
      </trkpt>
      <trkpt lat="42.85787" lon="0.26378">
        <ele>1581</ele>
        <time>2022-02-13T08:31:14Z</time>
      </trkpt>
      <trkpt lat="42.85789" lon="0.26364">
        <ele>1583</ele>
        <time>2022-02-13T08:31:31Z</time>
      </trkpt>
      <trkpt lat="42.85792" lon="0.26356">
        <ele>1585</ele>
        <time>2022-02-13T08:31:45Z</time>
      </trkpt>
      <trkpt lat="42.85795" lon="0.26345">
        <ele>1587</ele>
        <time>2022-02-13T08:31:57Z</time>
      </trkpt>
      <trkpt lat="42.858" lon="0.26332">
        <ele>1589</ele>
        <time>2022-02-13T08:32:12Z</time>
      </trkpt>
      <trkpt lat="42.85806" lon="0.26321">
        <ele>1591</ele>
        <time>2022-02-13T08:32:28Z</time>
      </trkpt>
      <trkpt lat="42.85809" lon="0.26309">
        <ele>1593</ele>
        <time>2022-02-13T08:32:43Z</time>
      </trkpt>
      <trkpt lat="42.85813" lon="0.26299">
        <ele>1595</ele>
        <time>2022-02-13T08:32:58Z</time>
      </trkpt>
      <trkpt lat="42.85813" lon="0.2629">
        <ele>1596</ele>
        <time>2022-02-13T08:33:11Z</time>
      </trkpt>
      <trkpt lat="42.85814" lon="0.26275">
        <ele>1594</ele>
        <time>2022-02-13T08:33:27Z</time>
      </trkpt>
      <trkpt lat="42.85814" lon="0.26263">
        <ele>1593</ele>
        <time>2022-02-13T08:33:41Z</time>
      </trkpt>
      <trkpt lat="42.85812" lon="0.26256">
        <ele>1593</ele>
        <time>2022-02-13T08:33:46Z</time>
      </trkpt>
      <trkpt lat="42.85811" lon="0.26239">
        <ele>1592</ele>
        <time>2022-02-13T08:34:01Z</time>
      </trkpt>
      <trkpt lat="42.85811" lon="0.26226">
        <ele>1594</ele>
        <time>2022-02-13T08:34:15Z</time>
      </trkpt>
      <trkpt lat="42.85813" lon="0.2621">
        <ele>1593</ele>
        <time>2022-02-13T08:34:31Z</time>
      </trkpt>
      <trkpt lat="42.85816" lon="0.26198">
        <ele>1593</ele>
        <time>2022-02-13T08:34:45Z</time>
      </trkpt>
      <trkpt lat="42.85822" lon="0.2619">
        <ele>1593</ele>
        <time>2022-02-13T08:34:59Z</time>
      </trkpt>
      <trkpt lat="42.85827" lon="0.26182">
        <ele>1595</ele>
        <time>2022-02-13T08:35:12Z</time>
      </trkpt>
      <trkpt lat="42.8583" lon="0.26173">
        <ele>1596</ele>
        <time>2022-02-13T08:35:23Z</time>
      </trkpt>
      <trkpt lat="42.85833" lon="0.26161">
        <ele>1597</ele>
        <time>2022-02-13T08:35:35Z</time>
      </trkpt>
      <trkpt lat="42.85833" lon="0.26145">
        <ele>1598</ele>
        <time>2022-02-13T08:35:47Z</time>
      </trkpt>
      <trkpt lat="42.85841" lon="0.2614">
        <ele>1600</ele>
        <time>2022-02-13T08:36:03Z</time>
      </trkpt>
      <trkpt lat="42.85841" lon="0.26128">
        <ele>1600</ele>
        <time>2022-02-13T08:36:14Z</time>
      </trkpt>
      <trkpt lat="42.85848" lon="0.26114">
        <ele>1600</ele>
        <time>2022-02-13T08:36:28Z</time>
      </trkpt>
      <trkpt lat="42.85851" lon="0.26098">
        <ele>1600</ele>
        <time>2022-02-13T08:36:43Z</time>
      </trkpt>
      <trkpt lat="42.85856" lon="0.26084">
        <ele>1601</ele>
        <time>2022-02-13T08:36:57Z</time>
      </trkpt>
      <trkpt lat="42.85861" lon="0.26079">
        <ele>1602</ele>
        <time>2022-02-13T08:37:11Z</time>
      </trkpt>
      <trkpt lat="42.8586" lon="0.26068">
        <ele>1603</ele>
        <time>2022-02-13T08:37:25Z</time>
      </trkpt>
      <trkpt lat="42.85866" lon="0.26053">
        <ele>1605</ele>
        <time>2022-02-13T08:37:42Z</time>
      </trkpt>
      <trkpt lat="42.85875" lon="0.26043">
        <ele>1606</ele>
        <time>2022-02-13T08:38:01Z</time>
      </trkpt>
      <trkpt lat="42.85874" lon="0.26031">
        <ele>1606</ele>
        <time>2022-02-13T08:38:19Z</time>
      </trkpt>
      <trkpt lat="42.85873" lon="0.26019">
        <ele>1606</ele>
        <time>2022-02-13T08:38:36Z</time>
      </trkpt>
      <trkpt lat="42.85871" lon="0.26009">
        <ele>1606</ele>
        <time>2022-02-13T08:38:50Z</time>
      </trkpt>
      <trkpt lat="42.85873" lon="0.25996">
        <ele>1607</ele>
        <time>2022-02-13T08:39:04Z</time>
      </trkpt>
      <trkpt lat="42.85878" lon="0.26004">
        <ele>1607</ele>
        <time>2022-02-13T08:39:21Z</time>
      </trkpt>
      <trkpt lat="42.8588" lon="0.26007">
        <ele>1607</ele>
        <time>2022-02-13T08:39:42Z</time>
      </trkpt>
      <trkpt lat="42.85883" lon="0.26002">
        <ele>1608</ele>
        <time>2022-02-13T08:39:59Z</time>
      </trkpt>
      <trkpt lat="42.85884" lon="0.26002">
        <ele>1608</ele>
        <time>2022-02-13T08:40:16Z</time>
      </trkpt>
      <trkpt lat="42.85882" lon="0.26">
        <ele>1608</ele>
        <time>2022-02-13T08:40:39Z</time>
      </trkpt>
      <trkpt lat="42.85883" lon="0.25989">
        <ele>1609</ele>
        <time>2022-02-13T08:40:50Z</time>
      </trkpt>
      <trkpt lat="42.8588" lon="0.25982">
        <ele>1610</ele>
        <time>2022-02-13T08:40:56Z</time>
      </trkpt>
      <trkpt lat="42.8588" lon="0.25965">
        <ele>1612</ele>
        <time>2022-02-13T08:41:11Z</time>
      </trkpt>
      <trkpt lat="42.85882" lon="0.25972">
        <ele>1613</ele>
        <time>2022-02-13T08:41:28Z</time>
      </trkpt>
      <trkpt lat="42.85883" lon="0.25962">
        <ele>1613</ele>
        <time>2022-02-13T08:41:41Z</time>
      </trkpt>
      <trkpt lat="42.85884" lon="0.25958">
        <ele>1613</ele>
        <time>2022-02-13T08:41:44Z</time>
      </trkpt>
      <trkpt lat="42.8589" lon="0.25943">
        <ele>1616</ele>
        <time>2022-02-13T08:41:58Z</time>
      </trkpt>
      <trkpt lat="42.85889" lon="0.25932">
        <ele>1616</ele>
        <time>2022-02-13T08:42:06Z</time>
      </trkpt>
      <trkpt lat="42.85882" lon="0.25915">
        <ele>1616</ele>
        <time>2022-02-13T08:42:16Z</time>
      </trkpt>
      <trkpt lat="42.8588" lon="0.25898">
        <ele>1617</ele>
        <time>2022-02-13T08:42:28Z</time>
      </trkpt>
      <trkpt lat="42.85878" lon="0.2587">
        <ele>1616</ele>
        <time>2022-02-13T08:42:44Z</time>
      </trkpt>
      <trkpt lat="42.85877" lon="0.25854">
        <ele>1619</ele>
        <time>2022-02-13T08:43:01Z</time>
      </trkpt>
      <trkpt lat="42.85878" lon="0.25842">
        <ele>1621</ele>
        <time>2022-02-13T08:43:17Z</time>
      </trkpt>
      <trkpt lat="42.85884" lon="0.25825">
        <ele>1624</ele>
        <time>2022-02-13T08:43:34Z</time>
      </trkpt>
      <trkpt lat="42.85883" lon="0.25819">
        <ele>1627</ele>
        <time>2022-02-13T08:43:46Z</time>
      </trkpt>
      <trkpt lat="42.85875" lon="0.25811">
        <ele>1628</ele>
        <time>2022-02-13T08:44:00Z</time>
      </trkpt>
      <trkpt lat="42.85882" lon="0.25804">
        <ele>1630</ele>
        <time>2022-02-13T08:44:11Z</time>
      </trkpt>
      <trkpt lat="42.85888" lon="0.25798">
        <ele>1633</ele>
        <time>2022-02-13T08:44:26Z</time>
      </trkpt>
      <trkpt lat="42.85888" lon="0.25798">
        <ele>1633</ele>
        <time>2022-02-13T08:44:27Z</time>
      </trkpt>
      <trkpt lat="42.85883" lon="0.25792">
        <ele>1634</ele>
        <time>2022-02-13T08:44:37Z</time>
      </trkpt>
      <trkpt lat="42.85891" lon="0.25784">
        <ele>1637</ele>
        <time>2022-02-13T08:44:55Z</time>
      </trkpt>
      <trkpt lat="42.8589" lon="0.25773">
        <ele>1639</ele>
        <time>2022-02-13T08:45:13Z</time>
      </trkpt>
      <trkpt lat="42.85883" lon="0.25761">
        <ele>1642</ele>
        <time>2022-02-13T08:45:29Z</time>
      </trkpt>
      <trkpt lat="42.85873" lon="0.25754">
        <ele>1645</ele>
        <time>2022-02-13T08:45:44Z</time>
      </trkpt>
      <trkpt lat="42.85883" lon="0.25749">
        <ele>1648</ele>
        <time>2022-02-13T08:45:58Z</time>
      </trkpt>
      <trkpt lat="42.85899" lon="0.25751">
        <ele>1650</ele>
        <time>2022-02-13T08:46:14Z</time>
      </trkpt>
      <trkpt lat="42.85895" lon="0.25741">
        <ele>1653</ele>
        <time>2022-02-13T08:46:31Z</time>
      </trkpt>
      <trkpt lat="42.85891" lon="0.25731">
        <ele>1654</ele>
        <time>2022-02-13T08:46:47Z</time>
      </trkpt>
      <trkpt lat="42.85891" lon="0.2573">
        <ele>1656</ele>
        <time>2022-02-13T08:46:50Z</time>
      </trkpt>
      <trkpt lat="42.85884" lon="0.25719">
        <ele>1657</ele>
        <time>2022-02-13T08:47:05Z</time>
      </trkpt>
      <trkpt lat="42.85879" lon="0.25708">
        <ele>1659</ele>
        <time>2022-02-13T08:47:17Z</time>
      </trkpt>
      <trkpt lat="42.85877" lon="0.25694">
        <ele>1662</ele>
        <time>2022-02-13T08:47:33Z</time>
      </trkpt>
      <trkpt lat="42.85875" lon="0.25683">
        <ele>1663</ele>
        <time>2022-02-13T08:47:46Z</time>
      </trkpt>
      <trkpt lat="42.85864" lon="0.25672">
        <ele>1666</ele>
        <time>2022-02-13T08:48:02Z</time>
      </trkpt>
      <trkpt lat="42.85865" lon="0.25671">
        <ele>1666</ele>
        <time>2022-02-13T08:48:03Z</time>
      </trkpt>
      <trkpt lat="42.85864" lon="0.2566">
        <ele>1667</ele>
        <time>2022-02-13T08:48:21Z</time>
      </trkpt>
      <trkpt lat="42.85865" lon="0.25652">
        <ele>1669</ele>
        <time>2022-02-13T08:48:36Z</time>
      </trkpt>
      <trkpt lat="42.85879" lon="0.25647">
        <ele>1671</ele>
        <time>2022-02-13T08:48:54Z</time>
      </trkpt>
      <trkpt lat="42.85871" lon="0.25638">
        <ele>1674</ele>
        <time>2022-02-13T08:49:08Z</time>
      </trkpt>
      <trkpt lat="42.85863" lon="0.25627">
        <ele>1676</ele>
        <time>2022-02-13T08:49:24Z</time>
      </trkpt>
      <trkpt lat="42.85855" lon="0.25617">
        <ele>1679</ele>
        <time>2022-02-13T08:49:38Z</time>
      </trkpt>
      <trkpt lat="42.85849" lon="0.25619">
        <ele>1680</ele>
        <time>2022-02-13T08:49:50Z</time>
      </trkpt>
      <trkpt lat="42.85845" lon="0.25619">
        <ele>1681</ele>
        <time>2022-02-13T08:50:01Z</time>
      </trkpt>
      <trkpt lat="42.85844" lon="0.25613">
        <ele>1683</ele>
        <time>2022-02-13T08:50:15Z</time>
      </trkpt>
      <trkpt lat="42.85851" lon="0.25604">
        <ele>1686</ele>
        <time>2022-02-13T08:50:29Z</time>
      </trkpt>
      <trkpt lat="42.85861" lon="0.25598">
        <ele>1688</ele>
        <time>2022-02-13T08:50:42Z</time>
      </trkpt>
      <trkpt lat="42.8587" lon="0.25594">
        <ele>1690</ele>
        <time>2022-02-13T08:50:56Z</time>
      </trkpt>
      <trkpt lat="42.85883" lon="0.25589">
        <ele>1692</ele>
        <time>2022-02-13T08:51:11Z</time>
      </trkpt>
      <trkpt lat="42.85894" lon="0.25587">
        <ele>1695</ele>
        <time>2022-02-13T08:51:27Z</time>
      </trkpt>
      <trkpt lat="42.85899" lon="0.25588">
        <ele>1696</ele>
        <time>2022-02-13T08:51:33Z</time>
      </trkpt>
      <trkpt lat="42.85908" lon="0.25591">
        <ele>1698</ele>
        <time>2022-02-13T08:51:45Z</time>
      </trkpt>
      <trkpt lat="42.85913" lon="0.25596">
        <ele>1699</ele>
        <time>2022-02-13T08:52:00Z</time>
      </trkpt>
      <trkpt lat="42.85909" lon="0.25592">
        <ele>1701</ele>
        <time>2022-02-13T08:52:14Z</time>
      </trkpt>
      <trkpt lat="42.85889" lon="0.25575">
        <ele>1702</ele>
        <time>2022-02-13T08:52:30Z</time>
      </trkpt>
      <trkpt lat="42.85882" lon="0.25571">
        <ele>1704</ele>
        <time>2022-02-13T08:52:44Z</time>
      </trkpt>
      <trkpt lat="42.85881" lon="0.25569">
        <ele>1706</ele>
        <time>2022-02-13T08:52:57Z</time>
      </trkpt>
      <trkpt lat="42.85873" lon="0.2557">
        <ele>1707</ele>
        <time>2022-02-13T08:53:15Z</time>
      </trkpt>
      <trkpt lat="42.85865" lon="0.25566">
        <ele>1709</ele>
        <time>2022-02-13T08:53:29Z</time>
      </trkpt>
      <trkpt lat="42.85858" lon="0.25554">
        <ele>1710</ele>
        <time>2022-02-13T08:53:43Z</time>
      </trkpt>
      <trkpt lat="42.85855" lon="0.25554">
        <ele>1712</ele>
        <time>2022-02-13T08:53:57Z</time>
      </trkpt>
      <trkpt lat="42.8585" lon="0.25547">
        <ele>1713</ele>
        <time>2022-02-13T08:54:12Z</time>
      </trkpt>
      <trkpt lat="42.85848" lon="0.25548">
        <ele>1714</ele>
        <time>2022-02-13T08:54:27Z</time>
      </trkpt>
      <trkpt lat="42.85843" lon="0.25546">
        <ele>1715</ele>
        <time>2022-02-13T08:54:43Z</time>
      </trkpt>
      <trkpt lat="42.85838" lon="0.25541">
        <ele>1717</ele>
        <time>2022-02-13T08:55:01Z</time>
      </trkpt>
      <trkpt lat="42.85834" lon="0.25538">
        <ele>1718</ele>
        <time>2022-02-13T08:55:22Z</time>
      </trkpt>
      <trkpt lat="42.85833" lon="0.25531">
        <ele>1718</ele>
        <time>2022-02-13T08:55:37Z</time>
      </trkpt>
      <trkpt lat="42.85834" lon="0.25527">
        <ele>1718</ele>
        <time>2022-02-13T08:55:52Z</time>
      </trkpt>
      <trkpt lat="42.85834" lon="0.25527">
        <ele>1720</ele>
        <time>2022-02-13T08:56:01Z</time>
      </trkpt>
      <trkpt lat="42.85835" lon="0.25527">
        <ele>1718</ele>
        <time>2022-02-13T08:56:04Z</time>
      </trkpt>
      <trkpt lat="42.85839" lon="0.25531">
        <ele>1719</ele>
        <time>2022-02-13T08:56:21Z</time>
      </trkpt>
      <trkpt lat="42.85842" lon="0.25527">
        <ele>1719</ele>
        <time>2022-02-13T08:56:37Z</time>
      </trkpt>
      <trkpt lat="42.85841" lon="0.25526">
        <ele>1720</ele>
        <time>2022-02-13T08:56:57Z</time>
      </trkpt>
      <trkpt lat="42.85835" lon="0.25525">
        <ele>1720</ele>
        <time>2022-02-13T08:57:15Z</time>
      </trkpt>
      <trkpt lat="42.85829" lon="0.25522">
        <ele>1723</ele>
        <time>2022-02-13T08:57:29Z</time>
      </trkpt>
      <trkpt lat="42.85826" lon="0.25519">
        <ele>1725</ele>
        <time>2022-02-13T08:57:43Z</time>
      </trkpt>
      <trkpt lat="42.85832" lon="0.25509">
        <ele>1727</ele>
        <time>2022-02-13T08:57:59Z</time>
      </trkpt>
      <trkpt lat="42.85824" lon="0.25506">
        <ele>1729</ele>
        <time>2022-02-13T08:58:12Z</time>
      </trkpt>
      <trkpt lat="42.8582" lon="0.25505">
        <ele>1732</ele>
        <time>2022-02-13T08:58:25Z</time>
      </trkpt>
      <trkpt lat="42.85814" lon="0.25501">
        <ele>1735</ele>
        <time>2022-02-13T08:58:39Z</time>
      </trkpt>
      <trkpt lat="42.85809" lon="0.25496">
        <ele>1739</ele>
        <time>2022-02-13T08:58:54Z</time>
      </trkpt>
      <trkpt lat="42.85812" lon="0.25492">
        <ele>1740</ele>
        <time>2022-02-13T08:58:59Z</time>
      </trkpt>
      <trkpt lat="42.85816" lon="0.25478">
        <ele>1742</ele>
        <time>2022-02-13T08:59:14Z</time>
      </trkpt>
      <trkpt lat="42.85818" lon="0.25473">
        <ele>1743</ele>
        <time>2022-02-13T08:59:30Z</time>
      </trkpt>
      <trkpt lat="42.85807" lon="0.2547">
        <ele>1744</ele>
        <time>2022-02-13T08:59:45Z</time>
      </trkpt>
      <trkpt lat="42.85801" lon="0.2546">
        <ele>1746</ele>
        <time>2022-02-13T09:00:01Z</time>
      </trkpt>
      <trkpt lat="42.85793" lon="0.25451">
        <ele>1749</ele>
        <time>2022-02-13T09:00:17Z</time>
      </trkpt>
      <trkpt lat="42.85785" lon="0.25442">
        <ele>1750</ele>
        <time>2022-02-13T09:00:29Z</time>
      </trkpt>
      <trkpt lat="42.85783" lon="0.2544">
        <ele>1751</ele>
        <time>2022-02-13T09:00:33Z</time>
      </trkpt>
      <trkpt lat="42.85781" lon="0.25424">
        <ele>1753</ele>
        <time>2022-02-13T09:00:51Z</time>
      </trkpt>
      <trkpt lat="42.85784" lon="0.2542">
        <ele>1753</ele>
        <time>2022-02-13T09:01:09Z</time>
      </trkpt>
      <trkpt lat="42.85785" lon="0.25418">
        <ele>1754</ele>
        <time>2022-02-13T09:01:31Z</time>
      </trkpt>
      <trkpt lat="42.85778" lon="0.25426">
        <ele>1754</ele>
        <time>2022-02-13T09:01:52Z</time>
      </trkpt>
      <trkpt lat="42.8578" lon="0.25426">
        <ele>1754</ele>
        <time>2022-02-13T09:02:17Z</time>
      </trkpt>
      <trkpt lat="42.85783" lon="0.25424">
        <ele>1753</ele>
        <time>2022-02-13T09:02:42Z</time>
      </trkpt>
      <trkpt lat="42.85788" lon="0.25421">
        <ele>1753</ele>
        <time>2022-02-13T09:03:03Z</time>
      </trkpt>
      <trkpt lat="42.85781" lon="0.25426">
        <ele>1753</ele>
        <time>2022-02-13T09:03:24Z</time>
      </trkpt>
      <trkpt lat="42.85777" lon="0.25429">
        <ele>1753</ele>
        <time>2022-02-13T09:03:44Z</time>
      </trkpt>
      <trkpt lat="42.8578" lon="0.25421">
        <ele>1753</ele>
        <time>2022-02-13T09:04:06Z</time>
      </trkpt>
      <trkpt lat="42.85784" lon="0.2542">
        <ele>1753</ele>
        <time>2022-02-13T09:04:26Z</time>
      </trkpt>
      <trkpt lat="42.85782" lon="0.25425">
        <ele>1753</ele>
        <time>2022-02-13T09:04:45Z</time>
      </trkpt>
      <trkpt lat="42.85783" lon="0.25425">
        <ele>1753</ele>
        <time>2022-02-13T09:05:04Z</time>
      </trkpt>
      <trkpt lat="42.8578" lon="0.25422">
        <ele>1753</ele>
        <time>2022-02-13T09:05:21Z</time>
      </trkpt>
      <trkpt lat="42.85782" lon="0.25425">
        <ele>1754</ele>
        <time>2022-02-13T09:05:41Z</time>
      </trkpt>
      <trkpt lat="42.85781" lon="0.25425">
        <ele>1754</ele>
        <time>2022-02-13T09:06:05Z</time>
      </trkpt>
      <trkpt lat="42.85781" lon="0.25419">
        <ele>1755</ele>
        <time>2022-02-13T09:06:26Z</time>
      </trkpt>
      <trkpt lat="42.85776" lon="0.25408">
        <ele>1757</ele>
        <time>2022-02-13T09:06:41Z</time>
      </trkpt>
      <trkpt lat="42.8577" lon="0.25399">
        <ele>1757</ele>
        <time>2022-02-13T09:06:55Z</time>
      </trkpt>
      <trkpt lat="42.85767" lon="0.25389">
        <ele>1760</ele>
        <time>2022-02-13T09:07:11Z</time>
      </trkpt>
      <trkpt lat="42.85762" lon="0.25379">
        <ele>1762</ele>
        <time>2022-02-13T09:07:24Z</time>
      </trkpt>
      <trkpt lat="42.85761" lon="0.25368">
        <ele>1765</ele>
        <time>2022-02-13T09:07:42Z</time>
      </trkpt>
      <trkpt lat="42.85759" lon="0.25362">
        <ele>1765</ele>
        <time>2022-02-13T09:07:51Z</time>
      </trkpt>
      <trkpt lat="42.85751" lon="0.25352">
        <ele>1768</ele>
        <time>2022-02-13T09:08:08Z</time>
      </trkpt>
      <trkpt lat="42.85747" lon="0.25345">
        <ele>1771</ele>
        <time>2022-02-13T09:08:20Z</time>
      </trkpt>
      <trkpt lat="42.85742" lon="0.25328">
        <ele>1773</ele>
        <time>2022-02-13T09:08:40Z</time>
      </trkpt>
      <trkpt lat="42.85739" lon="0.25317">
        <ele>1774</ele>
        <time>2022-02-13T09:08:54Z</time>
      </trkpt>
      <trkpt lat="42.85737" lon="0.25308">
        <ele>1776</ele>
        <time>2022-02-13T09:09:08Z</time>
      </trkpt>
      <trkpt lat="42.85733" lon="0.25298">
        <ele>1779</ele>
        <time>2022-02-13T09:09:24Z</time>
      </trkpt>
      <trkpt lat="42.85729" lon="0.25289">
        <ele>1781</ele>
        <time>2022-02-13T09:09:39Z</time>
      </trkpt>
      <trkpt lat="42.85726" lon="0.25279">
        <ele>1784</ele>
        <time>2022-02-13T09:09:57Z</time>
      </trkpt>
      <trkpt lat="42.85725" lon="0.25272">
        <ele>1786</ele>
        <time>2022-02-13T09:10:13Z</time>
      </trkpt>
      <trkpt lat="42.85733" lon="0.2527">
        <ele>1788</ele>
        <time>2022-02-13T09:10:27Z</time>
      </trkpt>
      <trkpt lat="42.85735" lon="0.25268">
        <ele>1791</ele>
        <time>2022-02-13T09:10:41Z</time>
      </trkpt>
      <trkpt lat="42.85727" lon="0.25261">
        <ele>1791</ele>
        <time>2022-02-13T09:10:58Z</time>
      </trkpt>
      <trkpt lat="42.85723" lon="0.25259">
        <ele>1794</ele>
        <time>2022-02-13T09:11:05Z</time>
      </trkpt>
      <trkpt lat="42.85723" lon="0.25259">
        <ele>1794</ele>
        <time>2022-02-13T09:11:06Z</time>
      </trkpt>
      <trkpt lat="42.85717" lon="0.25256">
        <ele>1796</ele>
        <time>2022-02-13T09:11:17Z</time>
      </trkpt>
      <trkpt lat="42.85709" lon="0.2525">
        <ele>1799</ele>
        <time>2022-02-13T09:11:31Z</time>
      </trkpt>
      <trkpt lat="42.85699" lon="0.25249">
        <ele>1801</ele>
        <time>2022-02-13T09:11:47Z</time>
      </trkpt>
      <trkpt lat="42.85696" lon="0.25237">
        <ele>1803</ele>
        <time>2022-02-13T09:12:01Z</time>
      </trkpt>
      <trkpt lat="42.85691" lon="0.25228">
        <ele>1806</ele>
        <time>2022-02-13T09:12:17Z</time>
      </trkpt>
      <trkpt lat="42.85684" lon="0.25215">
        <ele>1808</ele>
        <time>2022-02-13T09:12:31Z</time>
      </trkpt>
      <trkpt lat="42.85677" lon="0.25207">
        <ele>1810</ele>
        <time>2022-02-13T09:12:48Z</time>
      </trkpt>
      <trkpt lat="42.85672" lon="0.25193">
        <ele>1813</ele>
        <time>2022-02-13T09:13:05Z</time>
      </trkpt>
      <trkpt lat="42.85666" lon="0.25183">
        <ele>1816</ele>
        <time>2022-02-13T09:13:21Z</time>
      </trkpt>
      <trkpt lat="42.85663" lon="0.2517">
        <ele>1817</ele>
        <time>2022-02-13T09:13:37Z</time>
      </trkpt>
      <trkpt lat="42.8566" lon="0.25164">
        <ele>1818</ele>
        <time>2022-02-13T09:13:47Z</time>
      </trkpt>
      <trkpt lat="42.85653" lon="0.25159">
        <ele>1821</ele>
        <time>2022-02-13T09:14:02Z</time>
      </trkpt>
      <trkpt lat="42.85647" lon="0.2515">
        <ele>1823</ele>
        <time>2022-02-13T09:14:17Z</time>
      </trkpt>
      <trkpt lat="42.85647" lon="0.25136">
        <ele>1826</ele>
        <time>2022-02-13T09:14:33Z</time>
      </trkpt>
      <trkpt lat="42.85649" lon="0.25125">
        <ele>1828</ele>
        <time>2022-02-13T09:14:47Z</time>
      </trkpt>
      <trkpt lat="42.8565" lon="0.2512">
        <ele>1828</ele>
        <time>2022-02-13T09:15:04Z</time>
      </trkpt>
      <trkpt lat="42.8565" lon="0.25117">
        <ele>1828</ele>
        <time>2022-02-13T09:15:22Z</time>
      </trkpt>
      <trkpt lat="42.85648" lon="0.25112">
        <ele>1829</ele>
        <time>2022-02-13T09:15:42Z</time>
      </trkpt>
      <trkpt lat="42.85651" lon="0.2511">
        <ele>1827</ele>
        <time>2022-02-13T09:15:51Z</time>
      </trkpt>
      <trkpt lat="42.85652" lon="0.25106">
        <ele>1830</ele>
        <time>2022-02-13T09:15:56Z</time>
      </trkpt>
      <trkpt lat="42.85653" lon="0.25105">
        <ele>1830</ele>
        <time>2022-02-13T09:15:58Z</time>
      </trkpt>
      <trkpt lat="42.85654" lon="0.25101">
        <ele>1832</ele>
        <time>2022-02-13T09:16:05Z</time>
      </trkpt>
      <trkpt lat="42.85654" lon="0.25088">
        <ele>1835</ele>
        <time>2022-02-13T09:16:24Z</time>
      </trkpt>
      <trkpt lat="42.85651" lon="0.25078">
        <ele>1837</ele>
        <time>2022-02-13T09:16:38Z</time>
      </trkpt>
      <trkpt lat="42.8565" lon="0.25078">
        <ele>1837</ele>
        <time>2022-02-13T09:16:39Z</time>
      </trkpt>
      <trkpt lat="42.85638" lon="0.25065">
        <ele>1839</ele>
        <time>2022-02-13T09:16:58Z</time>
      </trkpt>
      <trkpt lat="42.85635" lon="0.25053">
        <ele>1841</ele>
        <time>2022-02-13T09:17:09Z</time>
      </trkpt>
      <trkpt lat="42.85636" lon="0.25044">
        <ele>1841</ele>
        <time>2022-02-13T09:17:17Z</time>
      </trkpt>
      <trkpt lat="42.85642" lon="0.25025">
        <ele>1842</ele>
        <time>2022-02-13T09:17:31Z</time>
      </trkpt>
      <trkpt lat="42.85645" lon="0.2501">
        <ele>1840</ele>
        <time>2022-02-13T09:17:41Z</time>
      </trkpt>
      <trkpt lat="42.8565" lon="0.24989">
        <ele>1840</ele>
        <time>2022-02-13T09:17:55Z</time>
      </trkpt>
      <trkpt lat="42.85652" lon="0.24974">
        <ele>1840</ele>
        <time>2022-02-13T09:18:08Z</time>
      </trkpt>
      <trkpt lat="42.85652" lon="0.24973">
        <ele>1841</ele>
        <time>2022-02-13T09:18:09Z</time>
      </trkpt>
      <trkpt lat="42.85652" lon="0.24965">
        <ele>1842</ele>
        <time>2022-02-13T09:18:24Z</time>
      </trkpt>
      <trkpt lat="42.8565" lon="0.24956">
        <ele>1843</ele>
        <time>2022-02-13T09:18:35Z</time>
      </trkpt>
      <trkpt lat="42.85651" lon="0.24939">
        <ele>1845</ele>
        <time>2022-02-13T09:18:49Z</time>
      </trkpt>
      <trkpt lat="42.85652" lon="0.24935">
        <ele>1845</ele>
        <time>2022-02-13T09:18:53Z</time>
      </trkpt>
      <trkpt lat="42.85656" lon="0.24922">
        <ele>1845</ele>
        <time>2022-02-13T09:19:05Z</time>
      </trkpt>
      <trkpt lat="42.85658" lon="0.24905">
        <ele>1846</ele>
        <time>2022-02-13T09:19:19Z</time>
      </trkpt>
      <trkpt lat="42.85657" lon="0.24888">
        <ele>1848</ele>
        <time>2022-02-13T09:19:34Z</time>
      </trkpt>
      <trkpt lat="42.85654" lon="0.2487">
        <ele>1849</ele>
        <time>2022-02-13T09:19:49Z</time>
      </trkpt>
      <trkpt lat="42.85649" lon="0.24856">
        <ele>1851</ele>
        <time>2022-02-13T09:20:04Z</time>
      </trkpt>
      <trkpt lat="42.85648" lon="0.24847">
        <ele>1852</ele>
        <time>2022-02-13T09:20:14Z</time>
      </trkpt>
      <trkpt lat="42.8565" lon="0.24836">
        <ele>1853</ele>
        <time>2022-02-13T09:20:24Z</time>
      </trkpt>
      <trkpt lat="42.85654" lon="0.24818">
        <ele>1854</ele>
        <time>2022-02-13T09:20:39Z</time>
      </trkpt>
      <trkpt lat="42.85659" lon="0.24801">
        <ele>1854</ele>
        <time>2022-02-13T09:20:55Z</time>
      </trkpt>
      <trkpt lat="42.85663" lon="0.24786">
        <ele>1855</ele>
        <time>2022-02-13T09:21:08Z</time>
      </trkpt>
      <trkpt lat="42.85669" lon="0.24771">
        <ele>1857</ele>
        <time>2022-02-13T09:21:21Z</time>
      </trkpt>
      <trkpt lat="42.85675" lon="0.24757">
        <ele>1859</ele>
        <time>2022-02-13T09:21:36Z</time>
      </trkpt>
      <trkpt lat="42.85684" lon="0.24745">
        <ele>1861</ele>
        <time>2022-02-13T09:21:50Z</time>
      </trkpt>
      <trkpt lat="42.85689" lon="0.24736">
        <ele>1863</ele>
        <time>2022-02-13T09:22:02Z</time>
      </trkpt>
      <trkpt lat="42.85695" lon="0.24719">
        <ele>1865</ele>
        <time>2022-02-13T09:22:18Z</time>
      </trkpt>
      <trkpt lat="42.857" lon="0.24706">
        <ele>1865</ele>
        <time>2022-02-13T09:22:31Z</time>
      </trkpt>
      <trkpt lat="42.85705" lon="0.24693">
        <ele>1865</ele>
        <time>2022-02-13T09:22:44Z</time>
      </trkpt>
      <trkpt lat="42.85707" lon="0.24677">
        <ele>1867</ele>
        <time>2022-02-13T09:22:59Z</time>
      </trkpt>
      <trkpt lat="42.85707" lon="0.2466">
        <ele>1867</ele>
        <time>2022-02-13T09:23:14Z</time>
      </trkpt>
      <trkpt lat="42.85706" lon="0.24647">
        <ele>1869</ele>
        <time>2022-02-13T09:23:28Z</time>
      </trkpt>
      <trkpt lat="42.85706" lon="0.24634">
        <ele>1871</ele>
        <time>2022-02-13T09:23:41Z</time>
      </trkpt>
      <trkpt lat="42.85706" lon="0.2462">
        <ele>1873</ele>
        <time>2022-02-13T09:23:55Z</time>
      </trkpt>
      <trkpt lat="42.85707" lon="0.24606">
        <ele>1875</ele>
        <time>2022-02-13T09:24:10Z</time>
      </trkpt>
      <trkpt lat="42.85706" lon="0.24595">
        <ele>1877</ele>
        <time>2022-02-13T09:24:23Z</time>
      </trkpt>
      <trkpt lat="42.85706" lon="0.24581">
        <ele>1879</ele>
        <time>2022-02-13T09:24:37Z</time>
      </trkpt>
      <trkpt lat="42.85707" lon="0.24569">
        <ele>1880</ele>
        <time>2022-02-13T09:24:48Z</time>
      </trkpt>
      <trkpt lat="42.85707" lon="0.24561">
        <ele>1882</ele>
        <time>2022-02-13T09:25:04Z</time>
      </trkpt>
      <trkpt lat="42.85706" lon="0.24548">
        <ele>1886</ele>
        <time>2022-02-13T09:25:22Z</time>
      </trkpt>
      <trkpt lat="42.85703" lon="0.24537">
        <ele>1887</ele>
        <time>2022-02-13T09:25:37Z</time>
      </trkpt>
      <trkpt lat="42.85702" lon="0.24526">
        <ele>1889</ele>
        <time>2022-02-13T09:25:51Z</time>
      </trkpt>
      <trkpt lat="42.85707" lon="0.24517">
        <ele>1892</ele>
        <time>2022-02-13T09:26:07Z</time>
      </trkpt>
      <trkpt lat="42.85708" lon="0.24506">
        <ele>1894</ele>
        <time>2022-02-13T09:26:21Z</time>
      </trkpt>
      <trkpt lat="42.85704" lon="0.24496">
        <ele>1897</ele>
        <time>2022-02-13T09:26:36Z</time>
      </trkpt>
      <trkpt lat="42.85702" lon="0.24486">
        <ele>1898</ele>
        <time>2022-02-13T09:26:51Z</time>
      </trkpt>
      <trkpt lat="42.85703" lon="0.24478">
        <ele>1902</ele>
        <time>2022-02-13T09:27:02Z</time>
      </trkpt>
      <trkpt lat="42.85704" lon="0.24479">
        <ele>1902</ele>
        <time>2022-02-13T09:27:03Z</time>
      </trkpt>
      <trkpt lat="42.85707" lon="0.24479">
        <ele>1903</ele>
        <time>2022-02-13T09:27:07Z</time>
      </trkpt>
      <trkpt lat="42.85713" lon="0.24478">
        <ele>1904</ele>
        <time>2022-02-13T09:27:19Z</time>
      </trkpt>
      <trkpt lat="42.85716" lon="0.24472">
        <ele>1905</ele>
        <time>2022-02-13T09:27:30Z</time>
      </trkpt>
      <trkpt lat="42.85716" lon="0.24462">
        <ele>1907</ele>
        <time>2022-02-13T09:27:40Z</time>
      </trkpt>
      <trkpt lat="42.85716" lon="0.24447">
        <ele>1909</ele>
        <time>2022-02-13T09:27:55Z</time>
      </trkpt>
      <trkpt lat="42.85719" lon="0.24438">
        <ele>1910</ele>
        <time>2022-02-13T09:28:09Z</time>
      </trkpt>
      <trkpt lat="42.85724" lon="0.24431">
        <ele>1912</ele>
        <time>2022-02-13T09:28:23Z</time>
      </trkpt>
      <trkpt lat="42.85725" lon="0.24421">
        <ele>1915</ele>
        <time>2022-02-13T09:28:37Z</time>
      </trkpt>
      <trkpt lat="42.85727" lon="0.24408">
        <ele>1917</ele>
        <time>2022-02-13T09:28:53Z</time>
      </trkpt>
      <trkpt lat="42.85728" lon="0.244">
        <ele>1919</ele>
        <time>2022-02-13T09:29:06Z</time>
      </trkpt>
      <trkpt lat="42.85724" lon="0.2439">
        <ele>1921</ele>
        <time>2022-02-13T09:29:21Z</time>
      </trkpt>
      <trkpt lat="42.85724" lon="0.2438">
        <ele>1923</ele>
        <time>2022-02-13T09:29:34Z</time>
      </trkpt>
      <trkpt lat="42.85728" lon="0.2437">
        <ele>1926</ele>
        <time>2022-02-13T09:29:49Z</time>
      </trkpt>
      <trkpt lat="42.8573" lon="0.24367">
        <ele>1927</ele>
        <time>2022-02-13T09:29:54Z</time>
      </trkpt>
      <trkpt lat="42.85736" lon="0.2436">
        <ele>1929</ele>
        <time>2022-02-13T09:30:08Z</time>
      </trkpt>
      <trkpt lat="42.85743" lon="0.24357">
        <ele>1931</ele>
        <time>2022-02-13T09:30:22Z</time>
      </trkpt>
      <trkpt lat="42.85748" lon="0.24352">
        <ele>1933</ele>
        <time>2022-02-13T09:30:36Z</time>
      </trkpt>
      <trkpt lat="42.85741" lon="0.24343">
        <ele>1936</ele>
        <time>2022-02-13T09:30:53Z</time>
      </trkpt>
      <trkpt lat="42.85733" lon="0.24334">
        <ele>1938</ele>
        <time>2022-02-13T09:31:09Z</time>
      </trkpt>
      <trkpt lat="42.85728" lon="0.24328">
        <ele>1940</ele>
        <time>2022-02-13T09:31:24Z</time>
      </trkpt>
      <trkpt lat="42.8572" lon="0.24323">
        <ele>1942</ele>
        <time>2022-02-13T09:31:41Z</time>
      </trkpt>
      <trkpt lat="42.85713" lon="0.24317">
        <ele>1945</ele>
        <time>2022-02-13T09:31:56Z</time>
      </trkpt>
      <trkpt lat="42.85716" lon="0.24306">
        <ele>1947</ele>
        <time>2022-02-13T09:32:12Z</time>
      </trkpt>
      <trkpt lat="42.85717" lon="0.24299">
        <ele>1950</ele>
        <time>2022-02-13T09:32:27Z</time>
      </trkpt>
      <trkpt lat="42.85711" lon="0.24294">
        <ele>1953</ele>
        <time>2022-02-13T09:32:42Z</time>
      </trkpt>
      <trkpt lat="42.85703" lon="0.24287">
        <ele>1955</ele>
        <time>2022-02-13T09:32:58Z</time>
      </trkpt>
      <trkpt lat="42.857" lon="0.24285">
        <ele>1956</ele>
        <time>2022-02-13T09:33:04Z</time>
      </trkpt>
      <trkpt lat="42.85694" lon="0.24277">
        <ele>1958</ele>
        <time>2022-02-13T09:33:19Z</time>
      </trkpt>
      <trkpt lat="42.85687" lon="0.24271">
        <ele>1961</ele>
        <time>2022-02-13T09:33:32Z</time>
      </trkpt>
      <trkpt lat="42.85677" lon="0.24273">
        <ele>1964</ele>
        <time>2022-02-13T09:33:51Z</time>
      </trkpt>
      <trkpt lat="42.85671" lon="0.2427">
        <ele>1966</ele>
        <time>2022-02-13T09:34:06Z</time>
      </trkpt>
      <trkpt lat="42.85663" lon="0.24269">
        <ele>1969</ele>
        <time>2022-02-13T09:34:24Z</time>
      </trkpt>
      <trkpt lat="42.85656" lon="0.24263">
        <ele>1972</ele>
        <time>2022-02-13T09:34:40Z</time>
      </trkpt>
      <trkpt lat="42.85651" lon="0.24257">
        <ele>1974</ele>
        <time>2022-02-13T09:34:56Z</time>
      </trkpt>
      <trkpt lat="42.85644" lon="0.24246">
        <ele>1977</ele>
        <time>2022-02-13T09:35:12Z</time>
      </trkpt>
      <trkpt lat="42.85639" lon="0.24239">
        <ele>1979</ele>
        <time>2022-02-13T09:35:30Z</time>
      </trkpt>
      <trkpt lat="42.85632" lon="0.24229">
        <ele>1982</ele>
        <time>2022-02-13T09:35:49Z</time>
      </trkpt>
      <trkpt lat="42.85629" lon="0.24224">
        <ele>1983</ele>
        <time>2022-02-13T09:35:57Z</time>
      </trkpt>
      <trkpt lat="42.85626" lon="0.24219">
        <ele>1985</ele>
        <time>2022-02-13T09:36:12Z</time>
      </trkpt>
      <trkpt lat="42.85624" lon="0.24216">
        <ele>1987</ele>
        <time>2022-02-13T09:36:17Z</time>
      </trkpt>
      <trkpt lat="42.8562" lon="0.24204">
        <ele>1989</ele>
        <time>2022-02-13T09:36:36Z</time>
      </trkpt>
      <trkpt lat="42.8562" lon="0.24196">
        <ele>1992</ele>
        <time>2022-02-13T09:36:49Z</time>
      </trkpt>
      <trkpt lat="42.85617" lon="0.24184">
        <ele>1990</ele>
        <time>2022-02-13T09:37:05Z</time>
      </trkpt>
      <trkpt lat="42.85617" lon="0.24183">
        <ele>1993</ele>
        <time>2022-02-13T09:37:07Z</time>
      </trkpt>
      <trkpt lat="42.85617" lon="0.24182">
        <ele>1992</ele>
        <time>2022-02-13T09:37:08Z</time>
      </trkpt>
      <trkpt lat="42.85616" lon="0.24175">
        <ele>1996</ele>
        <time>2022-02-13T09:37:18Z</time>
      </trkpt>
      <trkpt lat="42.85616" lon="0.24162">
        <ele>1997</ele>
        <time>2022-02-13T09:37:36Z</time>
      </trkpt>
      <trkpt lat="42.85615" lon="0.24158">
        <ele>1998</ele>
        <time>2022-02-13T09:37:41Z</time>
      </trkpt>
      <trkpt lat="42.85616" lon="0.24153">
        <ele>2000</ele>
        <time>2022-02-13T09:37:54Z</time>
      </trkpt>
      <trkpt lat="42.85617" lon="0.24143">
        <ele>2004</ele>
        <time>2022-02-13T09:38:04Z</time>
      </trkpt>
      <trkpt lat="42.85618" lon="0.2413">
        <ele>2005</ele>
        <time>2022-02-13T09:38:17Z</time>
      </trkpt>
      <trkpt lat="42.85615" lon="0.24114">
        <ele>2007</ele>
        <time>2022-02-13T09:38:37Z</time>
      </trkpt>
      <trkpt lat="42.85615" lon="0.2411">
        <ele>2010</ele>
        <time>2022-02-13T09:38:45Z</time>
      </trkpt>
      <trkpt lat="42.85615" lon="0.241">
        <ele>2012</ele>
        <time>2022-02-13T09:38:59Z</time>
      </trkpt>
      <trkpt lat="42.85614" lon="0.24099">
        <ele>2013</ele>
        <time>2022-02-13T09:39:01Z</time>
      </trkpt>
      <trkpt lat="42.85612" lon="0.24091">
        <ele>2016</ele>
        <time>2022-02-13T09:39:19Z</time>
      </trkpt>
      <trkpt lat="42.8561" lon="0.24081">
        <ele>2018</ele>
        <time>2022-02-13T09:39:32Z</time>
      </trkpt>
      <trkpt lat="42.8561" lon="0.24072">
        <ele>2019</ele>
        <time>2022-02-13T09:39:46Z</time>
      </trkpt>
      <trkpt lat="42.85613" lon="0.24068">
        <ele>2021</ele>
        <time>2022-02-13T09:39:55Z</time>
      </trkpt>
      <trkpt lat="42.85619" lon="0.24064">
        <ele>2021</ele>
        <time>2022-02-13T09:40:08Z</time>
      </trkpt>
      <trkpt lat="42.85624" lon="0.24055">
        <ele>2023</ele>
        <time>2022-02-13T09:40:24Z</time>
      </trkpt>
      <trkpt lat="42.85624" lon="0.24054">
        <ele>2023</ele>
        <time>2022-02-13T09:40:25Z</time>
      </trkpt>
      <trkpt lat="42.85627" lon="0.24045">
        <ele>2025</ele>
        <time>2022-02-13T09:40:40Z</time>
      </trkpt>
      <trkpt lat="42.85629" lon="0.24038">
        <ele>2028</ele>
        <time>2022-02-13T09:40:52Z</time>
      </trkpt>
      <trkpt lat="42.8563" lon="0.24037">
        <ele>2028</ele>
        <time>2022-02-13T09:40:53Z</time>
      </trkpt>
      <trkpt lat="42.85635" lon="0.24032">
        <ele>2030</ele>
        <time>2022-02-13T09:41:03Z</time>
      </trkpt>
      <trkpt lat="42.85642" lon="0.24022">
        <ele>2034</ele>
        <time>2022-02-13T09:41:20Z</time>
      </trkpt>
      <trkpt lat="42.85646" lon="0.2401">
        <ele>2036</ele>
        <time>2022-02-13T09:41:35Z</time>
      </trkpt>
      <trkpt lat="42.85647" lon="0.24008">
        <ele>2036</ele>
        <time>2022-02-13T09:41:38Z</time>
      </trkpt>
      <trkpt lat="42.85651" lon="0.23996">
        <ele>2038</ele>
        <time>2022-02-13T09:41:52Z</time>
      </trkpt>
      <trkpt lat="42.85652" lon="0.23984">
        <ele>2039</ele>
        <time>2022-02-13T09:42:06Z</time>
      </trkpt>
      <trkpt lat="42.85651" lon="0.23973">
        <ele>2041</ele>
        <time>2022-02-13T09:42:19Z</time>
      </trkpt>
      <trkpt lat="42.85648" lon="0.23965">
        <ele>2043</ele>
        <time>2022-02-13T09:42:32Z</time>
      </trkpt>
      <trkpt lat="42.85645" lon="0.23959">
        <ele>2045</ele>
        <time>2022-02-13T09:42:46Z</time>
      </trkpt>
      <trkpt lat="42.85639" lon="0.23954">
        <ele>2048</ele>
        <time>2022-02-13T09:43:04Z</time>
      </trkpt>
      <trkpt lat="42.85633" lon="0.23948">
        <ele>2050</ele>
        <time>2022-02-13T09:43:19Z</time>
      </trkpt>
      <trkpt lat="42.85625" lon="0.23946">
        <ele>2053</ele>
        <time>2022-02-13T09:43:35Z</time>
      </trkpt>
      <trkpt lat="42.85618" lon="0.23941">
        <ele>2056</ele>
        <time>2022-02-13T09:43:47Z</time>
      </trkpt>
      <trkpt lat="42.85616" lon="0.23933">
        <ele>2056</ele>
        <time>2022-02-13T09:43:59Z</time>
      </trkpt>
      <trkpt lat="42.8562" lon="0.23922">
        <ele>2058</ele>
        <time>2022-02-13T09:44:10Z</time>
      </trkpt>
      <trkpt lat="42.85625" lon="0.23912">
        <ele>2060</ele>
        <time>2022-02-13T09:44:24Z</time>
      </trkpt>
      <trkpt lat="42.85629" lon="0.23901">
        <ele>2063</ele>
        <time>2022-02-13T09:44:38Z</time>
      </trkpt>
      <trkpt lat="42.85632" lon="0.23891">
        <ele>2064</ele>
        <time>2022-02-13T09:44:53Z</time>
      </trkpt>
      <trkpt lat="42.85633" lon="0.23887">
        <ele>2065</ele>
        <time>2022-02-13T09:44:57Z</time>
      </trkpt>
      <trkpt lat="42.85638" lon="0.2388">
        <ele>2069</ele>
        <time>2022-02-13T09:45:09Z</time>
      </trkpt>
      <trkpt lat="42.85644" lon="0.23872">
        <ele>2069</ele>
        <time>2022-02-13T09:45:23Z</time>
      </trkpt>
      <trkpt lat="42.85646" lon="0.23869">
        <ele>2069</ele>
        <time>2022-02-13T09:45:29Z</time>
      </trkpt>
      <trkpt lat="42.85649" lon="0.23857">
        <ele>2072</ele>
        <time>2022-02-13T09:45:44Z</time>
      </trkpt>
      <trkpt lat="42.85652" lon="0.23847">
        <ele>2073</ele>
        <time>2022-02-13T09:45:57Z</time>
      </trkpt>
      <trkpt lat="42.85656" lon="0.23836">
        <ele>2075</ele>
        <time>2022-02-13T09:46:10Z</time>
      </trkpt>
      <trkpt lat="42.85657" lon="0.23832">
        <ele>2076</ele>
        <time>2022-02-13T09:46:13Z</time>
      </trkpt>
      <trkpt lat="42.85659" lon="0.23822">
        <ele>2078</ele>
        <time>2022-02-13T09:46:28Z</time>
      </trkpt>
      <trkpt lat="42.85662" lon="0.23811">
        <ele>2080</ele>
        <time>2022-02-13T09:46:44Z</time>
      </trkpt>
      <trkpt lat="42.85663" lon="0.23796">
        <ele>2081</ele>
        <time>2022-02-13T09:47:01Z</time>
      </trkpt>
      <trkpt lat="42.85663" lon="0.23787">
        <ele>2084</ele>
        <time>2022-02-13T09:47:12Z</time>
      </trkpt>
      <trkpt lat="42.8566" lon="0.23773">
        <ele>2086</ele>
        <time>2022-02-13T09:47:29Z</time>
      </trkpt>
      <trkpt lat="42.85658" lon="0.23762">
        <ele>2090</ele>
        <time>2022-02-13T09:47:48Z</time>
      </trkpt>
      <trkpt lat="42.85657" lon="0.23752">
        <ele>2091</ele>
        <time>2022-02-13T09:48:02Z</time>
      </trkpt>
      <trkpt lat="42.85653" lon="0.2374">
        <ele>2093</ele>
        <time>2022-02-13T09:48:20Z</time>
      </trkpt>
      <trkpt lat="42.8565" lon="0.23731">
        <ele>2095</ele>
        <time>2022-02-13T09:48:32Z</time>
      </trkpt>
      <trkpt lat="42.85648" lon="0.23719">
        <ele>2097</ele>
        <time>2022-02-13T09:48:48Z</time>
      </trkpt>
      <trkpt lat="42.85646" lon="0.23707">
        <ele>2098</ele>
        <time>2022-02-13T09:49:03Z</time>
      </trkpt>
      <trkpt lat="42.85642" lon="0.23697">
        <ele>2100</ele>
        <time>2022-02-13T09:49:18Z</time>
      </trkpt>
      <trkpt lat="42.85634" lon="0.23695">
        <ele>2102</ele>
        <time>2022-02-13T09:49:38Z</time>
      </trkpt>
      <trkpt lat="42.85623" lon="0.23699">
        <ele>2104</ele>
        <time>2022-02-13T09:49:55Z</time>
      </trkpt>
      <trkpt lat="42.85618" lon="0.23691">
        <ele>2106</ele>
        <time>2022-02-13T09:50:08Z</time>
      </trkpt>
      <trkpt lat="42.85625" lon="0.23674">
        <ele>2108</ele>
        <time>2022-02-13T09:50:25Z</time>
      </trkpt>
      <trkpt lat="42.85622" lon="0.23661">
        <ele>2110</ele>
        <time>2022-02-13T09:50:41Z</time>
      </trkpt>
      <trkpt lat="42.85623" lon="0.23648">
        <ele>2113</ele>
        <time>2022-02-13T09:50:56Z</time>
      </trkpt>
      <trkpt lat="42.85629" lon="0.23638">
        <ele>2114</ele>
        <time>2022-02-13T09:51:09Z</time>
      </trkpt>
      <trkpt lat="42.85628" lon="0.23632">
        <ele>2116</ele>
        <time>2022-02-13T09:51:23Z</time>
      </trkpt>
      <trkpt lat="42.8563" lon="0.2363">
        <ele>2116</ele>
        <time>2022-02-13T09:51:35Z</time>
      </trkpt>
      <trkpt lat="42.85631" lon="0.23619">
        <ele>2117</ele>
        <time>2022-02-13T09:51:47Z</time>
      </trkpt>
      <trkpt lat="42.85631" lon="0.23607">
        <ele>2116</ele>
        <time>2022-02-13T09:52:01Z</time>
      </trkpt>
      <trkpt lat="42.85631" lon="0.23606">
        <ele>2116</ele>
        <time>2022-02-13T09:52:03Z</time>
      </trkpt>
      <trkpt lat="42.85631" lon="0.23598">
        <ele>2116</ele>
        <time>2022-02-13T09:52:12Z</time>
      </trkpt>
      <trkpt lat="42.85635" lon="0.23584">
        <ele>2116</ele>
        <time>2022-02-13T09:52:26Z</time>
      </trkpt>
      <trkpt lat="42.85636" lon="0.23565">
        <ele>2116</ele>
        <time>2022-02-13T09:52:40Z</time>
      </trkpt>
      <trkpt lat="42.85639" lon="0.23549">
        <ele>2118</ele>
        <time>2022-02-13T09:52:54Z</time>
      </trkpt>
      <trkpt lat="42.85645" lon="0.23535">
        <ele>2119</ele>
        <time>2022-02-13T09:53:09Z</time>
      </trkpt>
      <trkpt lat="42.8565" lon="0.23519">
        <ele>2120</ele>
        <time>2022-02-13T09:53:23Z</time>
      </trkpt>
      <trkpt lat="42.85656" lon="0.23505">
        <ele>2121</ele>
        <time>2022-02-13T09:53:38Z</time>
      </trkpt>
      <trkpt lat="42.85661" lon="0.2349">
        <ele>2122</ele>
        <time>2022-02-13T09:53:52Z</time>
      </trkpt>
      <trkpt lat="42.85668" lon="0.23472">
        <ele>2123</ele>
        <time>2022-02-13T09:54:07Z</time>
      </trkpt>
      <trkpt lat="42.85674" lon="0.23457">
        <ele>2122</ele>
        <time>2022-02-13T09:54:21Z</time>
      </trkpt>
      <trkpt lat="42.85675" lon="0.23455">
        <ele>2123</ele>
        <time>2022-02-13T09:54:24Z</time>
      </trkpt>
      <trkpt lat="42.85678" lon="0.23445">
        <ele>2124</ele>
        <time>2022-02-13T09:54:34Z</time>
      </trkpt>
      <trkpt lat="42.85681" lon="0.23432">
        <ele>2126</ele>
        <time>2022-02-13T09:54:49Z</time>
      </trkpt>
      <trkpt lat="42.85683" lon="0.23416">
        <ele>2128</ele>
        <time>2022-02-13T09:55:05Z</time>
      </trkpt>
      <trkpt lat="42.85684" lon="0.234">
        <ele>2129</ele>
        <time>2022-02-13T09:55:20Z</time>
      </trkpt>
      <trkpt lat="42.85682" lon="0.23391">
        <ele>2129</ele>
        <time>2022-02-13T09:55:34Z</time>
      </trkpt>
      <trkpt lat="42.85681" lon="0.2339">
        <ele>2129</ele>
        <time>2022-02-13T09:55:35Z</time>
      </trkpt>
      <trkpt lat="42.85679" lon="0.23384">
        <ele>2131</ele>
        <time>2022-02-13T09:55:42Z</time>
      </trkpt>
      <trkpt lat="42.85678" lon="0.23375">
        <ele>2134</ele>
        <time>2022-02-13T09:55:54Z</time>
      </trkpt>
      <trkpt lat="42.85678" lon="0.23362">
        <ele>2136</ele>
        <time>2022-02-13T09:56:08Z</time>
      </trkpt>
      <trkpt lat="42.85682" lon="0.23356">
        <ele>2138</ele>
        <time>2022-02-13T09:56:23Z</time>
      </trkpt>
      <trkpt lat="42.85682" lon="0.23347">
        <ele>2140</ele>
        <time>2022-02-13T09:56:38Z</time>
      </trkpt>
      <trkpt lat="42.85682" lon="0.23338">
        <ele>2139</ele>
        <time>2022-02-13T09:56:52Z</time>
      </trkpt>
      <trkpt lat="42.85684" lon="0.23325">
        <ele>2140</ele>
        <time>2022-02-13T09:57:05Z</time>
      </trkpt>
      <trkpt lat="42.85684" lon="0.23309">
        <ele>2140</ele>
        <time>2022-02-13T09:57:20Z</time>
      </trkpt>
      <trkpt lat="42.85684" lon="0.23307">
        <ele>2140</ele>
        <time>2022-02-13T09:57:22Z</time>
      </trkpt>
      <trkpt lat="42.85684" lon="0.23304">
        <ele>2141</ele>
        <time>2022-02-13T09:57:25Z</time>
      </trkpt>
      <trkpt lat="42.85688" lon="0.2329">
        <ele>2143</ele>
        <time>2022-02-13T09:57:37Z</time>
      </trkpt>
      <trkpt lat="42.85692" lon="0.23277">
        <ele>2146</ele>
        <time>2022-02-13T09:57:50Z</time>
      </trkpt>
      <trkpt lat="42.85697" lon="0.23266">
        <ele>2147</ele>
        <time>2022-02-13T09:58:02Z</time>
      </trkpt>
      <trkpt lat="42.85698" lon="0.23264">
        <ele>2147</ele>
        <time>2022-02-13T09:58:04Z</time>
      </trkpt>
      <trkpt lat="42.85705" lon="0.23252">
        <ele>2150</ele>
        <time>2022-02-13T09:58:20Z</time>
      </trkpt>
      <trkpt lat="42.85708" lon="0.23241">
        <ele>2152</ele>
        <time>2022-02-13T09:58:33Z</time>
      </trkpt>
      <trkpt lat="42.85708" lon="0.23239">
        <ele>2152</ele>
        <time>2022-02-13T09:58:34Z</time>
      </trkpt>
      <trkpt lat="42.85712" lon="0.23224">
        <ele>2153</ele>
        <time>2022-02-13T09:58:49Z</time>
      </trkpt>
      <trkpt lat="42.85717" lon="0.23214">
        <ele>2154</ele>
        <time>2022-02-13T09:58:58Z</time>
      </trkpt>
      <trkpt lat="42.85725" lon="0.23201">
        <ele>2155</ele>
        <time>2022-02-13T09:59:12Z</time>
      </trkpt>
      <trkpt lat="42.85733" lon="0.23192">
        <ele>2156</ele>
        <time>2022-02-13T09:59:25Z</time>
      </trkpt>
      <trkpt lat="42.85739" lon="0.23186">
        <ele>2158</ele>
        <time>2022-02-13T09:59:36Z</time>
      </trkpt>
      <trkpt lat="42.85746" lon="0.23177">
        <ele>2158</ele>
        <time>2022-02-13T09:59:47Z</time>
      </trkpt>
      <trkpt lat="42.8575" lon="0.2317">
        <ele>2160</ele>
        <time>2022-02-13T09:59:55Z</time>
      </trkpt>
      <trkpt lat="42.85757" lon="0.23159">
        <ele>2162</ele>
        <time>2022-02-13T10:00:10Z</time>
      </trkpt>
      <trkpt lat="42.85763" lon="0.23154">
        <ele>2165</ele>
        <time>2022-02-13T10:00:23Z</time>
      </trkpt>
      <trkpt lat="42.85765" lon="0.23148">
        <ele>2164</ele>
        <time>2022-02-13T10:00:37Z</time>
      </trkpt>
      <trkpt lat="42.85767" lon="0.23148">
        <ele>2164</ele>
        <time>2022-02-13T10:00:49Z</time>
      </trkpt>
      <trkpt lat="42.85767" lon="0.23148">
        <ele>2164</ele>
        <time>2022-02-13T10:01:13Z</time>
      </trkpt>
      <trkpt lat="42.85768" lon="0.23147">
        <ele>2164</ele>
        <time>2022-02-13T10:01:31Z</time>
      </trkpt>
      <trkpt lat="42.85766" lon="0.23147">
        <ele>2164</ele>
        <time>2022-02-13T10:01:44Z</time>
      </trkpt>
      <trkpt lat="42.85766" lon="0.23148">
        <ele>2163</ele>
        <time>2022-02-13T10:01:45Z</time>
      </trkpt>
      <trkpt lat="42.85767" lon="0.2315">
        <ele>2162</ele>
        <time>2022-02-13T10:01:49Z</time>
      </trkpt>
      <trkpt lat="42.85767" lon="0.2315">
        <ele>2161</ele>
        <time>2022-02-13T10:02:15Z</time>
      </trkpt>
      <trkpt lat="42.85765" lon="0.23148">
        <ele>2163</ele>
        <time>2022-02-13T10:02:52Z</time>
      </trkpt>
      <trkpt lat="42.85766" lon="0.23152">
        <ele>2162</ele>
        <time>2022-02-13T10:03:21Z</time>
      </trkpt>
      <trkpt lat="42.85765" lon="0.2315">
        <ele>2163</ele>
        <time>2022-02-13T10:04:02Z</time>
      </trkpt>
      <trkpt lat="42.85765" lon="0.23148">
        <ele>2163</ele>
        <time>2022-02-13T10:04:35Z</time>
      </trkpt>
      <trkpt lat="42.85767" lon="0.23149">
        <ele>2163</ele>
        <time>2022-02-13T10:05:15Z</time>
      </trkpt>
      <trkpt lat="42.85766" lon="0.23149">
        <ele>2164</ele>
        <time>2022-02-13T10:05:56Z</time>
      </trkpt>
      <trkpt lat="42.85768" lon="0.23153">
        <ele>2165</ele>
        <time>2022-02-13T10:06:41Z</time>
      </trkpt>
      <trkpt lat="42.85764" lon="0.23151">
        <ele>2165</ele>
        <time>2022-02-13T10:07:16Z</time>
      </trkpt>
      <trkpt lat="42.85768" lon="0.23154">
        <ele>2165</ele>
        <time>2022-02-13T10:07:57Z</time>
      </trkpt>
      <trkpt lat="42.85767" lon="0.23153">
        <ele>2166</ele>
        <time>2022-02-13T10:08:00Z</time>
      </trkpt>
      <trkpt lat="42.85767" lon="0.23153">
        <ele>2166</ele>
        <time>2022-02-13T10:08:11Z</time>
      </trkpt>
      <trkpt lat="42.85768" lon="0.23152">
        <ele>2167</ele>
        <time>2022-02-13T10:08:32Z</time>
      </trkpt>
      <trkpt lat="42.85769" lon="0.2315">
        <ele>2167</ele>
        <time>2022-02-13T10:08:48Z</time>
      </trkpt>
      <trkpt lat="42.85768" lon="0.23153">
        <ele>2167</ele>
        <time>2022-02-13T10:09:10Z</time>
      </trkpt>
      <trkpt lat="42.85763" lon="0.23149">
        <ele>2167</ele>
        <time>2022-02-13T10:09:29Z</time>
      </trkpt>
      <trkpt lat="42.85766" lon="0.23155">
        <ele>2167</ele>
        <time>2022-02-13T10:09:52Z</time>
      </trkpt>
      <trkpt lat="42.85768" lon="0.23152">
        <ele>2166</ele>
        <time>2022-02-13T10:10:13Z</time>
      </trkpt>
      <trkpt lat="42.85767" lon="0.23151">
        <ele>2168</ele>
        <time>2022-02-13T10:10:33Z</time>
      </trkpt>
      <trkpt lat="42.85766" lon="0.23149">
        <ele>2166</ele>
        <time>2022-02-13T10:10:36Z</time>
      </trkpt>
      <trkpt lat="42.85771" lon="0.23138">
        <ele>2167</ele>
        <time>2022-02-13T10:10:48Z</time>
      </trkpt>
      <trkpt lat="42.85777" lon="0.23127">
        <ele>2168</ele>
        <time>2022-02-13T10:11:04Z</time>
      </trkpt>
      <trkpt lat="42.85782" lon="0.23117">
        <ele>2170</ele>
        <time>2022-02-13T10:11:18Z</time>
      </trkpt>
      <trkpt lat="42.85784" lon="0.23116">
        <ele>2171</ele>
        <time>2022-02-13T10:11:21Z</time>
      </trkpt>
      <trkpt lat="42.8579" lon="0.23106">
        <ele>2173</ele>
        <time>2022-02-13T10:11:35Z</time>
      </trkpt>
      <trkpt lat="42.85797" lon="0.231">
        <ele>2175</ele>
        <time>2022-02-13T10:11:46Z</time>
      </trkpt>
      <trkpt lat="42.85806" lon="0.23092">
        <ele>2176</ele>
        <time>2022-02-13T10:12:02Z</time>
      </trkpt>
      <trkpt lat="42.85812" lon="0.2308">
        <ele>2179</ele>
        <time>2022-02-13T10:12:17Z</time>
      </trkpt>
      <trkpt lat="42.85818" lon="0.2307">
        <ele>2181</ele>
        <time>2022-02-13T10:12:31Z</time>
      </trkpt>
      <trkpt lat="42.8582" lon="0.23066">
        <ele>2182</ele>
        <time>2022-02-13T10:12:37Z</time>
      </trkpt>
      <trkpt lat="42.8583" lon="0.23058">
        <ele>2184</ele>
        <time>2022-02-13T10:12:52Z</time>
      </trkpt>
      <trkpt lat="42.85838" lon="0.23051">
        <ele>2185</ele>
        <time>2022-02-13T10:13:06Z</time>
      </trkpt>
      <trkpt lat="42.85845" lon="0.23047">
        <ele>2187</ele>
        <time>2022-02-13T10:13:21Z</time>
      </trkpt>
      <trkpt lat="42.85844" lon="0.23031">
        <ele>2190</ele>
        <time>2022-02-13T10:13:37Z</time>
      </trkpt>
      <trkpt lat="42.85847" lon="0.23022">
        <ele>2191</ele>
        <time>2022-02-13T10:13:52Z</time>
      </trkpt>
      <trkpt lat="42.85853" lon="0.23014">
        <ele>2195</ele>
        <time>2022-02-13T10:14:07Z</time>
      </trkpt>
      <trkpt lat="42.85853" lon="0.23013">
        <ele>2195</ele>
        <time>2022-02-13T10:14:08Z</time>
      </trkpt>
      <trkpt lat="42.85857" lon="0.23005">
        <ele>2196</ele>
        <time>2022-02-13T10:14:23Z</time>
      </trkpt>
      <trkpt lat="42.85861" lon="0.22998">
        <ele>2199</ele>
        <time>2022-02-13T10:14:35Z</time>
      </trkpt>
      <trkpt lat="42.85864" lon="0.22993">
        <ele>2202</ele>
        <time>2022-02-13T10:14:47Z</time>
      </trkpt>
      <trkpt lat="42.85869" lon="0.22987">
        <ele>2202</ele>
        <time>2022-02-13T10:14:59Z</time>
      </trkpt>
      <trkpt lat="42.85868" lon="0.22978">
        <ele>2204</ele>
        <time>2022-02-13T10:15:14Z</time>
      </trkpt>
      <trkpt lat="42.85869" lon="0.22967">
        <ele>2206</ele>
        <time>2022-02-13T10:15:32Z</time>
      </trkpt>
      <trkpt lat="42.85874" lon="0.22955">
        <ele>2207</ele>
        <time>2022-02-13T10:15:49Z</time>
      </trkpt>
      <trkpt lat="42.85875" lon="0.22948">
        <ele>2209</ele>
        <time>2022-02-13T10:16:04Z</time>
      </trkpt>
      <trkpt lat="42.85877" lon="0.22945">
        <ele>2213</ele>
        <time>2022-02-13T10:16:10Z</time>
      </trkpt>
      <trkpt lat="42.85879" lon="0.22933">
        <ele>2215</ele>
        <time>2022-02-13T10:16:26Z</time>
      </trkpt>
      <trkpt lat="42.8588" lon="0.22922">
        <ele>2216</ele>
        <time>2022-02-13T10:16:44Z</time>
      </trkpt>
      <trkpt lat="42.85881" lon="0.22912">
        <ele>2218</ele>
        <time>2022-02-13T10:17:01Z</time>
      </trkpt>
      <trkpt lat="42.85882" lon="0.22902">
        <ele>2222</ele>
        <time>2022-02-13T10:17:15Z</time>
      </trkpt>
      <trkpt lat="42.85884" lon="0.22892">
        <ele>2224</ele>
        <time>2022-02-13T10:17:34Z</time>
      </trkpt>
      <trkpt lat="42.85885" lon="0.22888">
        <ele>2225</ele>
        <time>2022-02-13T10:17:45Z</time>
      </trkpt>
      <trkpt lat="42.85885" lon="0.22884">
        <ele>2227</ele>
        <time>2022-02-13T10:17:50Z</time>
      </trkpt>
      <trkpt lat="42.85885" lon="0.22871">
        <ele>2228</ele>
        <time>2022-02-13T10:18:10Z</time>
      </trkpt>
      <trkpt lat="42.85893" lon="0.22868">
        <ele>2230</ele>
        <time>2022-02-13T10:18:25Z</time>
      </trkpt>
      <trkpt lat="42.85904" lon="0.22869">
        <ele>2232</ele>
        <time>2022-02-13T10:18:39Z</time>
      </trkpt>
      <trkpt lat="42.85906" lon="0.22871">
        <ele>2233</ele>
        <time>2022-02-13T10:18:43Z</time>
      </trkpt>
      <trkpt lat="42.85916" lon="0.22876">
        <ele>2236</ele>
        <time>2022-02-13T10:18:58Z</time>
      </trkpt>
      <trkpt lat="42.85923" lon="0.22883">
        <ele>2237</ele>
        <time>2022-02-13T10:19:12Z</time>
      </trkpt>
      <trkpt lat="42.85936" lon="0.22883">
        <ele>2240</ele>
        <time>2022-02-13T10:19:27Z</time>
      </trkpt>
      <trkpt lat="42.85944" lon="0.22887">
        <ele>2241</ele>
        <time>2022-02-13T10:19:43Z</time>
      </trkpt>
      <trkpt lat="42.85946" lon="0.22889">
        <ele>2244</ele>
        <time>2022-02-13T10:19:49Z</time>
      </trkpt>
      <trkpt lat="42.85945" lon="0.22889">
        <ele>2243</ele>
        <time>2022-02-13T10:19:50Z</time>
      </trkpt>
      <trkpt lat="42.85947" lon="0.22885">
        <ele>2247</ele>
        <time>2022-02-13T10:19:57Z</time>
      </trkpt>
      <trkpt lat="42.85948" lon="0.22875">
        <ele>2245</ele>
        <time>2022-02-13T10:20:12Z</time>
      </trkpt>
      <trkpt lat="42.85947" lon="0.22872">
        <ele>2247</ele>
        <time>2022-02-13T10:20:15Z</time>
      </trkpt>
      <trkpt lat="42.85954" lon="0.22859">
        <ele>2250</ele>
        <time>2022-02-13T10:20:32Z</time>
      </trkpt>
      <trkpt lat="42.85958" lon="0.22843">
        <ele>2250</ele>
        <time>2022-02-13T10:20:46Z</time>
      </trkpt>
      <trkpt lat="42.85959" lon="0.22843">
        <ele>2250</ele>
        <time>2022-02-13T10:20:47Z</time>
      </trkpt>
      <trkpt lat="42.85964" lon="0.22828">
        <ele>2250</ele>
        <time>2022-02-13T10:21:01Z</time>
      </trkpt>
      <trkpt lat="42.85969" lon="0.22821">
        <ele>2251</ele>
        <time>2022-02-13T10:21:09Z</time>
      </trkpt>
      <trkpt lat="42.85973" lon="0.2281">
        <ele>2252</ele>
        <time>2022-02-13T10:21:20Z</time>
      </trkpt>
      <trkpt lat="42.85975" lon="0.22794">
        <ele>2254</ele>
        <time>2022-02-13T10:21:35Z</time>
      </trkpt>
      <trkpt lat="42.85978" lon="0.22783">
        <ele>2257</ele>
        <time>2022-02-13T10:21:49Z</time>
      </trkpt>
      <trkpt lat="42.85982" lon="0.22768">
        <ele>2259</ele>
        <time>2022-02-13T10:22:04Z</time>
      </trkpt>
      <trkpt lat="42.85986" lon="0.22758">
        <ele>2261</ele>
        <time>2022-02-13T10:22:19Z</time>
      </trkpt>
      <trkpt lat="42.8599" lon="0.22746">
        <ele>2262</ele>
        <time>2022-02-13T10:22:35Z</time>
      </trkpt>
      <trkpt lat="42.85994" lon="0.22731">
        <ele>2265</ele>
        <time>2022-02-13T10:22:52Z</time>
      </trkpt>
      <trkpt lat="42.85998" lon="0.22718">
        <ele>2267</ele>
        <time>2022-02-13T10:23:09Z</time>
      </trkpt>
      <trkpt lat="42.86" lon="0.22716">
        <ele>2268</ele>
        <time>2022-02-13T10:23:13Z</time>
      </trkpt>
      <trkpt lat="42.86003" lon="0.22702">
        <ele>2270</ele>
        <time>2022-02-13T10:23:31Z</time>
      </trkpt>
      <trkpt lat="42.86006" lon="0.22689">
        <ele>2272</ele>
        <time>2022-02-13T10:23:49Z</time>
      </trkpt>
      <trkpt lat="42.86007" lon="0.22675">
        <ele>2273</ele>
        <time>2022-02-13T10:24:04Z</time>
      </trkpt>
      <trkpt lat="42.86007" lon="0.22663">
        <ele>2276</ele>
        <time>2022-02-13T10:24:21Z</time>
      </trkpt>
      <trkpt lat="42.86012" lon="0.22651">
        <ele>2278</ele>
        <time>2022-02-13T10:24:36Z</time>
      </trkpt>
      <trkpt lat="42.86021" lon="0.22645">
        <ele>2279</ele>
        <time>2022-02-13T10:24:50Z</time>
      </trkpt>
      <trkpt lat="42.86028" lon="0.22643">
        <ele>2281</ele>
        <time>2022-02-13T10:24:59Z</time>
      </trkpt>
      <trkpt lat="42.86036" lon="0.22639">
        <ele>2284</ele>
        <time>2022-02-13T10:25:15Z</time>
      </trkpt>
      <trkpt lat="42.86043" lon="0.22632">
        <ele>2287</ele>
        <time>2022-02-13T10:25:29Z</time>
      </trkpt>
      <trkpt lat="42.8605" lon="0.22625">
        <ele>2290</ele>
        <time>2022-02-13T10:25:45Z</time>
      </trkpt>
      <trkpt lat="42.86057" lon="0.22618">
        <ele>2291</ele>
        <time>2022-02-13T10:26:01Z</time>
      </trkpt>
      <trkpt lat="42.86066" lon="0.2261">
        <ele>2294</ele>
        <time>2022-02-13T10:26:17Z</time>
      </trkpt>
      <trkpt lat="42.86076" lon="0.22612">
        <ele>2296</ele>
        <time>2022-02-13T10:26:33Z</time>
      </trkpt>
      <trkpt lat="42.86079" lon="0.22614">
        <ele>2298</ele>
        <time>2022-02-13T10:26:39Z</time>
      </trkpt>
      <trkpt lat="42.86087" lon="0.22609">
        <ele>2300</ele>
        <time>2022-02-13T10:26:56Z</time>
      </trkpt>
      <trkpt lat="42.86093" lon="0.22598">
        <ele>2303</ele>
        <time>2022-02-13T10:27:15Z</time>
      </trkpt>
      <trkpt lat="42.86096" lon="0.22591">
        <ele>2305</ele>
        <time>2022-02-13T10:27:28Z</time>
      </trkpt>
      <trkpt lat="42.86101" lon="0.22578">
        <ele>2308</ele>
        <time>2022-02-13T10:27:44Z</time>
      </trkpt>
      <trkpt lat="42.86104" lon="0.22567">
        <ele>2309</ele>
        <time>2022-02-13T10:27:58Z</time>
      </trkpt>
      <trkpt lat="42.86107" lon="0.22555">
        <ele>2312</ele>
        <time>2022-02-13T10:28:12Z</time>
      </trkpt>
      <trkpt lat="42.86111" lon="0.22542">
        <ele>2313</ele>
        <time>2022-02-13T10:28:27Z</time>
      </trkpt>
      <trkpt lat="42.86118" lon="0.22529">
        <ele>2316</ele>
        <time>2022-02-13T10:28:44Z</time>
      </trkpt>
      <trkpt lat="42.86122" lon="0.2252">
        <ele>2318</ele>
        <time>2022-02-13T10:28:59Z</time>
      </trkpt>
      <trkpt lat="42.86127" lon="0.2251">
        <ele>2321</ele>
        <time>2022-02-13T10:29:15Z</time>
      </trkpt>
      <trkpt lat="42.86131" lon="0.22499">
        <ele>2323</ele>
        <time>2022-02-13T10:29:31Z</time>
      </trkpt>
      <trkpt lat="42.86138" lon="0.22487">
        <ele>2325</ele>
        <time>2022-02-13T10:29:48Z</time>
      </trkpt>
      <trkpt lat="42.86141" lon="0.22476">
        <ele>2327</ele>
        <time>2022-02-13T10:30:03Z</time>
      </trkpt>
      <trkpt lat="42.86148" lon="0.22466">
        <ele>2328</ele>
        <time>2022-02-13T10:30:18Z</time>
      </trkpt>
      <trkpt lat="42.86154" lon="0.22453">
        <ele>2331</ele>
        <time>2022-02-13T10:30:39Z</time>
      </trkpt>
      <trkpt lat="42.86161" lon="0.22437">
        <ele>2332</ele>
        <time>2022-02-13T10:30:56Z</time>
      </trkpt>
      <trkpt lat="42.86168" lon="0.22423">
        <ele>2335</ele>
        <time>2022-02-13T10:31:13Z</time>
      </trkpt>
      <trkpt lat="42.86173" lon="0.22413">
        <ele>2337</ele>
        <time>2022-02-13T10:31:29Z</time>
      </trkpt>
      <trkpt lat="42.86178" lon="0.22406">
        <ele>2339</ele>
        <time>2022-02-13T10:31:43Z</time>
      </trkpt>
      <trkpt lat="42.86184" lon="0.22398">
        <ele>2341</ele>
        <time>2022-02-13T10:31:57Z</time>
      </trkpt>
      <trkpt lat="42.86187" lon="0.2239">
        <ele>2343</ele>
        <time>2022-02-13T10:32:09Z</time>
      </trkpt>
      <trkpt lat="42.86192" lon="0.22383">
        <ele>2346</ele>
        <time>2022-02-13T10:32:23Z</time>
      </trkpt>
      <trkpt lat="42.86193" lon="0.22378">
        <ele>2350</ele>
        <time>2022-02-13T10:32:38Z</time>
      </trkpt>
      <trkpt lat="42.86197" lon="0.22366">
        <ele>2352</ele>
        <time>2022-02-13T10:32:57Z</time>
      </trkpt>
      <trkpt lat="42.862" lon="0.22364">
        <ele>2354</ele>
        <time>2022-02-13T10:33:14Z</time>
      </trkpt>
      <trkpt lat="42.86208" lon="0.2236">
        <ele>2357</ele>
        <time>2022-02-13T10:33:29Z</time>
      </trkpt>
      <trkpt lat="42.86213" lon="0.22352">
        <ele>2358</ele>
        <time>2022-02-13T10:33:44Z</time>
      </trkpt>
      <trkpt lat="42.86219" lon="0.22342">
        <ele>2360</ele>
        <time>2022-02-13T10:33:58Z</time>
      </trkpt>
      <trkpt lat="42.86226" lon="0.2233">
        <ele>2363</ele>
        <time>2022-02-13T10:34:14Z</time>
      </trkpt>
      <trkpt lat="42.8623" lon="0.22319">
        <ele>2366</ele>
        <time>2022-02-13T10:34:29Z</time>
      </trkpt>
      <trkpt lat="42.86235" lon="0.22309">
        <ele>2368</ele>
        <time>2022-02-13T10:34:44Z</time>
      </trkpt>
      <trkpt lat="42.8624" lon="0.22302">
        <ele>2369</ele>
        <time>2022-02-13T10:35:01Z</time>
      </trkpt>
      <trkpt lat="42.86239" lon="0.2229">
        <ele>2372</ele>
        <time>2022-02-13T10:35:16Z</time>
      </trkpt>
      <trkpt lat="42.86237" lon="0.22284">
        <ele>2374</ele>
        <time>2022-02-13T10:35:28Z</time>
      </trkpt>
      <trkpt lat="42.86238" lon="0.22275">
        <ele>2377</ele>
        <time>2022-02-13T10:35:45Z</time>
      </trkpt>
      <trkpt lat="42.86239" lon="0.22269">
        <ele>2379</ele>
        <time>2022-02-13T10:35:54Z</time>
      </trkpt>
      <trkpt lat="42.86246" lon="0.22262">
        <ele>2381</ele>
        <time>2022-02-13T10:36:09Z</time>
      </trkpt>
      <trkpt lat="42.86253" lon="0.22256">
        <ele>2383</ele>
        <time>2022-02-13T10:36:24Z</time>
      </trkpt>
      <trkpt lat="42.86257" lon="0.2225">
        <ele>2385</ele>
        <time>2022-02-13T10:36:41Z</time>
      </trkpt>
      <trkpt lat="42.86254" lon="0.22246">
        <ele>2387</ele>
        <time>2022-02-13T10:36:51Z</time>
      </trkpt>
      <trkpt lat="42.86259" lon="0.22238">
        <ele>2389</ele>
        <time>2022-02-13T10:37:06Z</time>
      </trkpt>
      <trkpt lat="42.86269" lon="0.22242">
        <ele>2390</ele>
        <time>2022-02-13T10:37:17Z</time>
      </trkpt>
      <trkpt lat="42.8628" lon="0.2225">
        <ele>2393</ele>
        <time>2022-02-13T10:37:34Z</time>
      </trkpt>
      <trkpt lat="42.86285" lon="0.22255">
        <ele>2396</ele>
        <time>2022-02-13T10:37:49Z</time>
      </trkpt>
      <trkpt lat="42.86295" lon="0.2226">
        <ele>2399</ele>
        <time>2022-02-13T10:38:05Z</time>
      </trkpt>
      <trkpt lat="42.86301" lon="0.22265">
        <ele>2402</ele>
        <time>2022-02-13T10:38:15Z</time>
      </trkpt>
      <trkpt lat="42.86305" lon="0.22271">
        <ele>2403</ele>
        <time>2022-02-13T10:38:28Z</time>
      </trkpt>
      <trkpt lat="42.8631" lon="0.22281">
        <ele>2406</ele>
        <time>2022-02-13T10:38:45Z</time>
      </trkpt>
      <trkpt lat="42.8631" lon="0.22276">
        <ele>2408</ele>
        <time>2022-02-13T10:38:47Z</time>
      </trkpt>
      <trkpt lat="42.86311" lon="0.22274">
        <ele>2406</ele>
        <time>2022-02-13T10:38:51Z</time>
      </trkpt>
      <trkpt lat="42.86309" lon="0.22274">
        <ele>2407</ele>
        <time>2022-02-13T10:38:55Z</time>
      </trkpt>
      <trkpt lat="42.8631" lon="0.22261">
        <ele>2408</ele>
        <time>2022-02-13T10:39:10Z</time>
      </trkpt>
      <trkpt lat="42.8631" lon="0.22245">
        <ele>2411</ele>
        <time>2022-02-13T10:39:23Z</time>
      </trkpt>
      <trkpt lat="42.86312" lon="0.22241">
        <ele>2411</ele>
        <time>2022-02-13T10:39:26Z</time>
      </trkpt>
      <trkpt lat="42.86312" lon="0.22227">
        <ele>2414</ele>
        <time>2022-02-13T10:39:42Z</time>
      </trkpt>
      <trkpt lat="42.86316" lon="0.22218">
        <ele>2416</ele>
        <time>2022-02-13T10:39:58Z</time>
      </trkpt>
      <trkpt lat="42.86319" lon="0.22217">
        <ele>2417</ele>
        <time>2022-02-13T10:40:17Z</time>
      </trkpt>
      <trkpt lat="42.86328" lon="0.22214">
        <ele>2420</ele>
        <time>2022-02-13T10:40:30Z</time>
      </trkpt>
      <trkpt lat="42.86341" lon="0.22212">
        <ele>2422</ele>
        <time>2022-02-13T10:40:43Z</time>
      </trkpt>
      <trkpt lat="42.86348" lon="0.22213">
        <ele>2424</ele>
        <time>2022-02-13T10:41:00Z</time>
      </trkpt>
      <trkpt lat="42.86352" lon="0.22217">
        <ele>2426</ele>
        <time>2022-02-13T10:41:17Z</time>
      </trkpt>
      <trkpt lat="42.86364" lon="0.22218">
        <ele>2428</ele>
        <time>2022-02-13T10:41:32Z</time>
      </trkpt>
      <trkpt lat="42.86353" lon="0.22202">
        <ele>2430</ele>
        <time>2022-02-13T10:41:50Z</time>
      </trkpt>
      <trkpt lat="42.86353" lon="0.22198">
        <ele>2432</ele>
        <time>2022-02-13T10:42:04Z</time>
      </trkpt>
      <trkpt lat="42.86347" lon="0.22188">
        <ele>2435</ele>
        <time>2022-02-13T10:42:19Z</time>
      </trkpt>
      <trkpt lat="42.86346" lon="0.22175">
        <ele>2437</ele>
        <time>2022-02-13T10:42:33Z</time>
      </trkpt>
      <trkpt lat="42.86346" lon="0.22169">
        <ele>2439</ele>
        <time>2022-02-13T10:42:37Z</time>
      </trkpt>
      <trkpt lat="42.86344" lon="0.22159">
        <ele>2442</ele>
        <time>2022-02-13T10:42:48Z</time>
      </trkpt>
      <trkpt lat="42.86341" lon="0.22146">
        <ele>2443</ele>
        <time>2022-02-13T10:43:02Z</time>
      </trkpt>
      <trkpt lat="42.8634" lon="0.22136">
        <ele>2446</ele>
        <time>2022-02-13T10:43:15Z</time>
      </trkpt>
      <trkpt lat="42.8634" lon="0.22134">
        <ele>2448</ele>
        <time>2022-02-13T10:43:20Z</time>
      </trkpt>
      <trkpt lat="42.86347" lon="0.22132">
        <ele>2449</ele>
        <time>2022-02-13T10:43:33Z</time>
      </trkpt>
      <trkpt lat="42.86351" lon="0.22126">
        <ele>2452</ele>
        <time>2022-02-13T10:43:44Z</time>
      </trkpt>
      <trkpt lat="42.86357" lon="0.22123">
        <ele>2452</ele>
        <time>2022-02-13T10:43:58Z</time>
      </trkpt>
      <trkpt lat="42.86362" lon="0.22121">
        <ele>2456</ele>
        <time>2022-02-13T10:44:14Z</time>
      </trkpt>
      <trkpt lat="42.86365" lon="0.2211">
        <ele>2458</ele>
        <time>2022-02-13T10:44:30Z</time>
      </trkpt>
      <trkpt lat="42.86372" lon="0.22096">
        <ele>2457</ele>
        <time>2022-02-13T10:44:47Z</time>
      </trkpt>
      <trkpt lat="42.86376" lon="0.22084">
        <ele>2461</ele>
        <time>2022-02-13T10:45:02Z</time>
      </trkpt>
      <trkpt lat="42.86371" lon="0.2208">
        <ele>2461</ele>
        <time>2022-02-13T10:45:18Z</time>
      </trkpt>
      <trkpt lat="42.86382" lon="0.22084">
        <ele>2459</ele>
        <time>2022-02-13T10:45:27Z</time>
      </trkpt>
      <trkpt lat="42.86382" lon="0.22092">
        <ele>2459</ele>
        <time>2022-02-13T10:45:51Z</time>
      </trkpt>
      <trkpt lat="42.8638" lon="0.22095">
        <ele>2459</ele>
        <time>2022-02-13T10:46:15Z</time>
      </trkpt>
      <trkpt lat="42.86377" lon="0.22097">
        <ele>2461</ele>
        <time>2022-02-13T10:46:22Z</time>
      </trkpt>
      <trkpt lat="42.86375" lon="0.22093">
        <ele>2461</ele>
        <time>2022-02-13T10:46:41Z</time>
      </trkpt>
      <trkpt lat="42.86375" lon="0.22092">
        <ele>2460</ele>
        <time>2022-02-13T10:46:44Z</time>
      </trkpt>
      <trkpt lat="42.86373" lon="0.22087">
        <ele>2463</ele>
        <time>2022-02-13T10:46:54Z</time>
      </trkpt>
      <trkpt lat="42.86376" lon="0.22076">
        <ele>2464</ele>
        <time>2022-02-13T10:47:07Z</time>
      </trkpt>
      <trkpt lat="42.86378" lon="0.22076">
        <ele>2466</ele>
        <time>2022-02-13T10:47:11Z</time>
      </trkpt>
      <trkpt lat="42.86388" lon="0.22076">
        <ele>2469</ele>
        <time>2022-02-13T10:47:23Z</time>
      </trkpt>
      <trkpt lat="42.86399" lon="0.22075">
        <ele>2472</ele>
        <time>2022-02-13T10:47:39Z</time>
      </trkpt>
      <trkpt lat="42.86411" lon="0.2208">
        <ele>2473</ele>
        <time>2022-02-13T10:47:52Z</time>
      </trkpt>
      <trkpt lat="42.86421" lon="0.22081">
        <ele>2475</ele>
        <time>2022-02-13T10:48:06Z</time>
      </trkpt>
      <trkpt lat="42.86421" lon="0.22081">
        <ele>2476</ele>
        <time>2022-02-13T10:48:09Z</time>
      </trkpt>
      <trkpt lat="42.8642" lon="0.22079">
        <ele>2476</ele>
        <time>2022-02-13T10:48:11Z</time>
      </trkpt>
      <trkpt lat="42.8642" lon="0.22066">
        <ele>2479</ele>
        <time>2022-02-13T10:48:21Z</time>
      </trkpt>
      <trkpt lat="42.86418" lon="0.22054">
        <ele>2480</ele>
        <time>2022-02-13T10:48:32Z</time>
      </trkpt>
      <trkpt lat="42.86418" lon="0.22051">
        <ele>2483</ele>
        <time>2022-02-13T10:48:35Z</time>
      </trkpt>
      <trkpt lat="42.86419" lon="0.22048">
        <ele>2484</ele>
        <time>2022-02-13T10:48:37Z</time>
      </trkpt>
      <trkpt lat="42.86419" lon="0.22047">
        <ele>2485</ele>
        <time>2022-02-13T10:48:38Z</time>
      </trkpt>
      <trkpt lat="42.8643" lon="0.22053">
        <ele>2485</ele>
        <time>2022-02-13T10:48:52Z</time>
      </trkpt>
      <trkpt lat="42.86438" lon="0.22053">
        <ele>2488</ele>
        <time>2022-02-13T10:49:03Z</time>
      </trkpt>
      <trkpt lat="42.86439" lon="0.22053">
        <ele>2488</ele>
        <time>2022-02-13T10:49:04Z</time>
      </trkpt>
      <trkpt lat="42.86445" lon="0.22047">
        <ele>2491</ele>
        <time>2022-02-13T10:49:16Z</time>
      </trkpt>
      <trkpt lat="42.86454" lon="0.2204">
        <ele>2493</ele>
        <time>2022-02-13T10:49:32Z</time>
      </trkpt>
      <trkpt lat="42.86459" lon="0.22041">
        <ele>2491</ele>
        <time>2022-02-13T10:49:45Z</time>
      </trkpt>
      <trkpt lat="42.8646" lon="0.22041">
        <ele>2499</ele>
        <time>2022-02-13T10:49:47Z</time>
      </trkpt>
      <trkpt lat="42.8646" lon="0.22041">
        <ele>2495</ele>
        <time>2022-02-13T10:49:48Z</time>
      </trkpt>
      <trkpt lat="42.86461" lon="0.2204">
        <ele>2495</ele>
        <time>2022-02-13T10:49:50Z</time>
      </trkpt>
      <trkpt lat="42.86458" lon="0.22033">
        <ele>2495</ele>
        <time>2022-02-13T10:50:08Z</time>
      </trkpt>
      <trkpt lat="42.86466" lon="0.22034">
        <ele>2495</ele>
        <time>2022-02-13T10:50:27Z</time>
      </trkpt>
      <trkpt lat="42.86468" lon="0.22034">
        <ele>2497</ele>
        <time>2022-02-13T10:50:30Z</time>
      </trkpt>
      <trkpt lat="42.86471" lon="0.22033">
        <ele>2493</ele>
        <time>2022-02-13T10:50:33Z</time>
      </trkpt>
      <trkpt lat="42.86472" lon="0.22033">
        <ele>2499</ele>
        <time>2022-02-13T10:50:34Z</time>
      </trkpt>
      <trkpt lat="42.86473" lon="0.22032">
        <ele>2494</ele>
        <time>2022-02-13T10:50:35Z</time>
      </trkpt>
      <trkpt lat="42.86473" lon="0.22032">
        <ele>2499</ele>
        <time>2022-02-13T10:50:36Z</time>
      </trkpt>
      <trkpt lat="42.86483" lon="0.22023">
        <ele>2499</ele>
        <time>2022-02-13T10:50:50Z</time>
      </trkpt>
      <trkpt lat="42.86493" lon="0.22015">
        <ele>2502</ele>
        <time>2022-02-13T10:51:03Z</time>
      </trkpt>
      <trkpt lat="42.86494" lon="0.22015">
        <ele>2502</ele>
        <time>2022-02-13T10:51:05Z</time>
      </trkpt>
      <trkpt lat="42.865" lon="0.22011">
        <ele>2504</ele>
        <time>2022-02-13T10:51:14Z</time>
      </trkpt>
      <trkpt lat="42.86507" lon="0.22003">
        <ele>2509</ele>
        <time>2022-02-13T10:51:24Z</time>
      </trkpt>
      <trkpt lat="42.86508" lon="0.22001">
        <ele>2511</ele>
        <time>2022-02-13T10:51:26Z</time>
      </trkpt>
      <trkpt lat="42.86511" lon="0.22">
        <ele>2508</ele>
        <time>2022-02-13T10:51:30Z</time>
      </trkpt>
      <trkpt lat="42.86523" lon="0.21999">
        <ele>2512</ele>
        <time>2022-02-13T10:51:43Z</time>
      </trkpt>
      <trkpt lat="42.86524" lon="0.21999">
        <ele>2511</ele>
        <time>2022-02-13T10:51:44Z</time>
      </trkpt>
      <trkpt lat="42.86533" lon="0.21996">
        <ele>2513</ele>
        <time>2022-02-13T10:51:59Z</time>
      </trkpt>
      <trkpt lat="42.86532" lon="0.21993">
        <ele>2510</ele>
        <time>2022-02-13T10:52:13Z</time>
      </trkpt>
      <trkpt lat="42.8653" lon="0.21991">
        <ele>2510</ele>
        <time>2022-02-13T10:52:24Z</time>
      </trkpt>
      <trkpt lat="42.8653" lon="0.2199">
        <ele>2510</ele>
        <time>2022-02-13T10:52:43Z</time>
      </trkpt>
      <trkpt lat="42.8653" lon="0.21992">
        <ele>2512</ele>
        <time>2022-02-13T10:52:54Z</time>
      </trkpt>
      <trkpt lat="42.86531" lon="0.21992">
        <ele>2511</ele>
        <time>2022-02-13T10:52:56Z</time>
      </trkpt>
      <trkpt lat="42.86531" lon="0.21992">
        <ele>2510</ele>
        <time>2022-02-13T10:53:20Z</time>
      </trkpt>
      <trkpt lat="42.86535" lon="0.2199">
        <ele>2510</ele>
        <time>2022-02-13T10:53:29Z</time>
      </trkpt>
      <trkpt lat="42.86538" lon="0.21989">
        <ele>2512</ele>
        <time>2022-02-13T10:53:32Z</time>
      </trkpt>
      <trkpt lat="42.86546" lon="0.21986">
        <ele>2511</ele>
        <time>2022-02-13T10:53:45Z</time>
      </trkpt>
      <trkpt lat="42.86557" lon="0.21982">
        <ele>2514</ele>
        <time>2022-02-13T10:53:56Z</time>
      </trkpt>
      <trkpt lat="42.86571" lon="0.21974">
        <ele>2514</ele>
        <time>2022-02-13T10:54:10Z</time>
      </trkpt>
      <trkpt lat="42.86583" lon="0.21966">
        <ele>2514</ele>
        <time>2022-02-13T10:54:23Z</time>
      </trkpt>
      <trkpt lat="42.86597" lon="0.21958">
        <ele>2513</ele>
        <time>2022-02-13T10:54:40Z</time>
      </trkpt>
      <trkpt lat="42.866" lon="0.21954">
        <ele>2514</ele>
        <time>2022-02-13T10:54:46Z</time>
      </trkpt>
      <trkpt lat="42.86601" lon="0.21952">
        <ele>2514</ele>
        <time>2022-02-13T10:54:48Z</time>
      </trkpt>
      <trkpt lat="42.86609" lon="0.21943">
        <ele>2516</ele>
        <time>2022-02-13T10:55:03Z</time>
      </trkpt>
      <trkpt lat="42.86617" lon="0.21935">
        <ele>2518</ele>
        <time>2022-02-13T10:55:16Z</time>
      </trkpt>
      <trkpt lat="42.86623" lon="0.21926">
        <ele>2519</ele>
        <time>2022-02-13T10:55:29Z</time>
      </trkpt>
      <trkpt lat="42.86627" lon="0.2192">
        <ele>2522</ele>
        <time>2022-02-13T10:55:39Z</time>
      </trkpt>
      <trkpt lat="42.86629" lon="0.21917">
        <ele>2524</ele>
        <time>2022-02-13T10:55:43Z</time>
      </trkpt>
      <trkpt lat="42.86636" lon="0.21907">
        <ele>2524</ele>
        <time>2022-02-13T10:55:56Z</time>
      </trkpt>
      <trkpt lat="42.86636" lon="0.21899">
        <ele>2527</ele>
        <time>2022-02-13T10:56:06Z</time>
      </trkpt>
      <trkpt lat="42.86636" lon="0.21898">
        <ele>2527</ele>
        <time>2022-02-13T10:56:07Z</time>
      </trkpt>
      <trkpt lat="42.86637" lon="0.21889">
        <ele>2529</ele>
        <time>2022-02-13T10:56:21Z</time>
      </trkpt>
      <trkpt lat="42.86637" lon="0.21886">
        <ele>2531</ele>
        <time>2022-02-13T10:56:25Z</time>
      </trkpt>
      <trkpt lat="42.86639" lon="0.21884">
        <ele>2535</ele>
        <time>2022-02-13T10:56:32Z</time>
      </trkpt>
      <trkpt lat="42.86639" lon="0.21884">
        <ele>2535</ele>
        <time>2022-02-13T10:56:33Z</time>
      </trkpt>
      <trkpt lat="42.8664" lon="0.21884">
        <ele>2533</ele>
        <time>2022-02-13T10:56:41Z</time>
      </trkpt>
      <trkpt lat="42.86642" lon="0.21884">
        <ele>2532</ele>
        <time>2022-02-13T10:56:45Z</time>
      </trkpt>
      <trkpt lat="42.86651" lon="0.2189">
        <ele>2533</ele>
        <time>2022-02-13T10:56:58Z</time>
      </trkpt>
      <trkpt lat="42.86659" lon="0.21897">
        <ele>2536</ele>
        <time>2022-02-13T10:57:13Z</time>
      </trkpt>
      <trkpt lat="42.86665" lon="0.219">
        <ele>2538</ele>
        <time>2022-02-13T10:57:26Z</time>
      </trkpt>
      <trkpt lat="42.86666" lon="0.219">
        <ele>2539</ele>
        <time>2022-02-13T10:57:32Z</time>
      </trkpt>
      <trkpt lat="42.86669" lon="0.219">
        <ele>2542</ele>
        <time>2022-02-13T10:57:40Z</time>
      </trkpt>
      <trkpt lat="42.86674" lon="0.21892">
        <ele>2542</ele>
        <time>2022-02-13T10:57:55Z</time>
      </trkpt>
      <trkpt lat="42.86684" lon="0.21884">
        <ele>2543</ele>
        <time>2022-02-13T10:58:11Z</time>
      </trkpt>
      <trkpt lat="42.86686" lon="0.21883">
        <ele>2543</ele>
        <time>2022-02-13T10:58:13Z</time>
      </trkpt>
      <trkpt lat="42.86693" lon="0.21879">
        <ele>2543</ele>
        <time>2022-02-13T10:58:22Z</time>
      </trkpt>
      <trkpt lat="42.86702" lon="0.21879">
        <ele>2545</ele>
        <time>2022-02-13T10:58:37Z</time>
      </trkpt>
      <trkpt lat="42.86703" lon="0.2188">
        <ele>2545</ele>
        <time>2022-02-13T10:58:38Z</time>
      </trkpt>
      <trkpt lat="42.86708" lon="0.21884">
        <ele>2545</ele>
        <time>2022-02-13T10:58:53Z</time>
      </trkpt>
      <trkpt lat="42.86707" lon="0.21883">
        <ele>2545</ele>
        <time>2022-02-13T10:59:07Z</time>
      </trkpt>
      <trkpt lat="42.8671" lon="0.21883">
        <ele>2545</ele>
        <time>2022-02-13T10:59:27Z</time>
      </trkpt>
      <trkpt lat="42.86711" lon="0.21882">
        <ele>2545</ele>
        <time>2022-02-13T10:59:43Z</time>
      </trkpt>
      <trkpt lat="42.86711" lon="0.21883">
        <ele>2545</ele>
        <time>2022-02-13T11:00:03Z</time>
      </trkpt>
      <trkpt lat="42.86708" lon="0.21884">
        <ele>2545</ele>
        <time>2022-02-13T11:00:30Z</time>
      </trkpt>
      <trkpt lat="42.8671" lon="0.21884">
        <ele>2543</ele>
        <time>2022-02-13T11:00:46Z</time>
      </trkpt>
      <trkpt lat="42.8671" lon="0.21883">
        <ele>2544</ele>
        <time>2022-02-13T11:00:59Z</time>
      </trkpt>
      <trkpt lat="42.86709" lon="0.21883">
        <ele>2543</ele>
        <time>2022-02-13T11:01:19Z</time>
      </trkpt>
      <trkpt lat="42.8671" lon="0.21885">
        <ele>2545</ele>
        <time>2022-02-13T11:01:34Z</time>
      </trkpt>
      <trkpt lat="42.8671" lon="0.21885">
        <ele>2543</ele>
        <time>2022-02-13T11:01:36Z</time>
      </trkpt>
      <trkpt lat="42.8671" lon="0.21885">
        <ele>2543</ele>
        <time>2022-02-13T11:02:05Z</time>
      </trkpt>
      <trkpt lat="42.86707" lon="0.21886">
        <ele>2543</ele>
        <time>2022-02-13T11:02:31Z</time>
      </trkpt>
      <trkpt lat="42.86706" lon="0.21884">
        <ele>2544</ele>
        <time>2022-02-13T11:02:52Z</time>
      </trkpt>
      <trkpt lat="42.86705" lon="0.21884">
        <ele>2545</ele>
        <time>2022-02-13T11:03:12Z</time>
      </trkpt>
      <trkpt lat="42.86708" lon="0.21881">
        <ele>2548</ele>
        <time>2022-02-13T11:03:21Z</time>
      </trkpt>
      <trkpt lat="42.86718" lon="0.21877">
        <ele>2550</ele>
        <time>2022-02-13T11:03:35Z</time>
      </trkpt>
      <trkpt lat="42.86725" lon="0.21871">
        <ele>2553</ele>
        <time>2022-02-13T11:03:53Z</time>
      </trkpt>
      <trkpt lat="42.86727" lon="0.21871">
        <ele>2553</ele>
        <time>2022-02-13T11:03:55Z</time>
      </trkpt>
      <trkpt lat="42.86731" lon="0.21863">
        <ele>2557</ele>
        <time>2022-02-13T11:04:13Z</time>
      </trkpt>
      <trkpt lat="42.86738" lon="0.21857">
        <ele>2559</ele>
        <time>2022-02-13T11:04:29Z</time>
      </trkpt>
      <trkpt lat="42.86746" lon="0.21857">
        <ele>2561</ele>
        <time>2022-02-13T11:04:44Z</time>
      </trkpt>
      <trkpt lat="42.86749" lon="0.21858">
        <ele>2562</ele>
        <time>2022-02-13T11:04:49Z</time>
      </trkpt>
      <trkpt lat="42.86756" lon="0.21863">
        <ele>2565</ele>
        <time>2022-02-13T11:05:04Z</time>
      </trkpt>
      <trkpt lat="42.86757" lon="0.21854">
        <ele>2566</ele>
        <time>2022-02-13T11:05:18Z</time>
      </trkpt>
      <trkpt lat="42.86754" lon="0.21841">
        <ele>2569</ele>
        <time>2022-02-13T11:05:35Z</time>
      </trkpt>
      <trkpt lat="42.86753" lon="0.21839">
        <ele>2570</ele>
        <time>2022-02-13T11:05:37Z</time>
      </trkpt>
      <trkpt lat="42.86752" lon="0.21836">
        <ele>2571</ele>
        <time>2022-02-13T11:05:41Z</time>
      </trkpt>
      <trkpt lat="42.86752" lon="0.2183">
        <ele>2574</ele>
        <time>2022-02-13T11:05:48Z</time>
      </trkpt>
      <trkpt lat="42.86751" lon="0.21821">
        <ele>2575</ele>
        <time>2022-02-13T11:06:03Z</time>
      </trkpt>
      <trkpt lat="42.86755" lon="0.21825">
        <ele>2575</ele>
        <time>2022-02-13T11:06:10Z</time>
      </trkpt>
      <trkpt lat="42.86765" lon="0.21831">
        <ele>2575</ele>
        <time>2022-02-13T11:06:23Z</time>
      </trkpt>
      <trkpt lat="42.86774" lon="0.21835">
        <ele>2577</ele>
        <time>2022-02-13T11:06:40Z</time>
      </trkpt>
      <trkpt lat="42.86785" lon="0.21838">
        <ele>2579</ele>
        <time>2022-02-13T11:06:57Z</time>
      </trkpt>
      <trkpt lat="42.86792" lon="0.21842">
        <ele>2582</ele>
        <time>2022-02-13T11:07:10Z</time>
      </trkpt>
      <trkpt lat="42.86797" lon="0.21847">
        <ele>2586</ele>
        <time>2022-02-13T11:07:19Z</time>
      </trkpt>
      <trkpt lat="42.86798" lon="0.21847">
        <ele>2586</ele>
        <time>2022-02-13T11:07:20Z</time>
      </trkpt>
      <trkpt lat="42.86799" lon="0.21849">
        <ele>2583</ele>
        <time>2022-02-13T11:07:23Z</time>
      </trkpt>
      <trkpt lat="42.86802" lon="0.21851">
        <ele>2585</ele>
        <time>2022-02-13T11:07:27Z</time>
      </trkpt>
      <trkpt lat="42.86809" lon="0.21858">
        <ele>2588</ele>
        <time>2022-02-13T11:07:39Z</time>
      </trkpt>
      <trkpt lat="42.86805" lon="0.21852">
        <ele>2587</ele>
        <time>2022-02-13T11:07:52Z</time>
      </trkpt>
      <trkpt lat="42.86801" lon="0.21843">
        <ele>2590</ele>
        <time>2022-02-13T11:08:06Z</time>
      </trkpt>
      <trkpt lat="42.86801" lon="0.2184">
        <ele>2590</ele>
        <time>2022-02-13T11:08:17Z</time>
      </trkpt>
      <trkpt lat="42.86798" lon="0.21825">
        <ele>2593</ele>
        <time>2022-02-13T11:08:33Z</time>
      </trkpt>
      <trkpt lat="42.86797" lon="0.21819">
        <ele>2594</ele>
        <time>2022-02-13T11:08:41Z</time>
      </trkpt>
      <trkpt lat="42.86796" lon="0.21807">
        <ele>2597</ele>
        <time>2022-02-13T11:08:53Z</time>
      </trkpt>
      <trkpt lat="42.86796" lon="0.21793">
        <ele>2599</ele>
        <time>2022-02-13T11:09:08Z</time>
      </trkpt>
      <trkpt lat="42.86795" lon="0.21788">
        <ele>2600</ele>
        <time>2022-02-13T11:09:21Z</time>
      </trkpt>
      <trkpt lat="42.86794" lon="0.2178">
        <ele>2601</ele>
        <time>2022-02-13T11:09:35Z</time>
      </trkpt>
      <trkpt lat="42.86795" lon="0.21772">
        <ele>2604</ele>
        <time>2022-02-13T11:09:45Z</time>
      </trkpt>
      <trkpt lat="42.86795" lon="0.21765">
        <ele>2607</ele>
        <time>2022-02-13T11:09:53Z</time>
      </trkpt>
      <trkpt lat="42.86794" lon="0.21752">
        <ele>2606</ele>
        <time>2022-02-13T11:10:07Z</time>
      </trkpt>
      <trkpt lat="42.86791" lon="0.21738">
        <ele>2609</ele>
        <time>2022-02-13T11:10:20Z</time>
      </trkpt>
      <trkpt lat="42.8679" lon="0.21731">
        <ele>2610</ele>
        <time>2022-02-13T11:10:32Z</time>
      </trkpt>
      <trkpt lat="42.86789" lon="0.21725">
        <ele>2611</ele>
        <time>2022-02-13T11:10:39Z</time>
      </trkpt>
      <trkpt lat="42.86792" lon="0.21708">
        <ele>2613</ele>
        <time>2022-02-13T11:10:54Z</time>
      </trkpt>
      <trkpt lat="42.86795" lon="0.21696">
        <ele>2614</ele>
        <time>2022-02-13T11:11:09Z</time>
      </trkpt>
      <trkpt lat="42.86796" lon="0.21685">
        <ele>2616</ele>
        <time>2022-02-13T11:11:21Z</time>
      </trkpt>
      <trkpt lat="42.86796" lon="0.21682">
        <ele>2617</ele>
        <time>2022-02-13T11:11:24Z</time>
      </trkpt>
      <trkpt lat="42.86799" lon="0.21671">
        <ele>2621</ele>
        <time>2022-02-13T11:11:36Z</time>
      </trkpt>
      <trkpt lat="42.86803" lon="0.21663">
        <ele>2622</ele>
        <time>2022-02-13T11:11:49Z</time>
      </trkpt>
      <trkpt lat="42.86811" lon="0.21668">
        <ele>2623</ele>
        <time>2022-02-13T11:12:03Z</time>
      </trkpt>
      <trkpt lat="42.8682" lon="0.21682">
        <ele>2625</ele>
        <time>2022-02-13T11:12:19Z</time>
      </trkpt>
      <trkpt lat="42.86828" lon="0.21691">
        <ele>2627</ele>
        <time>2022-02-13T11:12:34Z</time>
      </trkpt>
      <trkpt lat="42.86833" lon="0.21697">
        <ele>2630</ele>
        <time>2022-02-13T11:12:50Z</time>
      </trkpt>
      <trkpt lat="42.86832" lon="0.21688">
        <ele>2631</ele>
        <time>2022-02-13T11:13:07Z</time>
      </trkpt>
      <trkpt lat="42.86833" lon="0.21682">
        <ele>2634</ele>
        <time>2022-02-13T11:13:16Z</time>
      </trkpt>
      <trkpt lat="42.86838" lon="0.21671">
        <ele>2635</ele>
        <time>2022-02-13T11:13:36Z</time>
      </trkpt>
      <trkpt lat="42.86844" lon="0.21661">
        <ele>2638</ele>
        <time>2022-02-13T11:13:54Z</time>
      </trkpt>
      <trkpt lat="42.8685" lon="0.21665">
        <ele>2639</ele>
        <time>2022-02-13T11:14:12Z</time>
      </trkpt>
      <trkpt lat="42.86858" lon="0.21671">
        <ele>2642</ele>
        <time>2022-02-13T11:14:27Z</time>
      </trkpt>
      <trkpt lat="42.86866" lon="0.21679">
        <ele>2644</ele>
        <time>2022-02-13T11:14:44Z</time>
      </trkpt>
      <trkpt lat="42.86874" lon="0.21685">
        <ele>2645</ele>
        <time>2022-02-13T11:15:00Z</time>
      </trkpt>
      <trkpt lat="42.8688" lon="0.21691">
        <ele>2648</ele>
        <time>2022-02-13T11:15:13Z</time>
      </trkpt>
      <trkpt lat="42.86889" lon="0.21699">
        <ele>2651</ele>
        <time>2022-02-13T11:15:30Z</time>
      </trkpt>
      <trkpt lat="42.86891" lon="0.21701">
        <ele>2652</ele>
        <time>2022-02-13T11:15:34Z</time>
      </trkpt>
      <trkpt lat="42.86898" lon="0.21707">
        <ele>2655</ele>
        <time>2022-02-13T11:15:50Z</time>
      </trkpt>
      <trkpt lat="42.86908" lon="0.21714">
        <ele>2657</ele>
        <time>2022-02-13T11:16:09Z</time>
      </trkpt>
      <trkpt lat="42.8691" lon="0.21715">
        <ele>2658</ele>
        <time>2022-02-13T11:16:14Z</time>
      </trkpt>
      <trkpt lat="42.86913" lon="0.21715">
        <ele>2660</ele>
        <time>2022-02-13T11:16:19Z</time>
      </trkpt>
      <trkpt lat="42.86916" lon="0.21716">
        <ele>2661</ele>
        <time>2022-02-13T11:16:23Z</time>
      </trkpt>
      <trkpt lat="42.86921" lon="0.21711">
        <ele>2662</ele>
        <time>2022-02-13T11:16:40Z</time>
      </trkpt>
      <trkpt lat="42.86922" lon="0.21702">
        <ele>2665</ele>
        <time>2022-02-13T11:16:53Z</time>
      </trkpt>
      <trkpt lat="42.86924" lon="0.21693">
        <ele>2667</ele>
        <time>2022-02-13T11:17:08Z</time>
      </trkpt>
      <trkpt lat="42.86928" lon="0.21685">
        <ele>2668</ele>
        <time>2022-02-13T11:17:23Z</time>
      </trkpt>
      <trkpt lat="42.8693" lon="0.21674">
        <ele>2672</ele>
        <time>2022-02-13T11:17:41Z</time>
      </trkpt>
      <trkpt lat="42.86932" lon="0.21661">
        <ele>2674</ele>
        <time>2022-02-13T11:18:01Z</time>
      </trkpt>
      <trkpt lat="42.86935" lon="0.2165">
        <ele>2676</ele>
        <time>2022-02-13T11:18:19Z</time>
      </trkpt>
      <trkpt lat="42.86937" lon="0.21641">
        <ele>2679</ele>
        <time>2022-02-13T11:18:34Z</time>
      </trkpt>
      <trkpt lat="42.86938" lon="0.21635">
        <ele>2682</ele>
        <time>2022-02-13T11:18:44Z</time>
      </trkpt>
      <trkpt lat="42.86939" lon="0.21627">
        <ele>2683</ele>
        <time>2022-02-13T11:18:57Z</time>
      </trkpt>
      <trkpt lat="42.86939" lon="0.21621">
        <ele>2685</ele>
        <time>2022-02-13T11:19:09Z</time>
      </trkpt>
      <trkpt lat="42.8694" lon="0.21614">
        <ele>2687</ele>
        <time>2022-02-13T11:19:20Z</time>
      </trkpt>
      <trkpt lat="42.86941" lon="0.21606">
        <ele>2688</ele>
        <time>2022-02-13T11:19:32Z</time>
      </trkpt>
      <trkpt lat="42.86942" lon="0.21598">
        <ele>2690</ele>
        <time>2022-02-13T11:19:47Z</time>
      </trkpt>
      <trkpt lat="42.86943" lon="0.2159">
        <ele>2695</ele>
        <time>2022-02-13T11:20:02Z</time>
      </trkpt>
      <trkpt lat="42.86943" lon="0.21589">
        <ele>2695</ele>
        <time>2022-02-13T11:20:03Z</time>
      </trkpt>
      <trkpt lat="42.86943" lon="0.21588">
        <ele>2699</ele>
        <time>2022-02-13T11:20:05Z</time>
      </trkpt>
      <trkpt lat="42.86943" lon="0.21587">
        <ele>2699</ele>
        <time>2022-02-13T11:20:06Z</time>
      </trkpt>
      <trkpt lat="42.86944" lon="0.21585">
        <ele>2698</ele>
        <time>2022-02-13T11:20:10Z</time>
      </trkpt>
      <trkpt lat="42.86944" lon="0.21577">
        <ele>2700</ele>
        <time>2022-02-13T11:20:23Z</time>
      </trkpt>
      <trkpt lat="42.86947" lon="0.21569">
        <ele>2699</ele>
        <time>2022-02-13T11:20:38Z</time>
      </trkpt>
      <trkpt lat="42.86949" lon="0.21561">
        <ele>2701</ele>
        <time>2022-02-13T11:20:52Z</time>
      </trkpt>
      <trkpt lat="42.86948" lon="0.21552">
        <ele>2703</ele>
        <time>2022-02-13T11:21:07Z</time>
      </trkpt>
      <trkpt lat="42.86949" lon="0.21548">
        <ele>2707</ele>
        <time>2022-02-13T11:21:15Z</time>
      </trkpt>
      <trkpt lat="42.86949" lon="0.21547">
        <ele>2708</ele>
        <time>2022-02-13T11:21:18Z</time>
      </trkpt>
      <trkpt lat="42.86949" lon="0.21544">
        <ele>2712</ele>
        <time>2022-02-13T11:21:22Z</time>
      </trkpt>
      <trkpt lat="42.86949" lon="0.21544">
        <ele>2711</ele>
        <time>2022-02-13T11:21:23Z</time>
      </trkpt>
      <trkpt lat="42.86949" lon="0.21543">
        <ele>2708</ele>
        <time>2022-02-13T11:21:25Z</time>
      </trkpt>
      <trkpt lat="42.86949" lon="0.21543">
        <ele>2708</ele>
        <time>2022-02-13T11:21:26Z</time>
      </trkpt>
      <trkpt lat="42.86948" lon="0.21535">
        <ele>2710</ele>
        <time>2022-02-13T11:21:39Z</time>
      </trkpt>
      <trkpt lat="42.8695" lon="0.21529">
        <ele>2714</ele>
        <time>2022-02-13T11:21:50Z</time>
      </trkpt>
      <trkpt lat="42.8695" lon="0.21527">
        <ele>2710</ele>
        <time>2022-02-13T11:21:53Z</time>
      </trkpt>
      <trkpt lat="42.8695" lon="0.21527">
        <ele>2711</ele>
        <time>2022-02-13T11:21:54Z</time>
      </trkpt>
      <trkpt lat="42.86951" lon="0.2152">
        <ele>2712</ele>
        <time>2022-02-13T11:22:01Z</time>
      </trkpt>
      <trkpt lat="42.86951" lon="0.21517">
        <ele>2714</ele>
        <time>2022-02-13T11:22:05Z</time>
      </trkpt>
      <trkpt lat="42.86953" lon="0.21506">
        <ele>2714</ele>
        <time>2022-02-13T11:22:21Z</time>
      </trkpt>
      <trkpt lat="42.86954" lon="0.21505">
        <ele>2714</ele>
        <time>2022-02-13T11:22:22Z</time>
      </trkpt>
      <trkpt lat="42.86955" lon="0.21502">
        <ele>2713</ele>
        <time>2022-02-13T11:22:28Z</time>
      </trkpt>
      <trkpt lat="42.86957" lon="0.21496">
        <ele>2716</ele>
        <time>2022-02-13T11:22:42Z</time>
      </trkpt>
      <trkpt lat="42.86957" lon="0.21495">
        <ele>2719</ele>
        <time>2022-02-13T11:22:52Z</time>
      </trkpt>
      <trkpt lat="42.86957" lon="0.21495">
        <ele>2719</ele>
        <time>2022-02-13T11:22:53Z</time>
      </trkpt>
      <trkpt lat="42.86958" lon="0.21495">
        <ele>2717</ele>
        <time>2022-02-13T11:22:59Z</time>
      </trkpt>
      <trkpt lat="42.86958" lon="0.21496">
        <ele>2723</ele>
        <time>2022-02-13T11:23:07Z</time>
      </trkpt>
      <trkpt lat="42.86958" lon="0.21496">
        <ele>2717</ele>
        <time>2022-02-13T11:23:08Z</time>
      </trkpt>
      <trkpt lat="42.86957" lon="0.21496">
        <ele>2715</ele>
        <time>2022-02-13T11:23:10Z</time>
      </trkpt>
      <trkpt lat="42.86957" lon="0.21497">
        <ele>2714</ele>
        <time>2022-02-13T11:23:22Z</time>
      </trkpt>
      <trkpt lat="42.86957" lon="0.21496">
        <ele>2715</ele>
        <time>2022-02-13T11:23:43Z</time>
      </trkpt>
      <trkpt lat="42.86957" lon="0.21495">
        <ele>2715</ele>
        <time>2022-02-13T11:24:02Z</time>
      </trkpt>
      <trkpt lat="42.86956" lon="0.21496">
        <ele>2716</ele>
        <time>2022-02-13T11:24:06Z</time>
      </trkpt>
      <trkpt lat="42.86957" lon="0.21498">
        <ele>2714</ele>
        <time>2022-02-13T11:24:20Z</time>
      </trkpt>
      <trkpt lat="42.86956" lon="0.21497">
        <ele>2713</ele>
        <time>2022-02-13T11:25:03Z</time>
      </trkpt>
      <trkpt lat="42.86956" lon="0.21496">
        <ele>2716</ele>
        <time>2022-02-13T11:25:11Z</time>
      </trkpt>
      <trkpt lat="42.86956" lon="0.21496">
        <ele>2713</ele>
        <time>2022-02-13T11:25:15Z</time>
      </trkpt>
      <trkpt lat="42.86957" lon="0.21495">
        <ele>2713</ele>
        <time>2022-02-13T11:25:53Z</time>
      </trkpt>
      <trkpt lat="42.86957" lon="0.21495">
        <ele>2713</ele>
        <time>2022-02-13T11:25:54Z</time>
      </trkpt>
      <trkpt lat="42.86957" lon="0.21495">
        <ele>2716</ele>
        <time>2022-02-13T11:26:04Z</time>
      </trkpt>
      <trkpt lat="42.86957" lon="0.21495">
        <ele>2716</ele>
        <time>2022-02-13T11:26:05Z</time>
      </trkpt>
      <trkpt lat="42.86957" lon="0.21494">
        <ele>2713</ele>
        <time>2022-02-13T11:26:26Z</time>
      </trkpt>
      <trkpt lat="42.86957" lon="0.21496">
        <ele>2713</ele>
        <time>2022-02-13T11:26:58Z</time>
      </trkpt>
      <trkpt lat="42.86956" lon="0.21494">
        <ele>2713</ele>
        <time>2022-02-13T11:27:37Z</time>
      </trkpt>
      <trkpt lat="42.86956" lon="0.21495">
        <ele>2714</ele>
        <time>2022-02-13T11:28:08Z</time>
      </trkpt>
      <trkpt lat="42.86957" lon="0.21496">
        <ele>2714</ele>
        <time>2022-02-13T11:28:37Z</time>
      </trkpt>
      <trkpt lat="42.86958" lon="0.21497">
        <ele>2717</ele>
        <time>2022-02-13T11:28:51Z</time>
      </trkpt>
      <trkpt lat="42.86958" lon="0.21496">
        <ele>2715</ele>
        <time>2022-02-13T11:28:52Z</time>
      </trkpt>
      <trkpt lat="42.86958" lon="0.21496">
        <ele>2712</ele>
        <time>2022-02-13T11:29:00Z</time>
      </trkpt>
      <trkpt lat="42.86958" lon="0.21496">
        <ele>2715</ele>
        <time>2022-02-13T11:29:01Z</time>
      </trkpt>
      <trkpt lat="42.86958" lon="0.21496">
        <ele>2716</ele>
        <time>2022-02-13T11:29:05Z</time>
      </trkpt>
      <trkpt lat="42.86957" lon="0.21496">
        <ele>2714</ele>
        <time>2022-02-13T11:29:09Z</time>
      </trkpt>
      <trkpt lat="42.86957" lon="0.21496">
        <ele>2714</ele>
        <time>2022-02-13T11:29:47Z</time>
      </trkpt>
      <trkpt lat="42.86957" lon="0.21497">
        <ele>2715</ele>
        <time>2022-02-13T11:30:19Z</time>
      </trkpt>
      <trkpt lat="42.86957" lon="0.21496">
        <ele>2715</ele>
        <time>2022-02-13T11:30:53Z</time>
      </trkpt>
      <trkpt lat="42.86957" lon="0.21496">
        <ele>2716</ele>
        <time>2022-02-13T11:31:22Z</time>
      </trkpt>
      <trkpt lat="42.86957" lon="0.21497">
        <ele>2716</ele>
        <time>2022-02-13T11:31:57Z</time>
      </trkpt>
      <trkpt lat="42.86956" lon="0.21496">
        <ele>2716</ele>
        <time>2022-02-13T11:32:36Z</time>
      </trkpt>
      <trkpt lat="42.86956" lon="0.21496">
        <ele>2716</ele>
        <time>2022-02-13T11:33:16Z</time>
      </trkpt>
      <trkpt lat="42.86957" lon="0.21496">
        <ele>2716</ele>
        <time>2022-02-13T11:33:47Z</time>
      </trkpt>
      <trkpt lat="42.86957" lon="0.21496">
        <ele>2715</ele>
        <time>2022-02-13T11:33:49Z</time>
      </trkpt>
      <trkpt lat="42.86958" lon="0.21497">
        <ele>2717</ele>
        <time>2022-02-13T11:34:22Z</time>
      </trkpt>
      <trkpt lat="42.86959" lon="0.21496">
        <ele>2714</ele>
        <time>2022-02-13T11:34:46Z</time>
      </trkpt>
      <trkpt lat="42.86957" lon="0.21496">
        <ele>2716</ele>
        <time>2022-02-13T11:35:21Z</time>
      </trkpt>
      <trkpt lat="42.86958" lon="0.21496">
        <ele>2715</ele>
        <time>2022-02-13T11:35:34Z</time>
      </trkpt>
      <trkpt lat="42.86958" lon="0.21497">
        <ele>2716</ele>
        <time>2022-02-13T11:35:57Z</time>
      </trkpt>
      <trkpt lat="42.86958" lon="0.21496">
        <ele>2716</ele>
        <time>2022-02-13T11:36:19Z</time>
      </trkpt>
      <trkpt lat="42.86958" lon="0.21497">
        <ele>2714</ele>
        <time>2022-02-13T11:36:55Z</time>
      </trkpt>
      <trkpt lat="42.86958" lon="0.21499">
        <ele>2717</ele>
        <time>2022-02-13T11:37:02Z</time>
      </trkpt>
      <trkpt lat="42.86958" lon="0.21499">
        <ele>2717</ele>
        <time>2022-02-13T11:37:03Z</time>
      </trkpt>
      <trkpt lat="42.86957" lon="0.21499">
        <ele>2716</ele>
        <time>2022-02-13T11:37:13Z</time>
      </trkpt>
      <trkpt lat="42.86955" lon="0.21498">
        <ele>2721</ele>
        <time>2022-02-13T11:37:17Z</time>
      </trkpt>
      <trkpt lat="42.86956" lon="0.21499">
        <ele>2720</ele>
        <time>2022-02-13T11:37:22Z</time>
      </trkpt>
      <trkpt lat="42.86957" lon="0.21499">
        <ele>2720</ele>
        <time>2022-02-13T11:37:27Z</time>
      </trkpt>
      <trkpt lat="42.86958" lon="0.21499">
        <ele>2722</ele>
        <time>2022-02-13T11:37:34Z</time>
      </trkpt>
      <trkpt lat="42.86958" lon="0.21499">
        <ele>2718</ele>
        <time>2022-02-13T11:37:39Z</time>
      </trkpt>
      <trkpt lat="42.8696" lon="0.215">
        <ele>2717</ele>
        <time>2022-02-13T11:37:59Z</time>
      </trkpt>
      <trkpt lat="42.8696" lon="0.21499">
        <ele>2718</ele>
        <time>2022-02-13T11:38:16Z</time>
      </trkpt>
      <trkpt lat="42.86961" lon="0.21499">
        <ele>2717</ele>
        <time>2022-02-13T11:38:32Z</time>
      </trkpt>
      <trkpt lat="42.8696" lon="0.21499">
        <ele>2718</ele>
        <time>2022-02-13T11:38:52Z</time>
      </trkpt>
      <trkpt lat="42.8696" lon="0.21499">
        <ele>2716</ele>
        <time>2022-02-13T11:39:00Z</time>
      </trkpt>
      <trkpt lat="42.8696" lon="0.21499">
        <ele>2720</ele>
        <time>2022-02-13T11:39:11Z</time>
      </trkpt>
      <trkpt lat="42.8696" lon="0.215">
        <ele>2716</ele>
        <time>2022-02-13T11:39:13Z</time>
      </trkpt>
      <trkpt lat="42.8696" lon="0.215">
        <ele>2716</ele>
        <time>2022-02-13T11:39:14Z</time>
      </trkpt>
      <trkpt lat="42.8696" lon="0.215">
        <ele>2715</ele>
        <time>2022-02-13T11:39:29Z</time>
      </trkpt>
      <trkpt lat="42.86958" lon="0.21498">
        <ele>2719</ele>
        <time>2022-02-13T11:39:41Z</time>
      </trkpt>
      <trkpt lat="42.86959" lon="0.21498">
        <ele>2713</ele>
        <time>2022-02-13T11:39:44Z</time>
      </trkpt>
      <trkpt lat="42.86959" lon="0.21499">
        <ele>2717</ele>
        <time>2022-02-13T11:39:49Z</time>
      </trkpt>
      <trkpt lat="42.86959" lon="0.21499">
        <ele>2717</ele>
        <time>2022-02-13T11:39:50Z</time>
      </trkpt>
      <trkpt lat="42.8696" lon="0.21498">
        <ele>2720</ele>
        <time>2022-02-13T11:39:56Z</time>
      </trkpt>
      <trkpt lat="42.8696" lon="0.21497">
        <ele>2717</ele>
        <time>2022-02-13T11:40:22Z</time>
      </trkpt>
      <trkpt lat="42.86959" lon="0.21499">
        <ele>2716</ele>
        <time>2022-02-13T11:40:39Z</time>
      </trkpt>
      <trkpt lat="42.86959" lon="0.21496">
        <ele>2714</ele>
        <time>2022-02-13T11:40:57Z</time>
      </trkpt>
      <trkpt lat="42.86959" lon="0.21498">
        <ele>2714</ele>
        <time>2022-02-13T11:41:09Z</time>
      </trkpt>
      <trkpt lat="42.86959" lon="0.21498">
        <ele>2716</ele>
        <time>2022-02-13T11:41:11Z</time>
      </trkpt>
      <trkpt lat="42.86957" lon="0.21496">
        <ele>2717</ele>
        <time>2022-02-13T11:41:28Z</time>
      </trkpt>
      <trkpt lat="42.86958" lon="0.21497">
        <ele>2717</ele>
        <time>2022-02-13T11:41:34Z</time>
      </trkpt>
      <trkpt lat="42.86957" lon="0.21495">
        <ele>2718</ele>
        <time>2022-02-13T11:41:51Z</time>
      </trkpt>
      <trkpt lat="42.86958" lon="0.21496">
        <ele>2717</ele>
        <time>2022-02-13T11:42:05Z</time>
      </trkpt>
      <trkpt lat="42.86956" lon="0.21496">
        <ele>2718</ele>
        <time>2022-02-13T11:42:22Z</time>
      </trkpt>
      <trkpt lat="42.86956" lon="0.21495">
        <ele>2717</ele>
        <time>2022-02-13T11:42:38Z</time>
      </trkpt>
      <trkpt lat="42.86957" lon="0.21496">
        <ele>2719</ele>
        <time>2022-02-13T11:42:41Z</time>
      </trkpt>
      <trkpt lat="42.86957" lon="0.21497">
        <ele>2715</ele>
        <time>2022-02-13T11:42:46Z</time>
      </trkpt>
      <trkpt lat="42.86957" lon="0.21497">
        <ele>2715</ele>
        <time>2022-02-13T11:42:47Z</time>
      </trkpt>
      <trkpt lat="42.86957" lon="0.21497">
        <ele>2719</ele>
        <time>2022-02-13T11:42:49Z</time>
      </trkpt>
      <trkpt lat="42.86957" lon="0.21497">
        <ele>2715</ele>
        <time>2022-02-13T11:42:50Z</time>
      </trkpt>
      <trkpt lat="42.86957" lon="0.21496">
        <ele>2719</ele>
        <time>2022-02-13T11:42:53Z</time>
      </trkpt>
      <trkpt lat="42.86957" lon="0.21496">
        <ele>2716</ele>
        <time>2022-02-13T11:42:57Z</time>
      </trkpt>
      <trkpt lat="42.86957" lon="0.21496">
        <ele>2719</ele>
        <time>2022-02-13T11:42:59Z</time>
      </trkpt>
      <trkpt lat="42.86957" lon="0.21497">
        <ele>2715</ele>
        <time>2022-02-13T11:43:00Z</time>
      </trkpt>
      <trkpt lat="42.86957" lon="0.21497">
        <ele>2715</ele>
        <time>2022-02-13T11:43:01Z</time>
      </trkpt>
      <trkpt lat="42.86958" lon="0.21496">
        <ele>2720</ele>
        <time>2022-02-13T11:43:03Z</time>
      </trkpt>
      <trkpt lat="42.86958" lon="0.21496">
        <ele>2720</ele>
        <time>2022-02-13T11:43:04Z</time>
      </trkpt>
      <trkpt lat="42.86958" lon="0.21496">
        <ele>2720</ele>
        <time>2022-02-13T11:43:11Z</time>
      </trkpt>
      <trkpt lat="42.86958" lon="0.21496">
        <ele>2718</ele>
        <time>2022-02-13T11:43:15Z</time>
      </trkpt>
      <trkpt lat="42.86957" lon="0.21496">
        <ele>2722</ele>
        <time>2022-02-13T11:43:24Z</time>
      </trkpt>
      <trkpt lat="42.86956" lon="0.21496">
        <ele>2718</ele>
        <time>2022-02-13T11:43:26Z</time>
      </trkpt>
      <trkpt lat="42.86956" lon="0.21496">
        <ele>2719</ele>
        <time>2022-02-13T11:43:27Z</time>
      </trkpt>
      <trkpt lat="42.86956" lon="0.21496">
        <ele>2717</ele>
        <time>2022-02-13T11:43:30Z</time>
      </trkpt>
      <trkpt lat="42.86957" lon="0.21497">
        <ele>2714</ele>
        <time>2022-02-13T11:43:35Z</time>
      </trkpt>
      <trkpt lat="42.86957" lon="0.21497">
        <ele>2717</ele>
        <time>2022-02-13T11:43:37Z</time>
      </trkpt>
      <trkpt lat="42.86957" lon="0.21497">
        <ele>2717</ele>
        <time>2022-02-13T11:43:51Z</time>
      </trkpt>
      <trkpt lat="42.86956" lon="0.21497">
        <ele>2718</ele>
        <time>2022-02-13T11:43:53Z</time>
      </trkpt>
      <trkpt lat="42.86956" lon="0.21497">
        <ele>2718</ele>
        <time>2022-02-13T11:44:00Z</time>
      </trkpt>
      <trkpt lat="42.86956" lon="0.21497">
        <ele>2717</ele>
        <time>2022-02-13T11:44:03Z</time>
      </trkpt>
      <trkpt lat="42.86956" lon="0.21497">
        <ele>2719</ele>
        <time>2022-02-13T11:44:06Z</time>
      </trkpt>
      <trkpt lat="42.86956" lon="0.21498">
        <ele>2721</ele>
        <time>2022-02-13T11:44:21Z</time>
      </trkpt>
      <trkpt lat="42.86956" lon="0.21498">
        <ele>2717</ele>
        <time>2022-02-13T11:44:42Z</time>
      </trkpt>
      <trkpt lat="42.86956" lon="0.21498">
        <ele>2720</ele>
        <time>2022-02-13T11:44:45Z</time>
      </trkpt>
      <trkpt lat="42.86956" lon="0.21499">
        <ele>2719</ele>
        <time>2022-02-13T11:44:50Z</time>
      </trkpt>
      <trkpt lat="42.86956" lon="0.21499">
        <ele>2716</ele>
        <time>2022-02-13T11:44:58Z</time>
      </trkpt>
      <trkpt lat="42.86956" lon="0.21499">
        <ele>2717</ele>
        <time>2022-02-13T11:45:04Z</time>
      </trkpt>
      <trkpt lat="42.86956" lon="0.21499">
        <ele>2717</ele>
        <time>2022-02-13T11:45:19Z</time>
      </trkpt>
      <trkpt lat="42.86955" lon="0.21499">
        <ele>2722</ele>
        <time>2022-02-13T11:45:25Z</time>
      </trkpt>
      <trkpt lat="42.86955" lon="0.21499">
        <ele>2720</ele>
        <time>2022-02-13T11:45:30Z</time>
      </trkpt>
      <trkpt lat="42.86955" lon="0.21499">
        <ele>2719</ele>
        <time>2022-02-13T11:45:33Z</time>
      </trkpt>
      <trkpt lat="42.86955" lon="0.21499">
        <ele>2715</ele>
        <time>2022-02-13T11:45:38Z</time>
      </trkpt>
      <trkpt lat="42.86955" lon="0.21499">
        <ele>2715</ele>
        <time>2022-02-13T11:45:39Z</time>
      </trkpt>
      <trkpt lat="42.86956" lon="0.215">
        <ele>2721</ele>
        <time>2022-02-13T11:45:45Z</time>
      </trkpt>
      <trkpt lat="42.86956" lon="0.215">
        <ele>2718</ele>
        <time>2022-02-13T11:45:46Z</time>
      </trkpt>
      <trkpt lat="42.86956" lon="0.215">
        <ele>2713</ele>
        <time>2022-02-13T11:45:47Z</time>
      </trkpt>
      <trkpt lat="42.86956" lon="0.215">
        <ele>2714</ele>
        <time>2022-02-13T11:45:48Z</time>
      </trkpt>
      <trkpt lat="42.86956" lon="0.21499">
        <ele>2717</ele>
        <time>2022-02-13T11:45:57Z</time>
      </trkpt>
      <trkpt lat="42.86956" lon="0.21499">
        <ele>2717</ele>
        <time>2022-02-13T11:46:01Z</time>
      </trkpt>
      <trkpt lat="42.86956" lon="0.21499">
        <ele>2720</ele>
        <time>2022-02-13T11:46:09Z</time>
      </trkpt>
      <trkpt lat="42.86956" lon="0.21499">
        <ele>2724</ele>
        <time>2022-02-13T11:46:11Z</time>
      </trkpt>
      <trkpt lat="42.86956" lon="0.21499">
        <ele>2724</ele>
        <time>2022-02-13T11:46:12Z</time>
      </trkpt>
      <trkpt lat="42.86956" lon="0.21499">
        <ele>2721</ele>
        <time>2022-02-13T11:46:14Z</time>
      </trkpt>
      <trkpt lat="42.86956" lon="0.21499">
        <ele>2717</ele>
        <time>2022-02-13T11:46:15Z</time>
      </trkpt>
      <trkpt lat="42.86956" lon="0.21501">
        <ele>2716</ele>
        <time>2022-02-13T11:46:30Z</time>
      </trkpt>
      <trkpt lat="42.86955" lon="0.21503">
        <ele>2713</ele>
        <time>2022-02-13T11:46:42Z</time>
      </trkpt>
      <trkpt lat="42.86955" lon="0.21503">
        <ele>2714</ele>
        <time>2022-02-13T11:46:43Z</time>
      </trkpt>
      <trkpt lat="42.86954" lon="0.21504">
        <ele>2717</ele>
        <time>2022-02-13T11:46:50Z</time>
      </trkpt>
      <trkpt lat="42.86953" lon="0.21507">
        <ele>2714</ele>
        <time>2022-02-13T11:46:52Z</time>
      </trkpt>
      <trkpt lat="42.86949" lon="0.21524">
        <ele>2712</ele>
        <time>2022-02-13T11:47:00Z</time>
      </trkpt>
      <trkpt lat="42.86947" lon="0.21536">
        <ele>2708</ele>
        <time>2022-02-13T11:47:06Z</time>
      </trkpt>
      <trkpt lat="42.86946" lon="0.21538">
        <ele>2712</ele>
        <time>2022-02-13T11:47:07Z</time>
      </trkpt>
      <trkpt lat="42.86945" lon="0.21541">
        <ele>2710</ele>
        <time>2022-02-13T11:47:08Z</time>
      </trkpt>
      <trkpt lat="42.86941" lon="0.21543">
        <ele>2702</ele>
        <time>2022-02-13T11:47:10Z</time>
      </trkpt>
      <trkpt lat="42.86939" lon="0.21543">
        <ele>2710</ele>
        <time>2022-02-13T11:47:11Z</time>
      </trkpt>
      <trkpt lat="42.86934" lon="0.21541">
        <ele>2694</ele>
        <time>2022-02-13T11:47:13Z</time>
      </trkpt>
      <trkpt lat="42.86932" lon="0.21542">
        <ele>2700</ele>
        <time>2022-02-13T11:47:14Z</time>
      </trkpt>
      <trkpt lat="42.86931" lon="0.21547">
        <ele>2696</ele>
        <time>2022-02-13T11:47:16Z</time>
      </trkpt>
      <trkpt lat="42.86932" lon="0.21556">
        <ele>2693</ele>
        <time>2022-02-13T11:47:19Z</time>
      </trkpt>
      <trkpt lat="42.86933" lon="0.21581">
        <ele>2689</ele>
        <time>2022-02-13T11:47:26Z</time>
      </trkpt>
      <trkpt lat="42.86933" lon="0.21589">
        <ele>2687</ele>
        <time>2022-02-13T11:47:28Z</time>
      </trkpt>
      <trkpt lat="42.86934" lon="0.21608">
        <ele>2683</ele>
        <time>2022-02-13T11:47:34Z</time>
      </trkpt>
      <trkpt lat="42.86934" lon="0.21614">
        <ele>2683</ele>
        <time>2022-02-13T11:47:36Z</time>
      </trkpt>
      <trkpt lat="42.86923" lon="0.21615">
        <ele>2675</ele>
        <time>2022-02-13T11:47:40Z</time>
      </trkpt>
      <trkpt lat="42.8692" lon="0.21613">
        <ele>2675</ele>
        <time>2022-02-13T11:47:42Z</time>
      </trkpt>
      <trkpt lat="42.86914" lon="0.21634">
        <ele>2670</ele>
        <time>2022-02-13T11:47:50Z</time>
      </trkpt>
      <trkpt lat="42.86913" lon="0.21648">
        <ele>2667</ele>
        <time>2022-02-13T11:47:54Z</time>
      </trkpt>
      <trkpt lat="42.86903" lon="0.21646">
        <ele>2660</ele>
        <time>2022-02-13T11:47:58Z</time>
      </trkpt>
      <trkpt lat="42.86901" lon="0.21644">
        <ele>2661</ele>
        <time>2022-02-13T11:47:59Z</time>
      </trkpt>
      <trkpt lat="42.86894" lon="0.21638">
        <ele>2658</ele>
        <time>2022-02-13T11:48:04Z</time>
      </trkpt>
      <trkpt lat="42.86889" lon="0.21648">
        <ele>2656</ele>
        <time>2022-02-13T11:48:08Z</time>
      </trkpt>
      <trkpt lat="42.86888" lon="0.21657">
        <ele>2656</ele>
        <time>2022-02-13T11:48:11Z</time>
      </trkpt>
      <trkpt lat="42.86882" lon="0.2166">
        <ele>2648</ele>
        <time>2022-02-13T11:48:14Z</time>
      </trkpt>
      <trkpt lat="42.86879" lon="0.21658">
        <ele>2648</ele>
        <time>2022-02-13T11:48:15Z</time>
      </trkpt>
      <trkpt lat="42.86863" lon="0.21644">
        <ele>2647</ele>
        <time>2022-02-13T11:48:24Z</time>
      </trkpt>
      <trkpt lat="42.8686" lon="0.21645">
        <ele>2645</ele>
        <time>2022-02-13T11:48:26Z</time>
      </trkpt>
      <trkpt lat="42.86859" lon="0.21651">
        <ele>2645</ele>
        <time>2022-02-13T11:48:28Z</time>
      </trkpt>
      <trkpt lat="42.86857" lon="0.2166">
        <ele>2649</ele>
        <time>2022-02-13T11:48:31Z</time>
      </trkpt>
      <trkpt lat="42.86856" lon="0.21664">
        <ele>2645</ele>
        <time>2022-02-13T11:48:33Z</time>
      </trkpt>
      <trkpt lat="42.86856" lon="0.21667">
        <ele>2639</ele>
        <time>2022-02-13T11:48:35Z</time>
      </trkpt>
      <trkpt lat="42.86854" lon="0.21675">
        <ele>2638</ele>
        <time>2022-02-13T11:48:38Z</time>
      </trkpt>
      <trkpt lat="42.86844" lon="0.21675">
        <ele>2635</ele>
        <time>2022-02-13T11:48:42Z</time>
      </trkpt>
      <trkpt lat="42.86837" lon="0.21667">
        <ele>2634</ele>
        <time>2022-02-13T11:48:46Z</time>
      </trkpt>
      <trkpt lat="42.86834" lon="0.21667">
        <ele>2630</ele>
        <time>2022-02-13T11:48:48Z</time>
      </trkpt>
      <trkpt lat="42.86831" lon="0.21682">
        <ele>2629</ele>
        <time>2022-02-13T11:48:52Z</time>
      </trkpt>
      <trkpt lat="42.86816" lon="0.21673">
        <ele>2626</ele>
        <time>2022-02-13T11:49:00Z</time>
      </trkpt>
      <trkpt lat="42.86814" lon="0.21673">
        <ele>2620</ele>
        <time>2022-02-13T11:49:01Z</time>
      </trkpt>
      <trkpt lat="42.86812" lon="0.21675">
        <ele>2616</ele>
        <time>2022-02-13T11:49:02Z</time>
      </trkpt>
      <trkpt lat="42.86811" lon="0.21677">
        <ele>2620</ele>
        <time>2022-02-13T11:49:03Z</time>
      </trkpt>
      <trkpt lat="42.8681" lon="0.2168">
        <ele>2622</ele>
        <time>2022-02-13T11:49:04Z</time>
      </trkpt>
      <trkpt lat="42.86807" lon="0.21692">
        <ele>2614</ele>
        <time>2022-02-13T11:49:08Z</time>
      </trkpt>
      <trkpt lat="42.86807" lon="0.21694">
        <ele>2616</ele>
        <time>2022-02-13T11:49:09Z</time>
      </trkpt>
      <trkpt lat="42.86806" lon="0.21695">
        <ele>2615</ele>
        <time>2022-02-13T11:49:11Z</time>
      </trkpt>
      <trkpt lat="42.86803" lon="0.21701">
        <ele>2616</ele>
        <time>2022-02-13T11:49:15Z</time>
      </trkpt>
      <trkpt lat="42.86802" lon="0.21707">
        <ele>2616</ele>
        <time>2022-02-13T11:49:17Z</time>
      </trkpt>
      <trkpt lat="42.86796" lon="0.21709">
        <ele>2611</ele>
        <time>2022-02-13T11:49:19Z</time>
      </trkpt>
      <trkpt lat="42.86794" lon="0.21707">
        <ele>2614</ele>
        <time>2022-02-13T11:49:20Z</time>
      </trkpt>
      <trkpt lat="42.86781" lon="0.21697">
        <ele>2610</ele>
        <time>2022-02-13T11:49:27Z</time>
      </trkpt>
      <trkpt lat="42.86777" lon="0.21696">
        <ele>2607</ele>
        <time>2022-02-13T11:49:29Z</time>
      </trkpt>
      <trkpt lat="42.86775" lon="0.217">
        <ele>2610</ele>
        <time>2022-02-13T11:49:32Z</time>
      </trkpt>
      <trkpt lat="42.86774" lon="0.21719">
        <ele>2606</ele>
        <time>2022-02-13T11:49:38Z</time>
      </trkpt>
      <trkpt lat="42.86769" lon="0.21722">
        <ele>2600</ele>
        <time>2022-02-13T11:49:40Z</time>
      </trkpt>
      <trkpt lat="42.86768" lon="0.21721">
        <ele>2604</ele>
        <time>2022-02-13T11:49:41Z</time>
      </trkpt>
      <trkpt lat="42.86765" lon="0.21717">
        <ele>2600</ele>
        <time>2022-02-13T11:49:46Z</time>
      </trkpt>
      <trkpt lat="42.86763" lon="0.21717">
        <ele>2598</ele>
        <time>2022-02-13T11:49:47Z</time>
      </trkpt>
      <trkpt lat="42.8676" lon="0.21721">
        <ele>2598</ele>
        <time>2022-02-13T11:49:49Z</time>
      </trkpt>
      <trkpt lat="42.8676" lon="0.21732">
        <ele>2598</ele>
        <time>2022-02-13T11:49:57Z</time>
      </trkpt>
      <trkpt lat="42.86762" lon="0.21747">
        <ele>2599</ele>
        <time>2022-02-13T11:50:03Z</time>
      </trkpt>
      <trkpt lat="42.86765" lon="0.21759">
        <ele>2595</ele>
        <time>2022-02-13T11:50:06Z</time>
      </trkpt>
      <trkpt lat="42.86768" lon="0.21768">
        <ele>2593</ele>
        <time>2022-02-13T11:50:09Z</time>
      </trkpt>
      <trkpt lat="42.86768" lon="0.21771">
        <ele>2591</ele>
        <time>2022-02-13T11:50:10Z</time>
      </trkpt>
      <trkpt lat="42.86765" lon="0.21781">
        <ele>2587</ele>
        <time>2022-02-13T11:50:13Z</time>
      </trkpt>
      <trkpt lat="42.86763" lon="0.21784">
        <ele>2587</ele>
        <time>2022-02-13T11:50:14Z</time>
      </trkpt>
      <trkpt lat="42.86759" lon="0.21802">
        <ele>2583</ele>
        <time>2022-02-13T11:50:20Z</time>
      </trkpt>
      <trkpt lat="42.86764" lon="0.21814">
        <ele>2581</ele>
        <time>2022-02-13T11:50:23Z</time>
      </trkpt>
      <trkpt lat="42.86749" lon="0.21816">
        <ele>2577</ele>
        <time>2022-02-13T11:50:28Z</time>
      </trkpt>
      <trkpt lat="42.86746" lon="0.21816">
        <ele>2573</ele>
        <time>2022-02-13T11:50:29Z</time>
      </trkpt>
      <trkpt lat="42.86744" lon="0.21817">
        <ele>2575</ele>
        <time>2022-02-13T11:50:30Z</time>
      </trkpt>
      <trkpt lat="42.86743" lon="0.21826">
        <ele>2571</ele>
        <time>2022-02-13T11:50:33Z</time>
      </trkpt>
      <trkpt lat="42.86746" lon="0.21833">
        <ele>2569</ele>
        <time>2022-02-13T11:50:34Z</time>
      </trkpt>
      <trkpt lat="42.86754" lon="0.21855">
        <ele>2567</ele>
        <time>2022-02-13T11:50:38Z</time>
      </trkpt>
      <trkpt lat="42.86756" lon="0.21859">
        <ele>2566</ele>
        <time>2022-02-13T11:50:39Z</time>
      </trkpt>
      <trkpt lat="42.86753" lon="0.21867">
        <ele>2557</ele>
        <time>2022-02-13T11:50:41Z</time>
      </trkpt>
      <trkpt lat="42.8675" lon="0.21867">
        <ele>2561</ele>
        <time>2022-02-13T11:50:42Z</time>
      </trkpt>
      <trkpt lat="42.86746" lon="0.21866">
        <ele>2562</ele>
        <time>2022-02-13T11:50:44Z</time>
      </trkpt>
      <trkpt lat="42.86746" lon="0.21866">
        <ele>2561</ele>
        <time>2022-02-13T11:50:46Z</time>
      </trkpt>
      <trkpt lat="42.86741" lon="0.21863">
        <ele>2557</ele>
        <time>2022-02-13T11:50:58Z</time>
      </trkpt>
      <trkpt lat="42.86731" lon="0.21861">
        <ele>2556</ele>
        <time>2022-02-13T11:51:04Z</time>
      </trkpt>
      <trkpt lat="42.86724" lon="0.21863">
        <ele>2550</ele>
        <time>2022-02-13T11:51:09Z</time>
      </trkpt>
      <trkpt lat="42.8673" lon="0.21873">
        <ele>2551</ele>
        <time>2022-02-13T11:51:15Z</time>
      </trkpt>
      <trkpt lat="42.86733" lon="0.21881">
        <ele>2550</ele>
        <time>2022-02-13T11:51:20Z</time>
      </trkpt>
      <trkpt lat="42.86733" lon="0.21882">
        <ele>2551</ele>
        <time>2022-02-13T11:51:21Z</time>
      </trkpt>
      <trkpt lat="42.8673" lon="0.21886">
        <ele>2548</ele>
        <time>2022-02-13T11:51:23Z</time>
      </trkpt>
      <trkpt lat="42.86724" lon="0.21886">
        <ele>2546</ele>
        <time>2022-02-13T11:51:25Z</time>
      </trkpt>
      <trkpt lat="42.86719" lon="0.21886">
        <ele>2546</ele>
        <time>2022-02-13T11:51:28Z</time>
      </trkpt>
      <trkpt lat="42.86707" lon="0.21896">
        <ele>2545</ele>
        <time>2022-02-13T11:51:35Z</time>
      </trkpt>
      <trkpt lat="42.86706" lon="0.21894">
        <ele>2547</ele>
        <time>2022-02-13T11:51:41Z</time>
      </trkpt>
      <trkpt lat="42.86706" lon="0.21894">
        <ele>2546</ele>
        <time>2022-02-13T11:51:56Z</time>
      </trkpt>
      <trkpt lat="42.86707" lon="0.21893">
        <ele>2548</ele>
        <time>2022-02-13T11:52:14Z</time>
      </trkpt>
      <trkpt lat="42.86708" lon="0.21895">
        <ele>2548</ele>
        <time>2022-02-13T11:52:36Z</time>
      </trkpt>
      <trkpt lat="42.86706" lon="0.2189">
        <ele>2547</ele>
        <time>2022-02-13T11:52:54Z</time>
      </trkpt>
      <trkpt lat="42.86706" lon="0.21887">
        <ele>2546</ele>
        <time>2022-02-13T11:52:57Z</time>
      </trkpt>
      <trkpt lat="42.86698" lon="0.21878">
        <ele>2544</ele>
        <time>2022-02-13T11:53:04Z</time>
      </trkpt>
      <trkpt lat="42.86688" lon="0.21883">
        <ele>2539</ele>
        <time>2022-02-13T11:53:08Z</time>
      </trkpt>
      <trkpt lat="42.86681" lon="0.21887">
        <ele>2538</ele>
        <time>2022-02-13T11:53:11Z</time>
      </trkpt>
      <trkpt lat="42.86663" lon="0.21893">
        <ele>2539</ele>
        <time>2022-02-13T11:53:19Z</time>
      </trkpt>
      <trkpt lat="42.86655" lon="0.21904">
        <ele>2543</ele>
        <time>2022-02-13T11:53:22Z</time>
      </trkpt>
      <trkpt lat="42.86651" lon="0.21917">
        <ele>2539</ele>
        <time>2022-02-13T11:53:25Z</time>
      </trkpt>
      <trkpt lat="42.86648" lon="0.21927">
        <ele>2537</ele>
        <time>2022-02-13T11:53:27Z</time>
      </trkpt>
      <trkpt lat="42.86644" lon="0.21939">
        <ele>2531</ele>
        <time>2022-02-13T11:53:29Z</time>
      </trkpt>
      <trkpt lat="42.86641" lon="0.21945">
        <ele>2528</ele>
        <time>2022-02-13T11:53:30Z</time>
      </trkpt>
      <trkpt lat="42.86629" lon="0.21963">
        <ele>2523</ele>
        <time>2022-02-13T11:53:34Z</time>
      </trkpt>
      <trkpt lat="42.86626" lon="0.21968">
        <ele>2525</ele>
        <time>2022-02-13T11:53:35Z</time>
      </trkpt>
      <trkpt lat="42.86613" lon="0.21981">
        <ele>2520</ele>
        <time>2022-02-13T11:53:39Z</time>
      </trkpt>
      <trkpt lat="42.8661" lon="0.21984">
        <ele>2520</ele>
        <time>2022-02-13T11:53:40Z</time>
      </trkpt>
      <trkpt lat="42.86605" lon="0.21984">
        <ele>2519</ele>
        <time>2022-02-13T11:53:41Z</time>
      </trkpt>
      <trkpt lat="42.86601" lon="0.21979">
        <ele>2524</ele>
        <time>2022-02-13T11:53:43Z</time>
      </trkpt>
      <trkpt lat="42.86601" lon="0.21974">
        <ele>2521</ele>
        <time>2022-02-13T11:53:44Z</time>
      </trkpt>
      <trkpt lat="42.86603" lon="0.21959">
        <ele>2520</ele>
        <time>2022-02-13T11:53:47Z</time>
      </trkpt>
      <trkpt lat="42.86598" lon="0.21948">
        <ele>2513</ele>
        <time>2022-02-13T11:53:51Z</time>
      </trkpt>
      <trkpt lat="42.86593" lon="0.21952">
        <ele>2510</ele>
        <time>2022-02-13T11:53:53Z</time>
      </trkpt>
      <trkpt lat="42.86589" lon="0.21954">
        <ele>2510</ele>
        <time>2022-02-13T11:53:54Z</time>
      </trkpt>
      <trkpt lat="42.86579" lon="0.21961">
        <ele>2506</ele>
        <time>2022-02-13T11:53:57Z</time>
      </trkpt>
      <trkpt lat="42.86577" lon="0.21963">
        <ele>2505</ele>
        <time>2022-02-13T11:53:58Z</time>
      </trkpt>
      <trkpt lat="42.86572" lon="0.21965">
        <ele>2500</ele>
        <time>2022-02-13T11:54:00Z</time>
      </trkpt>
      <trkpt lat="42.86569" lon="0.21967">
        <ele>2498</ele>
        <time>2022-02-13T11:54:02Z</time>
      </trkpt>
      <trkpt lat="42.86565" lon="0.21968">
        <ele>2502</ele>
        <time>2022-02-13T11:54:04Z</time>
      </trkpt>
      <trkpt lat="42.86554" lon="0.21974">
        <ele>2501</ele>
        <time>2022-02-13T11:54:10Z</time>
      </trkpt>
      <trkpt lat="42.86546" lon="0.21977">
        <ele>2498</ele>
        <time>2022-02-13T11:54:14Z</time>
      </trkpt>
      <trkpt lat="42.86524" lon="0.21989">
        <ele>2502</ele>
        <time>2022-02-13T11:54:24Z</time>
      </trkpt>
      <trkpt lat="42.8652" lon="0.21991">
        <ele>2499</ele>
        <time>2022-02-13T11:54:25Z</time>
      </trkpt>
      <trkpt lat="42.86517" lon="0.21993">
        <ele>2500</ele>
        <time>2022-02-13T11:54:26Z</time>
      </trkpt>
      <trkpt lat="42.86508" lon="0.22002">
        <ele>2503</ele>
        <time>2022-02-13T11:54:28Z</time>
      </trkpt>
      <trkpt lat="42.86498" lon="0.22012">
        <ele>2497</ele>
        <time>2022-02-13T11:54:30Z</time>
      </trkpt>
      <trkpt lat="42.8647" lon="0.22038">
        <ele>2494</ele>
        <time>2022-02-13T11:54:34Z</time>
      </trkpt>
      <trkpt lat="42.86455" lon="0.22044">
        <ele>2490</ele>
        <time>2022-02-13T11:54:37Z</time>
      </trkpt>
      <trkpt lat="42.86446" lon="0.22049">
        <ele>2495</ele>
        <time>2022-02-13T11:54:39Z</time>
      </trkpt>
      <trkpt lat="42.86441" lon="0.22052">
        <ele>2495</ele>
        <time>2022-02-13T11:54:40Z</time>
      </trkpt>
      <trkpt lat="42.86436" lon="0.22052">
        <ele>2486</ele>
        <time>2022-02-13T11:54:41Z</time>
      </trkpt>
      <trkpt lat="42.86432" lon="0.22051">
        <ele>2484</ele>
        <time>2022-02-13T11:54:42Z</time>
      </trkpt>
      <trkpt lat="42.86419" lon="0.22048">
        <ele>2482</ele>
        <time>2022-02-13T11:54:46Z</time>
      </trkpt>
      <trkpt lat="42.86414" lon="0.22051">
        <ele>2484</ele>
        <time>2022-02-13T11:54:48Z</time>
      </trkpt>
      <trkpt lat="42.86421" lon="0.2205">
        <ele>2482</ele>
        <time>2022-02-13T11:54:55Z</time>
      </trkpt>
      <trkpt lat="42.86423" lon="0.2205">
        <ele>2485</ele>
        <time>2022-02-13T11:55:00Z</time>
      </trkpt>
      <trkpt lat="42.86425" lon="0.2205">
        <ele>2484</ele>
        <time>2022-02-13T11:55:04Z</time>
      </trkpt>
      <trkpt lat="42.86428" lon="0.22053">
        <ele>2484</ele>
        <time>2022-02-13T11:55:18Z</time>
      </trkpt>
      <trkpt lat="42.86432" lon="0.22056">
        <ele>2484</ele>
        <time>2022-02-13T11:55:36Z</time>
      </trkpt>
      <trkpt lat="42.86432" lon="0.22059">
        <ele>2483</ele>
        <time>2022-02-13T11:55:42Z</time>
      </trkpt>
      <trkpt lat="42.86422" lon="0.22068">
        <ele>2478</ele>
        <time>2022-02-13T11:55:47Z</time>
      </trkpt>
      <trkpt lat="42.86418" lon="0.22066">
        <ele>2475</ele>
        <time>2022-02-13T11:55:48Z</time>
      </trkpt>
      <trkpt lat="42.8641" lon="0.22064">
        <ele>2470</ele>
        <time>2022-02-13T11:55:50Z</time>
      </trkpt>
      <trkpt lat="42.86408" lon="0.22068">
        <ele>2479</ele>
        <time>2022-02-13T11:55:51Z</time>
      </trkpt>
      <trkpt lat="42.86406" lon="0.22071">
        <ele>2476</ele>
        <time>2022-02-13T11:55:52Z</time>
      </trkpt>
      <trkpt lat="42.86402" lon="0.22078">
        <ele>2471</ele>
        <time>2022-02-13T11:55:54Z</time>
      </trkpt>
      <trkpt lat="42.86388" lon="0.22093">
        <ele>2460</ele>
        <time>2022-02-13T11:55:59Z</time>
      </trkpt>
      <trkpt lat="42.8638" lon="0.221">
        <ele>2463</ele>
        <time>2022-02-13T11:56:02Z</time>
      </trkpt>
      <trkpt lat="42.86376" lon="0.22108">
        <ele>2459</ele>
        <time>2022-02-13T11:56:04Z</time>
      </trkpt>
      <trkpt lat="42.8637" lon="0.22112">
        <ele>2456</ele>
        <time>2022-02-13T11:56:06Z</time>
      </trkpt>
      <trkpt lat="42.86368" lon="0.22115">
        <ele>2453</ele>
        <time>2022-02-13T11:56:07Z</time>
      </trkpt>
      <trkpt lat="42.86365" lon="0.22126">
        <ele>2454</ele>
        <time>2022-02-13T11:56:09Z</time>
      </trkpt>
      <trkpt lat="42.86359" lon="0.22133">
        <ele>2452</ele>
        <time>2022-02-13T11:56:11Z</time>
      </trkpt>
      <trkpt lat="42.86347" lon="0.22144">
        <ele>2446</ele>
        <time>2022-02-13T11:56:15Z</time>
      </trkpt>
      <trkpt lat="42.86336" lon="0.22148">
        <ele>2444</ele>
        <time>2022-02-13T11:56:18Z</time>
      </trkpt>
      <trkpt lat="42.8633" lon="0.22147">
        <ele>2443</ele>
        <time>2022-02-13T11:56:20Z</time>
      </trkpt>
      <trkpt lat="42.86327" lon="0.22147">
        <ele>2444</ele>
        <time>2022-02-13T11:56:32Z</time>
      </trkpt>
      <trkpt lat="42.86326" lon="0.22148">
        <ele>2443</ele>
        <time>2022-02-13T11:56:35Z</time>
      </trkpt>
      <trkpt lat="42.86322" lon="0.22149">
        <ele>2442</ele>
        <time>2022-02-13T11:56:38Z</time>
      </trkpt>
      <trkpt lat="42.86318" lon="0.22153">
        <ele>2441</ele>
        <time>2022-02-13T11:56:40Z</time>
      </trkpt>
      <trkpt lat="42.86317" lon="0.2216">
        <ele>2437</ele>
        <time>2022-02-13T11:56:42Z</time>
      </trkpt>
      <trkpt lat="42.8631" lon="0.22163">
        <ele>2433</ele>
        <time>2022-02-13T11:56:44Z</time>
      </trkpt>
      <trkpt lat="42.86298" lon="0.22158">
        <ele>2429</ele>
        <time>2022-02-13T11:56:48Z</time>
      </trkpt>
      <trkpt lat="42.86292" lon="0.22168">
        <ele>2425</ele>
        <time>2022-02-13T11:56:52Z</time>
      </trkpt>
      <trkpt lat="42.86285" lon="0.22165">
        <ele>2421</ele>
        <time>2022-02-13T11:56:55Z</time>
      </trkpt>
      <trkpt lat="42.86283" lon="0.22167">
        <ele>2421</ele>
        <time>2022-02-13T11:56:56Z</time>
      </trkpt>
      <trkpt lat="42.86282" lon="0.2217">
        <ele>2422</ele>
        <time>2022-02-13T11:56:57Z</time>
      </trkpt>
      <trkpt lat="42.8628" lon="0.22186">
        <ele>2417</ele>
        <time>2022-02-13T11:57:01Z</time>
      </trkpt>
      <trkpt lat="42.86282" lon="0.22197">
        <ele>2414</ele>
        <time>2022-02-13T11:57:04Z</time>
      </trkpt>
      <trkpt lat="42.86284" lon="0.22202">
        <ele>2413</ele>
        <time>2022-02-13T11:57:06Z</time>
      </trkpt>
      <trkpt lat="42.86285" lon="0.22209">
        <ele>2412</ele>
        <time>2022-02-13T11:57:08Z</time>
      </trkpt>
      <trkpt lat="42.86273" lon="0.22213">
        <ele>2404</ele>
        <time>2022-02-13T11:57:12Z</time>
      </trkpt>
      <trkpt lat="42.86271" lon="0.22215">
        <ele>2404</ele>
        <time>2022-02-13T11:57:13Z</time>
      </trkpt>
      <trkpt lat="42.86271" lon="0.22223">
        <ele>2401</ele>
        <time>2022-02-13T11:57:15Z</time>
      </trkpt>
      <trkpt lat="42.86272" lon="0.22225">
        <ele>2399</ele>
        <time>2022-02-13T11:57:16Z</time>
      </trkpt>
      <trkpt lat="42.86269" lon="0.22236">
        <ele>2394</ele>
        <time>2022-02-13T11:57:20Z</time>
      </trkpt>
      <trkpt lat="42.86264" lon="0.22233">
        <ele>2393</ele>
        <time>2022-02-13T11:57:22Z</time>
      </trkpt>
      <trkpt lat="42.86262" lon="0.2223">
        <ele>2393</ele>
        <time>2022-02-13T11:57:31Z</time>
      </trkpt>
      <trkpt lat="42.86261" lon="0.22231">
        <ele>2394</ele>
        <time>2022-02-13T11:57:47Z</time>
      </trkpt>
      <trkpt lat="42.86254" lon="0.22236">
        <ele>2393</ele>
        <time>2022-02-13T11:57:52Z</time>
      </trkpt>
      <trkpt lat="42.8625" lon="0.2224">
        <ele>2389</ele>
        <time>2022-02-13T11:57:55Z</time>
      </trkpt>
      <trkpt lat="42.8625" lon="0.22244">
        <ele>2389</ele>
        <time>2022-02-13T11:57:57Z</time>
      </trkpt>
      <trkpt lat="42.86254" lon="0.22256">
        <ele>2385</ele>
        <time>2022-02-13T11:58:02Z</time>
      </trkpt>
      <trkpt lat="42.8626" lon="0.22277">
        <ele>2381</ele>
        <time>2022-02-13T11:58:08Z</time>
      </trkpt>
      <trkpt lat="42.86261" lon="0.22281">
        <ele>2381</ele>
        <time>2022-02-13T11:58:09Z</time>
      </trkpt>
      <trkpt lat="42.86262" lon="0.22294">
        <ele>2378</ele>
        <time>2022-02-13T11:58:12Z</time>
      </trkpt>
      <trkpt lat="42.86264" lon="0.22298">
        <ele>2378</ele>
        <time>2022-02-13T11:58:13Z</time>
      </trkpt>
      <trkpt lat="42.86264" lon="0.22303">
        <ele>2377</ele>
        <time>2022-02-13T11:58:15Z</time>
      </trkpt>
      <trkpt lat="42.86258" lon="0.2231">
        <ele>2375</ele>
        <time>2022-02-13T11:58:18Z</time>
      </trkpt>
      <trkpt lat="42.86256" lon="0.22307">
        <ele>2371</ele>
        <time>2022-02-13T11:58:19Z</time>
      </trkpt>
      <trkpt lat="42.86247" lon="0.22302">
        <ele>2368</ele>
        <time>2022-02-13T11:58:23Z</time>
      </trkpt>
      <trkpt lat="42.86244" lon="0.22303">
        <ele>2368</ele>
        <time>2022-02-13T11:58:24Z</time>
      </trkpt>
      <trkpt lat="42.86235" lon="0.22313">
        <ele>2365</ele>
        <time>2022-02-13T11:58:29Z</time>
      </trkpt>
      <trkpt lat="42.86235" lon="0.22316">
        <ele>2364</ele>
        <time>2022-02-13T11:58:30Z</time>
      </trkpt>
      <trkpt lat="42.8623" lon="0.22331">
        <ele>2358</ele>
        <time>2022-02-13T11:58:34Z</time>
      </trkpt>
      <trkpt lat="42.86228" lon="0.22335">
        <ele>2358</ele>
        <time>2022-02-13T11:58:35Z</time>
      </trkpt>
      <trkpt lat="42.86223" lon="0.22343">
        <ele>2358</ele>
        <time>2022-02-13T11:58:37Z</time>
      </trkpt>
      <trkpt lat="42.86226" lon="0.2235">
        <ele>2353</ele>
        <time>2022-02-13T11:58:40Z</time>
      </trkpt>
      <trkpt lat="42.86227" lon="0.22353">
        <ele>2351</ele>
        <time>2022-02-13T11:58:41Z</time>
      </trkpt>
      <trkpt lat="42.8623" lon="0.22378">
        <ele>2351</ele>
        <time>2022-02-13T11:58:45Z</time>
      </trkpt>
      <trkpt lat="42.86231" lon="0.22406">
        <ele>2346</ele>
        <time>2022-02-13T11:58:50Z</time>
      </trkpt>
      <trkpt lat="42.86228" lon="0.22419">
        <ele>2343</ele>
        <time>2022-02-13T11:58:57Z</time>
      </trkpt>
      <trkpt lat="42.86227" lon="0.22419">
        <ele>2343</ele>
        <time>2022-02-13T11:58:58Z</time>
      </trkpt>
      <trkpt lat="42.86219" lon="0.22431">
        <ele>2339</ele>
        <time>2022-02-13T11:59:04Z</time>
      </trkpt>
      <trkpt lat="42.86213" lon="0.22436">
        <ele>2337</ele>
        <time>2022-02-13T11:59:07Z</time>
      </trkpt>
      <trkpt lat="42.86205" lon="0.22451">
        <ele>2334</ele>
        <time>2022-02-13T11:59:11Z</time>
      </trkpt>
      <trkpt lat="42.86204" lon="0.22464">
        <ele>2333</ele>
        <time>2022-02-13T11:59:20Z</time>
      </trkpt>
      <trkpt lat="42.86199" lon="0.22468">
        <ele>2333</ele>
        <time>2022-02-13T11:59:30Z</time>
      </trkpt>
      <trkpt lat="42.86178" lon="0.22484">
        <ele>2328</ele>
        <time>2022-02-13T11:59:35Z</time>
      </trkpt>
      <trkpt lat="42.86171" lon="0.22497">
        <ele>2324</ele>
        <time>2022-02-13T11:59:38Z</time>
      </trkpt>
      <trkpt lat="42.86166" lon="0.22516">
        <ele>2322</ele>
        <time>2022-02-13T11:59:42Z</time>
      </trkpt>
      <trkpt lat="42.86169" lon="0.2252">
        <ele>2322</ele>
        <time>2022-02-13T11:59:52Z</time>
      </trkpt>
      <trkpt lat="42.86169" lon="0.22521">
        <ele>2322</ele>
        <time>2022-02-13T12:00:13Z</time>
      </trkpt>
      <trkpt lat="42.86169" lon="0.22521">
        <ele>2321</ele>
        <time>2022-02-13T12:00:32Z</time>
      </trkpt>
      <trkpt lat="42.86168" lon="0.22522">
        <ele>2321</ele>
        <time>2022-02-13T12:00:51Z</time>
      </trkpt>
      <trkpt lat="42.86167" lon="0.22523">
        <ele>2320</ele>
        <time>2022-02-13T12:01:18Z</time>
      </trkpt>
      <trkpt lat="42.86168" lon="0.22524">
        <ele>2321</ele>
        <time>2022-02-13T12:01:44Z</time>
      </trkpt>
      <trkpt lat="42.86167" lon="0.22523">
        <ele>2322</ele>
        <time>2022-02-13T12:02:04Z</time>
      </trkpt>
      <trkpt lat="42.86167" lon="0.22526">
        <ele>2320</ele>
        <time>2022-02-13T12:02:12Z</time>
      </trkpt>
      <trkpt lat="42.86163" lon="0.22552">
        <ele>2318</ele>
        <time>2022-02-13T12:02:20Z</time>
      </trkpt>
      <trkpt lat="42.86162" lon="0.2257">
        <ele>2315</ele>
        <time>2022-02-13T12:02:24Z</time>
      </trkpt>
      <trkpt lat="42.86154" lon="0.22591">
        <ele>2314</ele>
        <time>2022-02-13T12:02:29Z</time>
      </trkpt>
      <trkpt lat="42.86146" lon="0.22626">
        <ele>2306</ele>
        <time>2022-02-13T12:02:33Z</time>
      </trkpt>
      <trkpt lat="42.86137" lon="0.22651">
        <ele>2305</ele>
        <time>2022-02-13T12:02:36Z</time>
      </trkpt>
      <trkpt lat="42.8613" lon="0.2269">
        <ele>2305</ele>
        <time>2022-02-13T12:02:44Z</time>
      </trkpt>
      <trkpt lat="42.86129" lon="0.22721">
        <ele>2302</ele>
        <time>2022-02-13T12:02:50Z</time>
      </trkpt>
      <trkpt lat="42.86133" lon="0.22739">
        <ele>2301</ele>
        <time>2022-02-13T12:02:56Z</time>
      </trkpt>
      <trkpt lat="42.86134" lon="0.22749">
        <ele>2297</ele>
        <time>2022-02-13T12:03:00Z</time>
      </trkpt>
      <trkpt lat="42.86134" lon="0.22756">
        <ele>2297</ele>
        <time>2022-02-13T12:03:01Z</time>
      </trkpt>
      <trkpt lat="42.86131" lon="0.22776">
        <ele>2293</ele>
        <time>2022-02-13T12:03:04Z</time>
      </trkpt>
      <trkpt lat="42.86119" lon="0.22813">
        <ele>2291</ele>
        <time>2022-02-13T12:03:10Z</time>
      </trkpt>
      <trkpt lat="42.86115" lon="0.22827">
        <ele>2288</ele>
        <time>2022-02-13T12:03:13Z</time>
      </trkpt>
      <trkpt lat="42.86113" lon="0.22832">
        <ele>2288</ele>
        <time>2022-02-13T12:03:14Z</time>
      </trkpt>
      <trkpt lat="42.86103" lon="0.22872">
        <ele>2287</ele>
        <time>2022-02-13T12:03:26Z</time>
      </trkpt>
      <trkpt lat="42.861" lon="0.22885">
        <ele>2283</ele>
        <time>2022-02-13T12:03:31Z</time>
      </trkpt>
      <trkpt lat="42.86099" lon="0.22888">
        <ele>2287</ele>
        <time>2022-02-13T12:03:32Z</time>
      </trkpt>
      <trkpt lat="42.86099" lon="0.22891">
        <ele>2286</ele>
        <time>2022-02-13T12:03:33Z</time>
      </trkpt>
      <trkpt lat="42.86096" lon="0.22911">
        <ele>2282</ele>
        <time>2022-02-13T12:03:38Z</time>
      </trkpt>
      <trkpt lat="42.86097" lon="0.22916">
        <ele>2282</ele>
        <time>2022-02-13T12:03:39Z</time>
      </trkpt>
      <trkpt lat="42.86096" lon="0.22932">
        <ele>2281</ele>
        <time>2022-02-13T12:03:42Z</time>
      </trkpt>
      <trkpt lat="42.86091" lon="0.22976">
        <ele>2277</ele>
        <time>2022-02-13T12:03:50Z</time>
      </trkpt>
      <trkpt lat="42.8609" lon="0.22987">
        <ele>2276</ele>
        <time>2022-02-13T12:03:52Z</time>
      </trkpt>
      <trkpt lat="42.8609" lon="0.22992">
        <ele>2275</ele>
        <time>2022-02-13T12:03:53Z</time>
      </trkpt>
      <trkpt lat="42.86087" lon="0.23004">
        <ele>2273</ele>
        <time>2022-02-13T12:03:55Z</time>
      </trkpt>
      <trkpt lat="42.8608" lon="0.23048">
        <ele>2271</ele>
        <time>2022-02-13T12:04:05Z</time>
      </trkpt>
      <trkpt lat="42.86078" lon="0.23101">
        <ele>2268</ele>
        <time>2022-02-13T12:04:15Z</time>
      </trkpt>
      <trkpt lat="42.86076" lon="0.23122">
        <ele>2266</ele>
        <time>2022-02-13T12:04:18Z</time>
      </trkpt>
      <trkpt lat="42.86067" lon="0.23158">
        <ele>2262</ele>
        <time>2022-02-13T12:04:23Z</time>
      </trkpt>
      <trkpt lat="42.86065" lon="0.23166">
        <ele>2262</ele>
        <time>2022-02-13T12:04:24Z</time>
      </trkpt>
      <trkpt lat="42.86053" lon="0.23194">
        <ele>2259</ele>
        <time>2022-02-13T12:04:28Z</time>
      </trkpt>
      <trkpt lat="42.86042" lon="0.23212">
        <ele>2255</ele>
        <time>2022-02-13T12:04:31Z</time>
      </trkpt>
      <trkpt lat="42.8603" lon="0.23226">
        <ele>2253</ele>
        <time>2022-02-13T12:04:34Z</time>
      </trkpt>
      <trkpt lat="42.86007" lon="0.23259">
        <ele>2251</ele>
        <time>2022-02-13T12:04:45Z</time>
      </trkpt>
      <trkpt lat="42.85988" lon="0.23304">
        <ele>2247</ele>
        <time>2022-02-13T12:04:55Z</time>
      </trkpt>
      <trkpt lat="42.85986" lon="0.23309">
        <ele>2247</ele>
        <time>2022-02-13T12:04:56Z</time>
      </trkpt>
      <trkpt lat="42.85985" lon="0.23316">
        <ele>2246</ele>
        <time>2022-02-13T12:04:58Z</time>
      </trkpt>
      <trkpt lat="42.85984" lon="0.23316">
        <ele>2245</ele>
        <time>2022-02-13T12:05:11Z</time>
      </trkpt>
      <trkpt lat="42.85984" lon="0.23318">
        <ele>2246</ele>
        <time>2022-02-13T12:05:36Z</time>
      </trkpt>
      <trkpt lat="42.8598" lon="0.23332">
        <ele>2242</ele>
        <time>2022-02-13T12:05:40Z</time>
      </trkpt>
      <trkpt lat="42.85979" lon="0.23337">
        <ele>2242</ele>
        <time>2022-02-13T12:05:41Z</time>
      </trkpt>
      <trkpt lat="42.85967" lon="0.23366">
        <ele>2237</ele>
        <time>2022-02-13T12:05:46Z</time>
      </trkpt>
      <trkpt lat="42.85965" lon="0.23371">
        <ele>2238</ele>
        <time>2022-02-13T12:05:47Z</time>
      </trkpt>
      <trkpt lat="42.85948" lon="0.23408">
        <ele>2233</ele>
        <time>2022-02-13T12:05:53Z</time>
      </trkpt>
      <trkpt lat="42.85938" lon="0.23428">
        <ele>2230</ele>
        <time>2022-02-13T12:05:56Z</time>
      </trkpt>
      <trkpt lat="42.8593" lon="0.23442">
        <ele>2229</ele>
        <time>2022-02-13T12:05:58Z</time>
      </trkpt>
      <trkpt lat="42.85923" lon="0.23454">
        <ele>2228</ele>
        <time>2022-02-13T12:06:00Z</time>
      </trkpt>
      <trkpt lat="42.85908" lon="0.23479">
        <ele>2225</ele>
        <time>2022-02-13T12:06:04Z</time>
      </trkpt>
      <trkpt lat="42.85887" lon="0.2352">
        <ele>2222</ele>
        <time>2022-02-13T12:06:14Z</time>
      </trkpt>
      <trkpt lat="42.85886" lon="0.23518">
        <ele>2221</ele>
        <time>2022-02-13T12:06:24Z</time>
      </trkpt>
      <trkpt lat="42.85885" lon="0.23526">
        <ele>2219</ele>
        <time>2022-02-13T12:06:27Z</time>
      </trkpt>
      <trkpt lat="42.85884" lon="0.23546">
        <ele>2217</ele>
        <time>2022-02-13T12:06:31Z</time>
      </trkpt>
      <trkpt lat="42.85883" lon="0.23552">
        <ele>2216</ele>
        <time>2022-02-13T12:06:32Z</time>
      </trkpt>
      <trkpt lat="42.85879" lon="0.23564">
        <ele>2216</ele>
        <time>2022-02-13T12:06:34Z</time>
      </trkpt>
      <trkpt lat="42.8587" lon="0.23587">
        <ele>2213</ele>
        <time>2022-02-13T12:06:38Z</time>
      </trkpt>
      <trkpt lat="42.85856" lon="0.23599">
        <ele>2211</ele>
        <time>2022-02-13T12:06:43Z</time>
      </trkpt>
      <trkpt lat="42.8585" lon="0.2361">
        <ele>2207</ele>
        <time>2022-02-13T12:06:50Z</time>
      </trkpt>
      <trkpt lat="42.85848" lon="0.23613">
        <ele>2206</ele>
        <time>2022-02-13T12:06:51Z</time>
      </trkpt>
      <trkpt lat="42.85844" lon="0.23631">
        <ele>2203</ele>
        <time>2022-02-13T12:06:55Z</time>
      </trkpt>
      <trkpt lat="42.85843" lon="0.23645">
        <ele>2203</ele>
        <time>2022-02-13T12:06:59Z</time>
      </trkpt>
      <trkpt lat="42.85844" lon="0.23652">
        <ele>2203</ele>
        <time>2022-02-13T12:07:10Z</time>
      </trkpt>
      <trkpt lat="42.85846" lon="0.23654">
        <ele>2204</ele>
        <time>2022-02-13T12:07:25Z</time>
      </trkpt>
      <trkpt lat="42.85852" lon="0.23663">
        <ele>2202</ele>
        <time>2022-02-13T12:07:29Z</time>
      </trkpt>
      <trkpt lat="42.85856" lon="0.23673">
        <ele>2200</ele>
        <time>2022-02-13T12:07:32Z</time>
      </trkpt>
      <trkpt lat="42.85862" lon="0.23688">
        <ele>2200</ele>
        <time>2022-02-13T12:07:36Z</time>
      </trkpt>
      <trkpt lat="42.85855" lon="0.23695">
        <ele>2193</ele>
        <time>2022-02-13T12:07:40Z</time>
      </trkpt>
      <trkpt lat="42.85849" lon="0.23701">
        <ele>2189</ele>
        <time>2022-02-13T12:07:43Z</time>
      </trkpt>
      <trkpt lat="42.85844" lon="0.23701">
        <ele>2185</ele>
        <time>2022-02-13T12:07:45Z</time>
      </trkpt>
      <trkpt lat="42.85836" lon="0.23707">
        <ele>2180</ele>
        <time>2022-02-13T12:07:48Z</time>
      </trkpt>
      <trkpt lat="42.85831" lon="0.23706">
        <ele>2176</ele>
        <time>2022-02-13T12:07:50Z</time>
      </trkpt>
      <trkpt lat="42.85824" lon="0.23712">
        <ele>2172</ele>
        <time>2022-02-13T12:07:53Z</time>
      </trkpt>
      <trkpt lat="42.85815" lon="0.23706">
        <ele>2168</ele>
        <time>2022-02-13T12:07:57Z</time>
      </trkpt>
      <trkpt lat="42.85811" lon="0.23711">
        <ele>2164</ele>
        <time>2022-02-13T12:07:59Z</time>
      </trkpt>
      <trkpt lat="42.85812" lon="0.23724">
        <ele>2161</ele>
        <time>2022-02-13T12:08:02Z</time>
      </trkpt>
      <trkpt lat="42.85807" lon="0.23726">
        <ele>2159</ele>
        <time>2022-02-13T12:08:04Z</time>
      </trkpt>
      <trkpt lat="42.85801" lon="0.23723">
        <ele>2157</ele>
        <time>2022-02-13T12:08:06Z</time>
      </trkpt>
      <trkpt lat="42.85797" lon="0.23732">
        <ele>2152</ele>
        <time>2022-02-13T12:08:09Z</time>
      </trkpt>
      <trkpt lat="42.85792" lon="0.23738">
        <ele>2148</ele>
        <time>2022-02-13T12:08:12Z</time>
      </trkpt>
      <trkpt lat="42.8579" lon="0.23734">
        <ele>2146</ele>
        <time>2022-02-13T12:08:14Z</time>
      </trkpt>
      <trkpt lat="42.85789" lon="0.23734">
        <ele>2146</ele>
        <time>2022-02-13T12:08:29Z</time>
      </trkpt>
      <trkpt lat="42.85789" lon="0.23734">
        <ele>2146</ele>
        <time>2022-02-13T12:08:32Z</time>
      </trkpt>
      <trkpt lat="42.85784" lon="0.23732">
        <ele>2145</ele>
        <time>2022-02-13T12:08:35Z</time>
      </trkpt>
      <trkpt lat="42.85783" lon="0.23734">
        <ele>2144</ele>
        <time>2022-02-13T12:08:36Z</time>
      </trkpt>
      <trkpt lat="42.85777" lon="0.23742">
        <ele>2139</ele>
        <time>2022-02-13T12:08:39Z</time>
      </trkpt>
      <trkpt lat="42.85771" lon="0.23738">
        <ele>2135</ele>
        <time>2022-02-13T12:08:41Z</time>
      </trkpt>
      <trkpt lat="42.85769" lon="0.2374">
        <ele>2136</ele>
        <time>2022-02-13T12:08:42Z</time>
      </trkpt>
      <trkpt lat="42.85767" lon="0.23746">
        <ele>2133</ele>
        <time>2022-02-13T12:08:44Z</time>
      </trkpt>
      <trkpt lat="42.85765" lon="0.23748">
        <ele>2133</ele>
        <time>2022-02-13T12:08:45Z</time>
      </trkpt>
      <trkpt lat="42.8576" lon="0.23747">
        <ele>2128</ele>
        <time>2022-02-13T12:08:48Z</time>
      </trkpt>
      <trkpt lat="42.85758" lon="0.23747">
        <ele>2129</ele>
        <time>2022-02-13T12:08:50Z</time>
      </trkpt>
      <trkpt lat="42.85756" lon="0.23758">
        <ele>2126</ele>
        <time>2022-02-13T12:08:54Z</time>
      </trkpt>
      <trkpt lat="42.85757" lon="0.23768">
        <ele>2124</ele>
        <time>2022-02-13T12:08:56Z</time>
      </trkpt>
      <trkpt lat="42.8576" lon="0.23805">
        <ele>2122</ele>
        <time>2022-02-13T12:09:06Z</time>
      </trkpt>
      <trkpt lat="42.85762" lon="0.23804">
        <ele>2121</ele>
        <time>2022-02-13T12:09:20Z</time>
      </trkpt>
      <trkpt lat="42.85762" lon="0.23803">
        <ele>2122</ele>
        <time>2022-02-13T12:09:43Z</time>
      </trkpt>
      <trkpt lat="42.85764" lon="0.23803">
        <ele>2122</ele>
        <time>2022-02-13T12:10:04Z</time>
      </trkpt>
      <trkpt lat="42.85766" lon="0.23802">
        <ele>2122</ele>
        <time>2022-02-13T12:10:23Z</time>
      </trkpt>
      <trkpt lat="42.85765" lon="0.23809">
        <ele>2122</ele>
        <time>2022-02-13T12:10:42Z</time>
      </trkpt>
      <trkpt lat="42.85767" lon="0.23809">
        <ele>2122</ele>
        <time>2022-02-13T12:11:06Z</time>
      </trkpt>
      <trkpt lat="42.85775" lon="0.2382">
        <ele>2120</ele>
        <time>2022-02-13T12:11:21Z</time>
      </trkpt>
      <trkpt lat="42.85778" lon="0.23829">
        <ele>2119</ele>
        <time>2022-02-13T12:11:23Z</time>
      </trkpt>
      <trkpt lat="42.85772" lon="0.23843">
        <ele>2115</ele>
        <time>2022-02-13T12:11:26Z</time>
      </trkpt>
      <trkpt lat="42.85767" lon="0.23847">
        <ele>2115</ele>
        <time>2022-02-13T12:11:27Z</time>
      </trkpt>
      <trkpt lat="42.85766" lon="0.23858">
        <ele>2111</ele>
        <time>2022-02-13T12:11:29Z</time>
      </trkpt>
      <trkpt lat="42.8577" lon="0.23876">
        <ele>2107</ele>
        <time>2022-02-13T12:11:32Z</time>
      </trkpt>
      <trkpt lat="42.85771" lon="0.23897">
        <ele>2103</ele>
        <time>2022-02-13T12:11:35Z</time>
      </trkpt>
      <trkpt lat="42.8577" lon="0.23904">
        <ele>2102</ele>
        <time>2022-02-13T12:11:36Z</time>
      </trkpt>
      <trkpt lat="42.85775" lon="0.23926">
        <ele>2097</ele>
        <time>2022-02-13T12:11:40Z</time>
      </trkpt>
      <trkpt lat="42.85773" lon="0.23948">
        <ele>2091</ele>
        <time>2022-02-13T12:11:44Z</time>
      </trkpt>
      <trkpt lat="42.85774" lon="0.23965">
        <ele>2087</ele>
        <time>2022-02-13T12:11:47Z</time>
      </trkpt>
      <trkpt lat="42.85772" lon="0.23976">
        <ele>2082</ele>
        <time>2022-02-13T12:11:49Z</time>
      </trkpt>
      <trkpt lat="42.85779" lon="0.23998">
        <ele>2076</ele>
        <time>2022-02-13T12:11:52Z</time>
      </trkpt>
      <trkpt lat="42.85777" lon="0.24009">
        <ele>2072</ele>
        <time>2022-02-13T12:11:54Z</time>
      </trkpt>
      <trkpt lat="42.85771" lon="0.24024">
        <ele>2067</ele>
        <time>2022-02-13T12:11:56Z</time>
      </trkpt>
      <trkpt lat="42.85772" lon="0.24034">
        <ele>2064</ele>
        <time>2022-02-13T12:11:57Z</time>
      </trkpt>
      <trkpt lat="42.8578" lon="0.24051">
        <ele>2060</ele>
        <time>2022-02-13T12:11:59Z</time>
      </trkpt>
      <trkpt lat="42.85796" lon="0.24061">
        <ele>2061</ele>
        <time>2022-02-13T12:12:06Z</time>
      </trkpt>
      <trkpt lat="42.85795" lon="0.24058">
        <ele>2061</ele>
        <time>2022-02-13T12:12:21Z</time>
      </trkpt>
      <trkpt lat="42.85786" lon="0.24066">
        <ele>2060</ele>
        <time>2022-02-13T12:12:25Z</time>
      </trkpt>
      <trkpt lat="42.85756" lon="0.24072">
        <ele>2055</ele>
        <time>2022-02-13T12:12:29Z</time>
      </trkpt>
      <trkpt lat="42.85731" lon="0.24074">
        <ele>2053</ele>
        <time>2022-02-13T12:12:32Z</time>
      </trkpt>
      <trkpt lat="42.85723" lon="0.24077">
        <ele>2055</ele>
        <time>2022-02-13T12:12:35Z</time>
      </trkpt>
      <trkpt lat="42.85721" lon="0.24082">
        <ele>2055</ele>
        <time>2022-02-13T12:12:37Z</time>
      </trkpt>
      <trkpt lat="42.85718" lon="0.24084">
        <ele>2054</ele>
        <time>2022-02-13T12:12:40Z</time>
      </trkpt>
      <trkpt lat="42.85722" lon="0.2409">
        <ele>2052</ele>
        <time>2022-02-13T12:12:44Z</time>
      </trkpt>
      <trkpt lat="42.85744" lon="0.24112">
        <ele>2050</ele>
        <time>2022-02-13T12:12:56Z</time>
      </trkpt>
      <trkpt lat="42.85746" lon="0.24115">
        <ele>2049</ele>
        <time>2022-02-13T12:12:58Z</time>
      </trkpt>
      <trkpt lat="42.85748" lon="0.24116">
        <ele>2049</ele>
        <time>2022-02-13T12:13:02Z</time>
      </trkpt>
      <trkpt lat="42.85746" lon="0.2412">
        <ele>2048</ele>
        <time>2022-02-13T12:13:04Z</time>
      </trkpt>
      <trkpt lat="42.8574" lon="0.24128">
        <ele>2045</ele>
        <time>2022-02-13T12:13:09Z</time>
      </trkpt>
      <trkpt lat="42.85741" lon="0.24133">
        <ele>2042</ele>
        <time>2022-02-13T12:13:20Z</time>
      </trkpt>
      <trkpt lat="42.85742" lon="0.24133">
        <ele>2042</ele>
        <time>2022-02-13T12:13:23Z</time>
      </trkpt>
      <trkpt lat="42.85762" lon="0.24135">
        <ele>2039</ele>
        <time>2022-02-13T12:13:30Z</time>
      </trkpt>
      <trkpt lat="42.85768" lon="0.2414">
        <ele>2038</ele>
        <time>2022-02-13T12:13:32Z</time>
      </trkpt>
      <trkpt lat="42.85768" lon="0.24154">
        <ele>2032</ele>
        <time>2022-02-13T12:13:35Z</time>
      </trkpt>
      <trkpt lat="42.85767" lon="0.24163">
        <ele>2027</ele>
        <time>2022-02-13T12:13:37Z</time>
      </trkpt>
      <trkpt lat="42.85771" lon="0.24171">
        <ele>2023</ele>
        <time>2022-02-13T12:13:39Z</time>
      </trkpt>
      <trkpt lat="42.85775" lon="0.24176">
        <ele>2022</ele>
        <time>2022-02-13T12:13:41Z</time>
      </trkpt>
      <trkpt lat="42.8578" lon="0.24187">
        <ele>2020</ele>
        <time>2022-02-13T12:13:44Z</time>
      </trkpt>
      <trkpt lat="42.85781" lon="0.24193">
        <ele>2016</ele>
        <time>2022-02-13T12:13:45Z</time>
      </trkpt>
      <trkpt lat="42.85778" lon="0.24204">
        <ele>2009</ele>
        <time>2022-02-13T12:13:48Z</time>
      </trkpt>
      <trkpt lat="42.85781" lon="0.24225">
        <ele>2003</ele>
        <time>2022-02-13T12:13:52Z</time>
      </trkpt>
      <trkpt lat="42.85783" lon="0.24234">
        <ele>1999</ele>
        <time>2022-02-13T12:13:54Z</time>
      </trkpt>
      <trkpt lat="42.85779" lon="0.24252">
        <ele>1991</ele>
        <time>2022-02-13T12:13:58Z</time>
      </trkpt>
      <trkpt lat="42.8578" lon="0.24257">
        <ele>1989</ele>
        <time>2022-02-13T12:13:59Z</time>
      </trkpt>
      <trkpt lat="42.8577" lon="0.24266">
        <ele>1985</ele>
        <time>2022-02-13T12:14:03Z</time>
      </trkpt>
      <trkpt lat="42.85763" lon="0.24261">
        <ele>1985</ele>
        <time>2022-02-13T12:14:16Z</time>
      </trkpt>
      <trkpt lat="42.85762" lon="0.24261">
        <ele>1984</ele>
        <time>2022-02-13T12:14:21Z</time>
      </trkpt>
      <trkpt lat="42.85757" lon="0.24267">
        <ele>1981</ele>
        <time>2022-02-13T12:14:25Z</time>
      </trkpt>
      <trkpt lat="42.85758" lon="0.24281">
        <ele>1976</ele>
        <time>2022-02-13T12:14:28Z</time>
      </trkpt>
      <trkpt lat="42.85756" lon="0.24291">
        <ele>1972</ele>
        <time>2022-02-13T12:14:30Z</time>
      </trkpt>
      <trkpt lat="42.85755" lon="0.24296">
        <ele>1970</ele>
        <time>2022-02-13T12:14:31Z</time>
      </trkpt>
      <trkpt lat="42.85747" lon="0.24313">
        <ele>1961</ele>
        <time>2022-02-13T12:14:35Z</time>
      </trkpt>
      <trkpt lat="42.85745" lon="0.24324">
        <ele>1955</ele>
        <time>2022-02-13T12:14:37Z</time>
      </trkpt>
      <trkpt lat="42.8574" lon="0.2433">
        <ele>1953</ele>
        <time>2022-02-13T12:14:39Z</time>
      </trkpt>
      <trkpt lat="42.85738" lon="0.24332">
        <ele>1952</ele>
        <time>2022-02-13T12:14:40Z</time>
      </trkpt>
      <trkpt lat="42.85735" lon="0.24335">
        <ele>1952</ele>
        <time>2022-02-13T12:14:42Z</time>
      </trkpt>
      <trkpt lat="42.85734" lon="0.24335">
        <ele>1952</ele>
        <time>2022-02-13T12:14:56Z</time>
      </trkpt>
      <trkpt lat="42.85733" lon="0.24335">
        <ele>1951</ele>
        <time>2022-02-13T12:14:57Z</time>
      </trkpt>
      <trkpt lat="42.85723" lon="0.24334">
        <ele>1948</ele>
        <time>2022-02-13T12:15:01Z</time>
      </trkpt>
      <trkpt lat="42.85717" lon="0.24339">
        <ele>1945</ele>
        <time>2022-02-13T12:15:04Z</time>
      </trkpt>
      <trkpt lat="42.85717" lon="0.24345">
        <ele>1944</ele>
        <time>2022-02-13T12:15:06Z</time>
      </trkpt>
      <trkpt lat="42.85713" lon="0.24367">
        <ele>1941</ele>
        <time>2022-02-13T12:15:10Z</time>
      </trkpt>
      <trkpt lat="42.85711" lon="0.24382">
        <ele>1939</ele>
        <time>2022-02-13T12:15:13Z</time>
      </trkpt>
      <trkpt lat="42.85708" lon="0.24392">
        <ele>1937</ele>
        <time>2022-02-13T12:15:15Z</time>
      </trkpt>
      <trkpt lat="42.85698" lon="0.24416">
        <ele>1934</ele>
        <time>2022-02-13T12:15:20Z</time>
      </trkpt>
      <trkpt lat="42.85703" lon="0.2443">
        <ele>1928</ele>
        <time>2022-02-13T12:15:23Z</time>
      </trkpt>
      <trkpt lat="42.85704" lon="0.24443">
        <ele>1925</ele>
        <time>2022-02-13T12:15:25Z</time>
      </trkpt>
      <trkpt lat="42.85702" lon="0.24454">
        <ele>1923</ele>
        <time>2022-02-13T12:15:27Z</time>
      </trkpt>
      <trkpt lat="42.85707" lon="0.24465">
        <ele>1917</ele>
        <time>2022-02-13T12:15:29Z</time>
      </trkpt>
      <trkpt lat="42.85702" lon="0.24474">
        <ele>1915</ele>
        <time>2022-02-13T12:15:34Z</time>
      </trkpt>
      <trkpt lat="42.85698" lon="0.24473">
        <ele>1915</ele>
        <time>2022-02-13T12:15:38Z</time>
      </trkpt>
      <trkpt lat="42.85686" lon="0.24479">
        <ele>1912</ele>
        <time>2022-02-13T12:15:42Z</time>
      </trkpt>
      <trkpt lat="42.85671" lon="0.24493">
        <ele>1908</ele>
        <time>2022-02-13T12:15:45Z</time>
      </trkpt>
      <trkpt lat="42.85656" lon="0.24514">
        <ele>1905</ele>
        <time>2022-02-13T12:15:49Z</time>
      </trkpt>
      <trkpt lat="42.85652" lon="0.24519">
        <ele>1904</ele>
        <time>2022-02-13T12:15:50Z</time>
      </trkpt>
      <trkpt lat="42.85641" lon="0.2453">
        <ele>1902</ele>
        <time>2022-02-13T12:15:53Z</time>
      </trkpt>
      <trkpt lat="42.85637" lon="0.24563">
        <ele>1893</ele>
        <time>2022-02-13T12:15:59Z</time>
      </trkpt>
      <trkpt lat="42.85635" lon="0.2457">
        <ele>1892</ele>
        <time>2022-02-13T12:16:00Z</time>
      </trkpt>
      <trkpt lat="42.85629" lon="0.2459">
        <ele>1890</ele>
        <time>2022-02-13T12:16:03Z</time>
      </trkpt>
      <trkpt lat="42.85632" lon="0.24607">
        <ele>1885</ele>
        <time>2022-02-13T12:16:05Z</time>
      </trkpt>
      <trkpt lat="42.85625" lon="0.24619">
        <ele>1880</ele>
        <time>2022-02-13T12:16:07Z</time>
      </trkpt>
      <trkpt lat="42.85618" lon="0.24628">
        <ele>1880</ele>
        <time>2022-02-13T12:16:09Z</time>
      </trkpt>
      <trkpt lat="42.85622" lon="0.24644">
        <ele>1875</ele>
        <time>2022-02-13T12:16:12Z</time>
      </trkpt>
      <trkpt lat="42.85623" lon="0.2465">
        <ele>1872</ele>
        <time>2022-02-13T12:16:13Z</time>
      </trkpt>
      <trkpt lat="42.85619" lon="0.24675">
        <ele>1867</ele>
        <time>2022-02-13T12:16:18Z</time>
      </trkpt>
      <trkpt lat="42.8562" lon="0.24684">
        <ele>1867</ele>
        <time>2022-02-13T12:16:19Z</time>
      </trkpt>
      <trkpt lat="42.85625" lon="0.24712">
        <ele>1861</ele>
        <time>2022-02-13T12:16:22Z</time>
      </trkpt>
      <trkpt lat="42.85625" lon="0.24719">
        <ele>1861</ele>
        <time>2022-02-13T12:16:23Z</time>
      </trkpt>
      <trkpt lat="42.85625" lon="0.24729">
        <ele>1863</ele>
        <time>2022-02-13T12:16:25Z</time>
      </trkpt>
      <trkpt lat="42.85622" lon="0.24742">
        <ele>1863</ele>
        <time>2022-02-13T12:16:35Z</time>
      </trkpt>
      <trkpt lat="42.85622" lon="0.24738">
        <ele>1863</ele>
        <time>2022-02-13T12:16:52Z</time>
      </trkpt>
      <trkpt lat="42.85621" lon="0.24734">
        <ele>1863</ele>
        <time>2022-02-13T12:17:07Z</time>
      </trkpt>
      <trkpt lat="42.85621" lon="0.24736">
        <ele>1863</ele>
        <time>2022-02-13T12:17:24Z</time>
      </trkpt>
      <trkpt lat="42.85627" lon="0.24734">
        <ele>1863</ele>
        <time>2022-02-13T12:17:47Z</time>
      </trkpt>
      <trkpt lat="42.8563" lon="0.24734">
        <ele>1862</ele>
        <time>2022-02-13T12:17:51Z</time>
      </trkpt>
      <trkpt lat="42.85632" lon="0.24734">
        <ele>1862</ele>
        <time>2022-02-13T12:17:53Z</time>
      </trkpt>
      <trkpt lat="42.8564" lon="0.24738">
        <ele>1862</ele>
        <time>2022-02-13T12:18:04Z</time>
      </trkpt>
      <trkpt lat="42.85642" lon="0.24746">
        <ele>1864</ele>
        <time>2022-02-13T12:18:22Z</time>
      </trkpt>
      <trkpt lat="42.85645" lon="0.24757">
        <ele>1863</ele>
        <time>2022-02-13T12:18:28Z</time>
      </trkpt>
      <trkpt lat="42.85644" lon="0.24774">
        <ele>1862</ele>
        <time>2022-02-13T12:18:38Z</time>
      </trkpt>
      <trkpt lat="42.85644" lon="0.24785">
        <ele>1862</ele>
        <time>2022-02-13T12:18:43Z</time>
      </trkpt>
      <trkpt lat="42.85645" lon="0.2483">
        <ele>1860</ele>
        <time>2022-02-13T12:18:56Z</time>
      </trkpt>
      <trkpt lat="42.85653" lon="0.2487">
        <ele>1857</ele>
        <time>2022-02-13T12:19:09Z</time>
      </trkpt>
      <trkpt lat="42.85653" lon="0.24873">
        <ele>1857</ele>
        <time>2022-02-13T12:19:10Z</time>
      </trkpt>
      <trkpt lat="42.85662" lon="0.24885">
        <ele>1857</ele>
        <time>2022-02-13T12:19:22Z</time>
      </trkpt>
      <trkpt lat="42.85671" lon="0.24893">
        <ele>1857</ele>
        <time>2022-02-13T12:19:36Z</time>
      </trkpt>
      <trkpt lat="42.85676" lon="0.24901">
        <ele>1858</ele>
        <time>2022-02-13T12:19:50Z</time>
      </trkpt>
      <trkpt lat="42.85675" lon="0.249">
        <ele>1859</ele>
        <time>2022-02-13T12:20:02Z</time>
      </trkpt>
      <trkpt lat="42.85675" lon="0.24898">
        <ele>1858</ele>
        <time>2022-02-13T12:20:18Z</time>
      </trkpt>
      <trkpt lat="42.85673" lon="0.24902">
        <ele>1858</ele>
        <time>2022-02-13T12:20:34Z</time>
      </trkpt>
      <trkpt lat="42.85669" lon="0.24896">
        <ele>1857</ele>
        <time>2022-02-13T12:20:51Z</time>
      </trkpt>
      <trkpt lat="42.85671" lon="0.24895">
        <ele>1858</ele>
        <time>2022-02-13T12:21:07Z</time>
      </trkpt>
      <trkpt lat="42.85669" lon="0.249">
        <ele>1857</ele>
        <time>2022-02-13T12:21:23Z</time>
      </trkpt>
      <trkpt lat="42.8567" lon="0.24899">
        <ele>1857</ele>
        <time>2022-02-13T12:21:34Z</time>
      </trkpt>
      <trkpt lat="42.85673" lon="0.249">
        <ele>1856</ele>
        <time>2022-02-13T12:22:04Z</time>
      </trkpt>
      <trkpt lat="42.85673" lon="0.24899">
        <ele>1856</ele>
        <time>2022-02-13T12:22:25Z</time>
      </trkpt>
      <trkpt lat="42.85673" lon="0.24899">
        <ele>1856</ele>
        <time>2022-02-13T12:22:56Z</time>
      </trkpt>
      <trkpt lat="42.85674" lon="0.24899">
        <ele>1858</ele>
        <time>2022-02-13T12:23:18Z</time>
      </trkpt>
      <trkpt lat="42.85674" lon="0.249">
        <ele>1857</ele>
        <time>2022-02-13T12:23:39Z</time>
      </trkpt>
      <trkpt lat="42.85675" lon="0.249">
        <ele>1857</ele>
        <time>2022-02-13T12:24:01Z</time>
      </trkpt>
      <trkpt lat="42.85673" lon="0.24898">
        <ele>1857</ele>
        <time>2022-02-13T12:24:33Z</time>
      </trkpt>
      <trkpt lat="42.85673" lon="0.24899">
        <ele>1857</ele>
        <time>2022-02-13T12:25:05Z</time>
      </trkpt>
      <trkpt lat="42.85674" lon="0.249">
        <ele>1857</ele>
        <time>2022-02-13T12:25:28Z</time>
      </trkpt>
      <trkpt lat="42.85672" lon="0.24896">
        <ele>1855</ele>
        <time>2022-02-13T12:25:56Z</time>
      </trkpt>
      <trkpt lat="42.8567" lon="0.24897">
        <ele>1855</ele>
        <time>2022-02-13T12:26:25Z</time>
      </trkpt>
      <trkpt lat="42.8567" lon="0.24898">
        <ele>1856</ele>
        <time>2022-02-13T12:26:54Z</time>
      </trkpt>
      <trkpt lat="42.85674" lon="0.24898">
        <ele>1855</ele>
        <time>2022-02-13T12:27:26Z</time>
      </trkpt>
      <trkpt lat="42.85674" lon="0.249">
        <ele>1856</ele>
        <time>2022-02-13T12:27:55Z</time>
      </trkpt>
      <trkpt lat="42.85672" lon="0.24898">
        <ele>1856</ele>
        <time>2022-02-13T12:28:10Z</time>
      </trkpt>
      <trkpt lat="42.85674" lon="0.24898">
        <ele>1856</ele>
        <time>2022-02-13T12:28:37Z</time>
      </trkpt>
      <trkpt lat="42.85673" lon="0.24899">
        <ele>1855</ele>
        <time>2022-02-13T12:29:07Z</time>
      </trkpt>
      <trkpt lat="42.85674" lon="0.24902">
        <ele>1855</ele>
        <time>2022-02-13T12:29:44Z</time>
      </trkpt>
      <trkpt lat="42.85673" lon="0.24897">
        <ele>1855</ele>
        <time>2022-02-13T12:30:11Z</time>
      </trkpt>
      <trkpt lat="42.85672" lon="0.24898">
        <ele>1855</ele>
        <time>2022-02-13T12:30:36Z</time>
      </trkpt>
      <trkpt lat="42.85671" lon="0.24897">
        <ele>1854</ele>
        <time>2022-02-13T12:30:54Z</time>
      </trkpt>
      <trkpt lat="42.8567" lon="0.24904">
        <ele>1854</ele>
        <time>2022-02-13T12:31:21Z</time>
      </trkpt>
      <trkpt lat="42.85671" lon="0.24901">
        <ele>1856</ele>
        <time>2022-02-13T12:32:02Z</time>
      </trkpt>
      <trkpt lat="42.85673" lon="0.24899">
        <ele>1857</ele>
        <time>2022-02-13T12:32:39Z</time>
      </trkpt>
      <trkpt lat="42.85672" lon="0.249">
        <ele>1856</ele>
        <time>2022-02-13T12:33:21Z</time>
      </trkpt>
      <trkpt lat="42.85671" lon="0.24905">
        <ele>1856</ele>
        <time>2022-02-13T12:33:59Z</time>
      </trkpt>
      <trkpt lat="42.85672" lon="0.24905">
        <ele>1857</ele>
        <time>2022-02-13T12:34:31Z</time>
      </trkpt>
      <trkpt lat="42.85673" lon="0.24903">
        <ele>1856</ele>
        <time>2022-02-13T12:35:04Z</time>
      </trkpt>
      <trkpt lat="42.85673" lon="0.24906">
        <ele>1857</ele>
        <time>2022-02-13T12:35:43Z</time>
      </trkpt>
      <trkpt lat="42.85671" lon="0.24903">
        <ele>1857</ele>
        <time>2022-02-13T12:36:20Z</time>
      </trkpt>
      <trkpt lat="42.85673" lon="0.24904">
        <ele>1858</ele>
        <time>2022-02-13T12:36:58Z</time>
      </trkpt>
      <trkpt lat="42.85672" lon="0.24904">
        <ele>1857</ele>
        <time>2022-02-13T12:37:33Z</time>
      </trkpt>
      <trkpt lat="42.85672" lon="0.249">
        <ele>1856</ele>
        <time>2022-02-13T12:38:07Z</time>
      </trkpt>
      <trkpt lat="42.85672" lon="0.24903">
        <ele>1856</ele>
        <time>2022-02-13T12:38:45Z</time>
      </trkpt>
      <trkpt lat="42.85672" lon="0.24903">
        <ele>1857</ele>
        <time>2022-02-13T12:39:15Z</time>
      </trkpt>
      <trkpt lat="42.85674" lon="0.24903">
        <ele>1855</ele>
        <time>2022-02-13T12:39:46Z</time>
      </trkpt>
      <trkpt lat="42.85671" lon="0.24902">
        <ele>1856</ele>
        <time>2022-02-13T12:40:01Z</time>
      </trkpt>
      <trkpt lat="42.85676" lon="0.24895">
        <ele>1857</ele>
        <time>2022-02-13T12:40:11Z</time>
      </trkpt>
      <trkpt lat="42.85677" lon="0.24901">
        <ele>1858</ele>
        <time>2022-02-13T12:40:27Z</time>
      </trkpt>
      <trkpt lat="42.85681" lon="0.24898">
        <ele>1857</ele>
        <time>2022-02-13T12:40:45Z</time>
      </trkpt>
      <trkpt lat="42.85679" lon="0.249">
        <ele>1857</ele>
        <time>2022-02-13T12:41:02Z</time>
      </trkpt>
      <trkpt lat="42.8568" lon="0.24901">
        <ele>1857</ele>
        <time>2022-02-13T12:41:21Z</time>
      </trkpt>
      <trkpt lat="42.85683" lon="0.24903">
        <ele>1857</ele>
        <time>2022-02-13T12:41:39Z</time>
      </trkpt>
      <trkpt lat="42.85682" lon="0.24902">
        <ele>1858</ele>
        <time>2022-02-13T12:41:56Z</time>
      </trkpt>
      <trkpt lat="42.85685" lon="0.24902">
        <ele>1857</ele>
        <time>2022-02-13T12:42:14Z</time>
      </trkpt>
      <trkpt lat="42.85688" lon="0.24904">
        <ele>1857</ele>
        <time>2022-02-13T12:42:34Z</time>
      </trkpt>
      <trkpt lat="42.85684" lon="0.24902">
        <ele>1858</ele>
        <time>2022-02-13T12:42:53Z</time>
      </trkpt>
      <trkpt lat="42.85682" lon="0.24903">
        <ele>1858</ele>
        <time>2022-02-13T12:43:14Z</time>
      </trkpt>
      <trkpt lat="42.85679" lon="0.24899">
        <ele>1856</ele>
        <time>2022-02-13T12:43:37Z</time>
      </trkpt>
      <trkpt lat="42.85687" lon="0.24907">
        <ele>1858</ele>
        <time>2022-02-13T12:44:00Z</time>
      </trkpt>
      <trkpt lat="42.85681" lon="0.24914">
        <ele>1857</ele>
        <time>2022-02-13T12:44:16Z</time>
      </trkpt>
      <trkpt lat="42.85677" lon="0.24922">
        <ele>1856</ele>
        <time>2022-02-13T12:44:20Z</time>
      </trkpt>
      <trkpt lat="42.85668" lon="0.2495">
        <ele>1855</ele>
        <time>2022-02-13T12:44:26Z</time>
      </trkpt>
      <trkpt lat="42.85668" lon="0.24975">
        <ele>1853</ele>
        <time>2022-02-13T12:44:30Z</time>
      </trkpt>
      <trkpt lat="42.85667" lon="0.25001">
        <ele>1851</ele>
        <time>2022-02-13T12:44:33Z</time>
      </trkpt>
      <trkpt lat="42.85652" lon="0.2504">
        <ele>1851</ele>
        <time>2022-02-13T12:44:43Z</time>
      </trkpt>
      <trkpt lat="42.85649" lon="0.25065">
        <ele>1849</ele>
        <time>2022-02-13T12:44:56Z</time>
      </trkpt>
      <trkpt lat="42.85654" lon="0.25079">
        <ele>1845</ele>
        <time>2022-02-13T12:45:00Z</time>
      </trkpt>
      <trkpt lat="42.85662" lon="0.25104">
        <ele>1843</ele>
        <time>2022-02-13T12:45:04Z</time>
      </trkpt>
      <trkpt lat="42.85667" lon="0.25124">
        <ele>1840</ele>
        <time>2022-02-13T12:45:07Z</time>
      </trkpt>
      <trkpt lat="42.85668" lon="0.25128">
        <ele>1840</ele>
        <time>2022-02-13T12:45:08Z</time>
      </trkpt>
      <trkpt lat="42.85671" lon="0.25146">
        <ele>1839</ele>
        <time>2022-02-13T12:45:16Z</time>
      </trkpt>
      <trkpt lat="42.85671" lon="0.2515">
        <ele>1837</ele>
        <time>2022-02-13T12:45:17Z</time>
      </trkpt>
      <trkpt lat="42.85667" lon="0.25157">
        <ele>1833</ele>
        <time>2022-02-13T12:45:20Z</time>
      </trkpt>
      <trkpt lat="42.85665" lon="0.25157">
        <ele>1833</ele>
        <time>2022-02-13T12:45:21Z</time>
      </trkpt>
      <trkpt lat="42.85666" lon="0.25172">
        <ele>1830</ele>
        <time>2022-02-13T12:45:25Z</time>
      </trkpt>
      <trkpt lat="42.8568" lon="0.25204">
        <ele>1825</ele>
        <time>2022-02-13T12:45:31Z</time>
      </trkpt>
      <trkpt lat="42.85683" lon="0.25209">
        <ele>1823</ele>
        <time>2022-02-13T12:45:32Z</time>
      </trkpt>
      <trkpt lat="42.85692" lon="0.25228">
        <ele>1820</ele>
        <time>2022-02-13T12:45:36Z</time>
      </trkpt>
      <trkpt lat="42.85694" lon="0.25231">
        <ele>1819</ele>
        <time>2022-02-13T12:45:37Z</time>
      </trkpt>
      <trkpt lat="42.85698" lon="0.25232">
        <ele>1818</ele>
        <time>2022-02-13T12:45:51Z</time>
      </trkpt>
      <trkpt lat="42.857" lon="0.25232">
        <ele>1819</ele>
        <time>2022-02-13T12:45:54Z</time>
      </trkpt>
      <trkpt lat="42.85707" lon="0.25237">
        <ele>1818</ele>
        <time>2022-02-13T12:45:59Z</time>
      </trkpt>
      <trkpt lat="42.85713" lon="0.25241">
        <ele>1816</ele>
        <time>2022-02-13T12:46:01Z</time>
      </trkpt>
      <trkpt lat="42.85711" lon="0.25251">
        <ele>1812</ele>
        <time>2022-02-13T12:46:04Z</time>
      </trkpt>
      <trkpt lat="42.85708" lon="0.25254">
        <ele>1811</ele>
        <time>2022-02-13T12:46:05Z</time>
      </trkpt>
      <trkpt lat="42.8571" lon="0.25267">
        <ele>1805</ele>
        <time>2022-02-13T12:46:10Z</time>
      </trkpt>
      <trkpt lat="42.85713" lon="0.25269">
        <ele>1805</ele>
        <time>2022-02-13T12:46:11Z</time>
      </trkpt>
      <trkpt lat="42.85728" lon="0.25281">
        <ele>1802</ele>
        <time>2022-02-13T12:46:16Z</time>
      </trkpt>
      <trkpt lat="42.85738" lon="0.253">
        <ele>1797</ele>
        <time>2022-02-13T12:46:21Z</time>
      </trkpt>
      <trkpt lat="42.85747" lon="0.25309">
        <ele>1794</ele>
        <time>2022-02-13T12:46:24Z</time>
      </trkpt>
      <trkpt lat="42.85747" lon="0.25315">
        <ele>1791</ele>
        <time>2022-02-13T12:46:25Z</time>
      </trkpt>
      <trkpt lat="42.85745" lon="0.25326">
        <ele>1789</ele>
        <time>2022-02-13T12:46:29Z</time>
      </trkpt>
      <trkpt lat="42.8575" lon="0.25336">
        <ele>1785</ele>
        <time>2022-02-13T12:46:32Z</time>
      </trkpt>
      <trkpt lat="42.85759" lon="0.25348">
        <ele>1781</ele>
        <time>2022-02-13T12:46:37Z</time>
      </trkpt>
      <trkpt lat="42.85754" lon="0.25354">
        <ele>1780</ele>
        <time>2022-02-13T12:46:39Z</time>
      </trkpt>
      <trkpt lat="42.85742" lon="0.25355">
        <ele>1778</ele>
        <time>2022-02-13T12:46:43Z</time>
      </trkpt>
      <trkpt lat="42.85743" lon="0.25365">
        <ele>1776</ele>
        <time>2022-02-13T12:46:47Z</time>
      </trkpt>
      <trkpt lat="42.85751" lon="0.25391">
        <ele>1771</ele>
        <time>2022-02-13T12:46:53Z</time>
      </trkpt>
      <trkpt lat="42.85757" lon="0.25394">
        <ele>1769</ele>
        <time>2022-02-13T12:46:55Z</time>
      </trkpt>
      <trkpt lat="42.85767" lon="0.25411">
        <ele>1765</ele>
        <time>2022-02-13T12:46:59Z</time>
      </trkpt>
      <trkpt lat="42.8577" lon="0.25417">
        <ele>1765</ele>
        <time>2022-02-13T12:47:00Z</time>
      </trkpt>
      <trkpt lat="42.85784" lon="0.25435">
        <ele>1762</ele>
        <time>2022-02-13T12:47:04Z</time>
      </trkpt>
      <trkpt lat="42.85783" lon="0.25439">
        <ele>1761</ele>
        <time>2022-02-13T12:47:10Z</time>
      </trkpt>
      <trkpt lat="42.85777" lon="0.25442">
        <ele>1760</ele>
        <time>2022-02-13T12:47:13Z</time>
      </trkpt>
      <trkpt lat="42.85769" lon="0.25458">
        <ele>1758</ele>
        <time>2022-02-13T12:47:18Z</time>
      </trkpt>
      <trkpt lat="42.85774" lon="0.25469">
        <ele>1758</ele>
        <time>2022-02-13T12:47:21Z</time>
      </trkpt>
      <trkpt lat="42.85785" lon="0.25486">
        <ele>1754</ele>
        <time>2022-02-13T12:47:25Z</time>
      </trkpt>
      <trkpt lat="42.85789" lon="0.25507">
        <ele>1750</ele>
        <time>2022-02-13T12:47:30Z</time>
      </trkpt>
      <trkpt lat="42.85801" lon="0.25503">
        <ele>1748</ele>
        <time>2022-02-13T12:47:37Z</time>
      </trkpt>
      <trkpt lat="42.85802" lon="0.25498">
        <ele>1749</ele>
        <time>2022-02-13T12:47:55Z</time>
      </trkpt>
      <trkpt lat="42.85805" lon="0.25498">
        <ele>1749</ele>
        <time>2022-02-13T12:48:05Z</time>
      </trkpt>
      <trkpt lat="42.85823" lon="0.25495">
        <ele>1748</ele>
        <time>2022-02-13T12:48:12Z</time>
      </trkpt>
      <trkpt lat="42.85825" lon="0.25504">
        <ele>1742</ele>
        <time>2022-02-13T12:48:15Z</time>
      </trkpt>
      <trkpt lat="42.85825" lon="0.25508">
        <ele>1742</ele>
        <time>2022-02-13T12:48:16Z</time>
      </trkpt>
      <trkpt lat="42.85829" lon="0.25513">
        <ele>1742</ele>
        <time>2022-02-13T12:48:18Z</time>
      </trkpt>
      <trkpt lat="42.85835" lon="0.25515">
        <ele>1741</ele>
        <time>2022-02-13T12:48:20Z</time>
      </trkpt>
      <trkpt lat="42.85837" lon="0.25521">
        <ele>1735</ele>
        <time>2022-02-13T12:48:22Z</time>
      </trkpt>
      <trkpt lat="42.85837" lon="0.25528">
        <ele>1733</ele>
        <time>2022-02-13T12:48:27Z</time>
      </trkpt>
      <trkpt lat="42.85837" lon="0.2553">
        <ele>1733</ele>
        <time>2022-02-13T12:48:28Z</time>
      </trkpt>
      <trkpt lat="42.85851" lon="0.25544">
        <ele>1729</ele>
        <time>2022-02-13T12:48:36Z</time>
      </trkpt>
      <trkpt lat="42.85858" lon="0.2555">
        <ele>1725</ele>
        <time>2022-02-13T12:48:39Z</time>
      </trkpt>
      <trkpt lat="42.85863" lon="0.25555">
        <ele>1722</ele>
        <time>2022-02-13T12:48:42Z</time>
      </trkpt>
      <trkpt lat="42.85865" lon="0.25559">
        <ele>1722</ele>
        <time>2022-02-13T12:48:44Z</time>
      </trkpt>
      <trkpt lat="42.85869" lon="0.25567">
        <ele>1718</ele>
        <time>2022-02-13T12:48:48Z</time>
      </trkpt>
      <trkpt lat="42.85871" lon="0.25569">
        <ele>1718</ele>
        <time>2022-02-13T12:48:49Z</time>
      </trkpt>
      <trkpt lat="42.85875" lon="0.25574">
        <ele>1717</ele>
        <time>2022-02-13T12:48:51Z</time>
      </trkpt>
      <trkpt lat="42.85882" lon="0.25576">
        <ele>1716</ele>
        <time>2022-02-13T12:48:53Z</time>
      </trkpt>
      <trkpt lat="42.85885" lon="0.25582">
        <ele>1711</ele>
        <time>2022-02-13T12:48:55Z</time>
      </trkpt>
      <trkpt lat="42.8588" lon="0.2559">
        <ele>1708</ele>
        <time>2022-02-13T12:48:57Z</time>
      </trkpt>
      <trkpt lat="42.85871" lon="0.25602">
        <ele>1704</ele>
        <time>2022-02-13T12:49:01Z</time>
      </trkpt>
      <trkpt lat="42.85873" lon="0.25612">
        <ele>1700</ele>
        <time>2022-02-13T12:49:03Z</time>
      </trkpt>
      <trkpt lat="42.85873" lon="0.25617">
        <ele>1697</ele>
        <time>2022-02-13T12:49:04Z</time>
      </trkpt>
      <trkpt lat="42.85868" lon="0.2562">
        <ele>1693</ele>
        <time>2022-02-13T12:49:07Z</time>
      </trkpt>
      <trkpt lat="42.85869" lon="0.2562">
        <ele>1693</ele>
        <time>2022-02-13T12:49:08Z</time>
      </trkpt>
      <trkpt lat="42.85873" lon="0.25627">
        <ele>1691</ele>
        <time>2022-02-13T12:49:21Z</time>
      </trkpt>
      <trkpt lat="42.85875" lon="0.25642">
        <ele>1689</ele>
        <time>2022-02-13T12:49:25Z</time>
      </trkpt>
      <trkpt lat="42.85874" lon="0.25647">
        <ele>1687</ele>
        <time>2022-02-13T12:49:37Z</time>
      </trkpt>
      <trkpt lat="42.8588" lon="0.25654">
        <ele>1688</ele>
        <time>2022-02-13T12:49:41Z</time>
      </trkpt>
      <trkpt lat="42.85877" lon="0.2566">
        <ele>1684</ele>
        <time>2022-02-13T12:49:43Z</time>
      </trkpt>
      <trkpt lat="42.85874" lon="0.25674">
        <ele>1684</ele>
        <time>2022-02-13T12:49:46Z</time>
      </trkpt>
      <trkpt lat="42.85879" lon="0.25688">
        <ele>1680</ele>
        <time>2022-02-13T12:49:50Z</time>
      </trkpt>
      <trkpt lat="42.8588" lon="0.25692">
        <ele>1679</ele>
        <time>2022-02-13T12:49:51Z</time>
      </trkpt>
      <trkpt lat="42.85881" lon="0.25698">
        <ele>1673</ele>
        <time>2022-02-13T12:49:52Z</time>
      </trkpt>
      <trkpt lat="42.85873" lon="0.25706">
        <ele>1671</ele>
        <time>2022-02-13T12:49:55Z</time>
      </trkpt>
      <trkpt lat="42.85872" lon="0.25728">
        <ele>1668</ele>
        <time>2022-02-13T12:49:59Z</time>
      </trkpt>
      <trkpt lat="42.85879" lon="0.25753">
        <ele>1666</ele>
        <time>2022-02-13T12:50:04Z</time>
      </trkpt>
      <trkpt lat="42.85882" lon="0.25761">
        <ele>1665</ele>
        <time>2022-02-13T12:50:06Z</time>
      </trkpt>
      <trkpt lat="42.85883" lon="0.25767">
        <ele>1664</ele>
        <time>2022-02-13T12:50:07Z</time>
      </trkpt>
      <trkpt lat="42.85881" lon="0.25774">
        <ele>1658</ele>
        <time>2022-02-13T12:50:09Z</time>
      </trkpt>
      <trkpt lat="42.85874" lon="0.25788">
        <ele>1654</ele>
        <time>2022-02-13T12:50:14Z</time>
      </trkpt>
      <trkpt lat="42.85878" lon="0.25786">
        <ele>1654</ele>
        <time>2022-02-13T12:50:15Z</time>
      </trkpt>
      <trkpt lat="42.85883" lon="0.25786">
        <ele>1654</ele>
        <time>2022-02-13T12:50:24Z</time>
      </trkpt>
      <trkpt lat="42.85883" lon="0.25786">
        <ele>1654</ele>
        <time>2022-02-13T12:50:25Z</time>
      </trkpt>
      <trkpt lat="42.85884" lon="0.25795">
        <ele>1653</ele>
        <time>2022-02-13T12:50:29Z</time>
      </trkpt>
      <trkpt lat="42.8588" lon="0.25806">
        <ele>1649</ele>
        <time>2022-02-13T12:50:32Z</time>
      </trkpt>
      <trkpt lat="42.85872" lon="0.25819">
        <ele>1647</ele>
        <time>2022-02-13T12:50:37Z</time>
      </trkpt>
      <trkpt lat="42.85871" lon="0.2582">
        <ele>1646</ele>
        <time>2022-02-13T12:50:38Z</time>
      </trkpt>
      <trkpt lat="42.85872" lon="0.25818">
        <ele>1643</ele>
        <time>2022-02-13T12:50:43Z</time>
      </trkpt>
      <trkpt lat="42.85875" lon="0.25827">
        <ele>1642</ele>
        <time>2022-02-13T12:50:49Z</time>
      </trkpt>
      <trkpt lat="42.85883" lon="0.25842">
        <ele>1639</ele>
        <time>2022-02-13T12:50:52Z</time>
      </trkpt>
      <trkpt lat="42.85891" lon="0.25865">
        <ele>1637</ele>
        <time>2022-02-13T12:50:57Z</time>
      </trkpt>
      <trkpt lat="42.85895" lon="0.25882">
        <ele>1638</ele>
        <time>2022-02-13T12:51:07Z</time>
      </trkpt>
      <trkpt lat="42.85896" lon="0.25889">
        <ele>1639</ele>
        <time>2022-02-13T12:51:19Z</time>
      </trkpt>
      <trkpt lat="42.85896" lon="0.2589">
        <ele>1639</ele>
        <time>2022-02-13T12:51:20Z</time>
      </trkpt>
      <trkpt lat="42.85896" lon="0.25921">
        <ele>1636</ele>
        <time>2022-02-13T12:51:33Z</time>
      </trkpt>
      <trkpt lat="42.85895" lon="0.2594">
        <ele>1634</ele>
        <time>2022-02-13T12:51:36Z</time>
      </trkpt>
      <trkpt lat="42.85894" lon="0.25952">
        <ele>1634</ele>
        <time>2022-02-13T12:51:38Z</time>
      </trkpt>
      <trkpt lat="42.85893" lon="0.25972">
        <ele>1632</ele>
        <time>2022-02-13T12:51:41Z</time>
      </trkpt>
      <trkpt lat="42.85884" lon="0.25985">
        <ele>1627</ele>
        <time>2022-02-13T12:51:44Z</time>
      </trkpt>
      <trkpt lat="42.85881" lon="0.2599">
        <ele>1627</ele>
        <time>2022-02-13T12:51:45Z</time>
      </trkpt>
      <trkpt lat="42.85877" lon="0.26002">
        <ele>1625</ele>
        <time>2022-02-13T12:51:48Z</time>
      </trkpt>
      <trkpt lat="42.85875" lon="0.26029">
        <ele>1622</ele>
        <time>2022-02-13T12:51:56Z</time>
      </trkpt>
      <trkpt lat="42.85875" lon="0.26037">
        <ele>1621</ele>
        <time>2022-02-13T12:51:58Z</time>
      </trkpt>
      <trkpt lat="42.85876" lon="0.26047">
        <ele>1621</ele>
        <time>2022-02-13T12:52:08Z</time>
      </trkpt>
      <trkpt lat="42.85876" lon="0.26051">
        <ele>1622</ele>
        <time>2022-02-13T12:52:16Z</time>
      </trkpt>
      <trkpt lat="42.85872" lon="0.2606">
        <ele>1620</ele>
        <time>2022-02-13T12:52:20Z</time>
      </trkpt>
      <trkpt lat="42.85868" lon="0.26066">
        <ele>1620</ele>
        <time>2022-02-13T12:52:22Z</time>
      </trkpt>
      <trkpt lat="42.85862" lon="0.26074">
        <ele>1618</ele>
        <time>2022-02-13T12:52:24Z</time>
      </trkpt>
      <trkpt lat="42.85861" lon="0.26079">
        <ele>1618</ele>
        <time>2022-02-13T12:52:35Z</time>
      </trkpt>
      <trkpt lat="42.85862" lon="0.26081">
        <ele>1618</ele>
        <time>2022-02-13T12:52:49Z</time>
      </trkpt>
      <trkpt lat="42.85863" lon="0.26079">
        <ele>1617</ele>
        <time>2022-02-13T12:53:06Z</time>
      </trkpt>
      <trkpt lat="42.85865" lon="0.26079">
        <ele>1617</ele>
        <time>2022-02-13T12:53:19Z</time>
      </trkpt>
      <trkpt lat="42.85867" lon="0.2608">
        <ele>1618</ele>
        <time>2022-02-13T12:53:37Z</time>
      </trkpt>
      <trkpt lat="42.85866" lon="0.26079">
        <ele>1617</ele>
        <time>2022-02-13T12:53:50Z</time>
      </trkpt>
      <trkpt lat="42.85866" lon="0.26079">
        <ele>1617</ele>
        <time>2022-02-13T12:54:05Z</time>
      </trkpt>
      <trkpt lat="42.85869" lon="0.2608">
        <ele>1617</ele>
        <time>2022-02-13T12:54:25Z</time>
      </trkpt>
      <trkpt lat="42.85866" lon="0.26078">
        <ele>1617</ele>
        <time>2022-02-13T12:54:39Z</time>
      </trkpt>
      <trkpt lat="42.85865" lon="0.26078">
        <ele>1617</ele>
        <time>2022-02-13T12:54:58Z</time>
      </trkpt>
      <trkpt lat="42.85867" lon="0.2608">
        <ele>1618</ele>
        <time>2022-02-13T12:55:13Z</time>
      </trkpt>
      <trkpt lat="42.85863" lon="0.26077">
        <ele>1618</ele>
        <time>2022-02-13T12:55:31Z</time>
      </trkpt>
      <trkpt lat="42.85865" lon="0.26079">
        <ele>1618</ele>
        <time>2022-02-13T12:55:49Z</time>
      </trkpt>
      <trkpt lat="42.85869" lon="0.2608">
        <ele>1617</ele>
        <time>2022-02-13T12:56:04Z</time>
      </trkpt>
      <trkpt lat="42.85868" lon="0.26078">
        <ele>1617</ele>
        <time>2022-02-13T12:56:19Z</time>
      </trkpt>
      <trkpt lat="42.85868" lon="0.26077">
        <ele>1616</ele>
        <time>2022-02-13T12:56:39Z</time>
      </trkpt>
      <trkpt lat="42.85869" lon="0.26083">
        <ele>1617</ele>
        <time>2022-02-13T12:56:53Z</time>
      </trkpt>
      <trkpt lat="42.85863" lon="0.26088">
        <ele>1616</ele>
        <time>2022-02-13T12:57:05Z</time>
      </trkpt>
      <trkpt lat="42.85861" lon="0.26091">
        <ele>1616</ele>
        <time>2022-02-13T12:57:22Z</time>
      </trkpt>
      <trkpt lat="42.85859" lon="0.26096">
        <ele>1616</ele>
        <time>2022-02-13T12:57:36Z</time>
      </trkpt>
      <trkpt lat="42.85855" lon="0.26103">
        <ele>1616</ele>
        <time>2022-02-13T12:57:43Z</time>
      </trkpt>
      <trkpt lat="42.85852" lon="0.26111">
        <ele>1615</ele>
        <time>2022-02-13T12:57:49Z</time>
      </trkpt>
      <trkpt lat="42.85844" lon="0.26126">
        <ele>1615</ele>
        <time>2022-02-13T12:58:01Z</time>
      </trkpt>
      <trkpt lat="42.85842" lon="0.26141">
        <ele>1615</ele>
        <time>2022-02-13T12:58:16Z</time>
      </trkpt>
      <trkpt lat="42.85838" lon="0.26147">
        <ele>1613</ele>
        <time>2022-02-13T12:58:24Z</time>
      </trkpt>
      <trkpt lat="42.85833" lon="0.26163">
        <ele>1612</ele>
        <time>2022-02-13T12:58:38Z</time>
      </trkpt>
      <trkpt lat="42.85829" lon="0.26176">
        <ele>1610</ele>
        <time>2022-02-13T12:58:50Z</time>
      </trkpt>
      <trkpt lat="42.85829" lon="0.26178">
        <ele>1610</ele>
        <time>2022-02-13T12:58:52Z</time>
      </trkpt>
      <trkpt lat="42.85827" lon="0.26183">
        <ele>1610</ele>
        <time>2022-02-13T12:58:56Z</time>
      </trkpt>
      <trkpt lat="42.8582" lon="0.26187">
        <ele>1608</ele>
        <time>2022-02-13T12:59:05Z</time>
      </trkpt>
      <trkpt lat="42.85814" lon="0.26198">
        <ele>1608</ele>
        <time>2022-02-13T12:59:18Z</time>
      </trkpt>
      <trkpt lat="42.85813" lon="0.26209">
        <ele>1607</ele>
        <time>2022-02-13T12:59:30Z</time>
      </trkpt>
      <trkpt lat="42.85815" lon="0.26224">
        <ele>1608</ele>
        <time>2022-02-13T12:59:44Z</time>
      </trkpt>
      <trkpt lat="42.85815" lon="0.26233">
        <ele>1607</ele>
        <time>2022-02-13T12:59:52Z</time>
      </trkpt>
      <trkpt lat="42.85815" lon="0.26236">
        <ele>1605</ele>
        <time>2022-02-13T12:59:54Z</time>
      </trkpt>
      <trkpt lat="42.85817" lon="0.26242">
        <ele>1606</ele>
        <time>2022-02-13T12:59:58Z</time>
      </trkpt>
      <trkpt lat="42.85816" lon="0.26247">
        <ele>1605</ele>
        <time>2022-02-13T13:00:02Z</time>
      </trkpt>
      <trkpt lat="42.85817" lon="0.26251">
        <ele>1605</ele>
        <time>2022-02-13T13:00:04Z</time>
      </trkpt>
      <trkpt lat="42.85817" lon="0.26269">
        <ele>1606</ele>
        <time>2022-02-13T13:00:18Z</time>
      </trkpt>
      <trkpt lat="42.85817" lon="0.26271">
        <ele>1606</ele>
        <time>2022-02-13T13:00:22Z</time>
      </trkpt>
      <trkpt lat="42.85814" lon="0.26287">
        <ele>1608</ele>
        <time>2022-02-13T13:00:34Z</time>
      </trkpt>
      <trkpt lat="42.8581" lon="0.26303">
        <ele>1609</ele>
        <time>2022-02-13T13:00:49Z</time>
      </trkpt>
      <trkpt lat="42.85807" lon="0.26312">
        <ele>1606</ele>
        <time>2022-02-13T13:01:05Z</time>
      </trkpt>
      <trkpt lat="42.85804" lon="0.26325">
        <ele>1604</ele>
        <time>2022-02-13T13:01:19Z</time>
      </trkpt>
      <trkpt lat="42.858" lon="0.26334">
        <ele>1602</ele>
        <time>2022-02-13T13:01:30Z</time>
      </trkpt>
      <trkpt lat="42.85797" lon="0.26345">
        <ele>1601</ele>
        <time>2022-02-13T13:01:44Z</time>
      </trkpt>
      <trkpt lat="42.85791" lon="0.26357">
        <ele>1598</ele>
        <time>2022-02-13T13:01:56Z</time>
      </trkpt>
      <trkpt lat="42.85788" lon="0.26367">
        <ele>1597</ele>
        <time>2022-02-13T13:02:09Z</time>
      </trkpt>
      <trkpt lat="42.85783" lon="0.26382">
        <ele>1594</ele>
        <time>2022-02-13T13:02:21Z</time>
      </trkpt>
      <trkpt lat="42.8578" lon="0.26395">
        <ele>1591</ele>
        <time>2022-02-13T13:02:32Z</time>
      </trkpt>
      <trkpt lat="42.85778" lon="0.264">
        <ele>1590</ele>
        <time>2022-02-13T13:02:35Z</time>
      </trkpt>
      <trkpt lat="42.85773" lon="0.2642">
        <ele>1588</ele>
        <time>2022-02-13T13:02:49Z</time>
      </trkpt>
      <trkpt lat="42.85772" lon="0.26438">
        <ele>1587</ele>
        <time>2022-02-13T13:03:02Z</time>
      </trkpt>
      <trkpt lat="42.85769" lon="0.26459">
        <ele>1583</ele>
        <time>2022-02-13T13:03:16Z</time>
      </trkpt>
      <trkpt lat="42.85768" lon="0.26474">
        <ele>1582</ele>
        <time>2022-02-13T13:03:27Z</time>
      </trkpt>
      <trkpt lat="42.85766" lon="0.26487">
        <ele>1580</ele>
        <time>2022-02-13T13:03:40Z</time>
      </trkpt>
      <trkpt lat="42.85765" lon="0.26503">
        <ele>1578</ele>
        <time>2022-02-13T13:03:53Z</time>
      </trkpt>
      <trkpt lat="42.85765" lon="0.26512">
        <ele>1578</ele>
        <time>2022-02-13T13:04:01Z</time>
      </trkpt>
      <trkpt lat="42.8576" lon="0.26538">
        <ele>1574</ele>
        <time>2022-02-13T13:04:17Z</time>
      </trkpt>
      <trkpt lat="42.85759" lon="0.26545">
        <ele>1575</ele>
        <time>2022-02-13T13:04:22Z</time>
      </trkpt>
      <trkpt lat="42.85755" lon="0.26563">
        <ele>1571</ele>
        <time>2022-02-13T13:04:35Z</time>
      </trkpt>
      <trkpt lat="42.85755" lon="0.26571">
        <ele>1572</ele>
        <time>2022-02-13T13:04:41Z</time>
      </trkpt>
      <trkpt lat="42.85752" lon="0.26581">
        <ele>1569</ele>
        <time>2022-02-13T13:04:51Z</time>
      </trkpt>
      <trkpt lat="42.8575" lon="0.26589">
        <ele>1566</ele>
        <time>2022-02-13T13:04:57Z</time>
      </trkpt>
      <trkpt lat="42.8575" lon="0.26596">
        <ele>1566</ele>
        <time>2022-02-13T13:05:04Z</time>
      </trkpt>
      <trkpt lat="42.85749" lon="0.266">
        <ele>1566</ele>
        <time>2022-02-13T13:05:08Z</time>
      </trkpt>
      <trkpt lat="42.85748" lon="0.26605">
        <ele>1567</ele>
        <time>2022-02-13T13:05:11Z</time>
      </trkpt>
      <trkpt lat="42.85747" lon="0.26617">
        <ele>1564</ele>
        <time>2022-02-13T13:05:18Z</time>
      </trkpt>
      <trkpt lat="42.85746" lon="0.26622">
        <ele>1564</ele>
        <time>2022-02-13T13:05:21Z</time>
      </trkpt>
      <trkpt lat="42.85747" lon="0.26628">
        <ele>1562</ele>
        <time>2022-02-13T13:05:25Z</time>
      </trkpt>
      <trkpt lat="42.85746" lon="0.26636">
        <ele>1561</ele>
        <time>2022-02-13T13:05:30Z</time>
      </trkpt>
      <trkpt lat="42.85744" lon="0.26641">
        <ele>1559</ele>
        <time>2022-02-13T13:05:34Z</time>
      </trkpt>
      <trkpt lat="42.85743" lon="0.26647">
        <ele>1559</ele>
        <time>2022-02-13T13:05:37Z</time>
      </trkpt>
      <trkpt lat="42.85731" lon="0.26654">
        <ele>1556</ele>
        <time>2022-02-13T13:05:46Z</time>
      </trkpt>
      <trkpt lat="42.8572" lon="0.26655">
        <ele>1555</ele>
        <time>2022-02-13T13:05:59Z</time>
      </trkpt>
      <trkpt lat="42.85719" lon="0.26658">
        <ele>1553</ele>
        <time>2022-02-13T13:06:15Z</time>
      </trkpt>
      <trkpt lat="42.85719" lon="0.26655">
        <ele>1554</ele>
        <time>2022-02-13T13:06:32Z</time>
      </trkpt>
      <trkpt lat="42.85719" lon="0.26656">
        <ele>1554</ele>
        <time>2022-02-13T13:06:51Z</time>
      </trkpt>
      <trkpt lat="42.85721" lon="0.26658">
        <ele>1554</ele>
        <time>2022-02-13T13:07:13Z</time>
      </trkpt>
      <trkpt lat="42.85722" lon="0.26659">
        <ele>1554</ele>
        <time>2022-02-13T13:07:30Z</time>
      </trkpt>
      <trkpt lat="42.85723" lon="0.26657">
        <ele>1553</ele>
        <time>2022-02-13T13:07:47Z</time>
      </trkpt>
      <trkpt lat="42.8572" lon="0.26658">
        <ele>1555</ele>
        <time>2022-02-13T13:08:01Z</time>
      </trkpt>
      <trkpt lat="42.8572" lon="0.26658">
        <ele>1554</ele>
        <time>2022-02-13T13:08:21Z</time>
      </trkpt>
      <trkpt lat="42.85719" lon="0.26658">
        <ele>1555</ele>
        <time>2022-02-13T13:08:34Z</time>
      </trkpt>
      <trkpt lat="42.85717" lon="0.26646">
        <ele>1553</ele>
        <time>2022-02-13T13:08:38Z</time>
      </trkpt>
      <trkpt lat="42.85717" lon="0.26638">
        <ele>1553</ele>
        <time>2022-02-13T13:08:40Z</time>
      </trkpt>
      <trkpt lat="42.85709" lon="0.26632">
        <ele>1549</ele>
        <time>2022-02-13T13:08:43Z</time>
      </trkpt>
      <trkpt lat="42.85706" lon="0.26628">
        <ele>1548</ele>
        <time>2022-02-13T13:08:44Z</time>
      </trkpt>
      <trkpt lat="42.85696" lon="0.26609">
        <ele>1543</ele>
        <time>2022-02-13T13:08:49Z</time>
      </trkpt>
      <trkpt lat="42.85683" lon="0.26602">
        <ele>1539</ele>
        <time>2022-02-13T13:08:53Z</time>
      </trkpt>
      <trkpt lat="42.85671" lon="0.26599">
        <ele>1534</ele>
        <time>2022-02-13T13:08:56Z</time>
      </trkpt>
      <trkpt lat="42.85665" lon="0.26602">
        <ele>1533</ele>
        <time>2022-02-13T13:08:57Z</time>
      </trkpt>
      <trkpt lat="42.85648" lon="0.26619">
        <ele>1530</ele>
        <time>2022-02-13T13:09:01Z</time>
      </trkpt>
      <trkpt lat="42.85633" lon="0.26648">
        <ele>1527</ele>
        <time>2022-02-13T13:09:08Z</time>
      </trkpt>
      <trkpt lat="42.85615" lon="0.26652">
        <ele>1523</ele>
        <time>2022-02-13T13:09:12Z</time>
      </trkpt>
      <trkpt lat="42.85605" lon="0.26655">
        <ele>1519</ele>
        <time>2022-02-13T13:09:15Z</time>
      </trkpt>
      <trkpt lat="42.85602" lon="0.26662">
        <ele>1517</ele>
        <time>2022-02-13T13:09:17Z</time>
      </trkpt>
      <trkpt lat="42.85598" lon="0.26684">
        <ele>1515</ele>
        <time>2022-02-13T13:09:21Z</time>
      </trkpt>
      <trkpt lat="42.85595" lon="0.26701">
        <ele>1515</ele>
        <time>2022-02-13T13:09:30Z</time>
      </trkpt>
      <trkpt lat="42.85595" lon="0.26706">
        <ele>1516</ele>
        <time>2022-02-13T13:09:44Z</time>
      </trkpt>
      <trkpt lat="42.85594" lon="0.26722">
        <ele>1514</ele>
        <time>2022-02-13T13:09:56Z</time>
      </trkpt>
      <trkpt lat="42.85594" lon="0.26728">
        <ele>1515</ele>
        <time>2022-02-13T13:09:59Z</time>
      </trkpt>
      <trkpt lat="42.85595" lon="0.26732">
        <ele>1515</ele>
        <time>2022-02-13T13:10:02Z</time>
      </trkpt>
      <trkpt lat="42.85597" lon="0.26744">
        <ele>1515</ele>
        <time>2022-02-13T13:10:16Z</time>
      </trkpt>
      <trkpt lat="42.85593" lon="0.26741">
        <ele>1515</ele>
        <time>2022-02-13T13:10:22Z</time>
      </trkpt>
      <trkpt lat="42.85593" lon="0.26732">
        <ele>1514</ele>
        <time>2022-02-13T13:10:29Z</time>
      </trkpt>
      <trkpt lat="42.85585" lon="0.26726">
        <ele>1510</ele>
        <time>2022-02-13T13:10:33Z</time>
      </trkpt>
      <trkpt lat="42.85579" lon="0.2672">
        <ele>1508</ele>
        <time>2022-02-13T13:10:35Z</time>
      </trkpt>
      <trkpt lat="42.85567" lon="0.26715">
        <ele>1504</ele>
        <time>2022-02-13T13:10:38Z</time>
      </trkpt>
      <trkpt lat="42.85558" lon="0.26711">
        <ele>1501</ele>
        <time>2022-02-13T13:10:41Z</time>
      </trkpt>
      <trkpt lat="42.85544" lon="0.26719">
        <ele>1499</ele>
        <time>2022-02-13T13:10:44Z</time>
      </trkpt>
      <trkpt lat="42.85541" lon="0.26727">
        <ele>1498</ele>
        <time>2022-02-13T13:10:46Z</time>
      </trkpt>
      <trkpt lat="42.85532" lon="0.26738">
        <ele>1496</ele>
        <time>2022-02-13T13:10:49Z</time>
      </trkpt>
      <trkpt lat="42.85522" lon="0.26753">
        <ele>1491</ele>
        <time>2022-02-13T13:10:52Z</time>
      </trkpt>
      <trkpt lat="42.85519" lon="0.26757">
        <ele>1493</ele>
        <time>2022-02-13T13:10:53Z</time>
      </trkpt>
      <trkpt lat="42.85508" lon="0.26766">
        <ele>1487</ele>
        <time>2022-02-13T13:10:56Z</time>
      </trkpt>
      <trkpt lat="42.85501" lon="0.26781">
        <ele>1485</ele>
        <time>2022-02-13T13:10:59Z</time>
      </trkpt>
      <trkpt lat="42.85492" lon="0.26793">
        <ele>1480</ele>
        <time>2022-02-13T13:11:02Z</time>
      </trkpt>
      <trkpt lat="42.85481" lon="0.26803">
        <ele>1476</ele>
        <time>2022-02-13T13:11:07Z</time>
      </trkpt>
      <trkpt lat="42.85476" lon="0.26801">
        <ele>1475</ele>
        <time>2022-02-13T13:11:09Z</time>
      </trkpt>
      <trkpt lat="42.85465" lon="0.26801">
        <ele>1471</ele>
        <time>2022-02-13T13:11:12Z</time>
      </trkpt>
      <trkpt lat="42.8546" lon="0.268">
        <ele>1472</ele>
        <time>2022-02-13T13:11:13Z</time>
      </trkpt>
      <trkpt lat="42.8545" lon="0.26813">
        <ele>1468</ele>
        <time>2022-02-13T13:11:17Z</time>
      </trkpt>
      <trkpt lat="42.85453" lon="0.26843">
        <ele>1464</ele>
        <time>2022-02-13T13:11:24Z</time>
      </trkpt>
      <trkpt lat="42.8545" lon="0.26847">
        <ele>1462</ele>
        <time>2022-02-13T13:11:26Z</time>
      </trkpt>
      <trkpt lat="42.85442" lon="0.2687">
        <ele>1459</ele>
        <time>2022-02-13T13:11:31Z</time>
      </trkpt>
      <trkpt lat="42.85442" lon="0.26876">
        <ele>1457</ele>
        <time>2022-02-13T13:11:33Z</time>
      </trkpt>
      <trkpt lat="42.85438" lon="0.2688">
        <ele>1457</ele>
        <time>2022-02-13T13:11:44Z</time>
      </trkpt>
      <trkpt lat="42.8544" lon="0.26885">
        <ele>1457</ele>
        <time>2022-02-13T13:11:52Z</time>
      </trkpt>
      <trkpt lat="42.85442" lon="0.26891">
        <ele>1456</ele>
        <time>2022-02-13T13:12:04Z</time>
      </trkpt>
      <trkpt lat="42.85443" lon="0.26895">
        <ele>1457</ele>
        <time>2022-02-13T13:12:09Z</time>
      </trkpt>
      <trkpt lat="42.8544" lon="0.26901">
        <ele>1456</ele>
        <time>2022-02-13T13:12:12Z</time>
      </trkpt>
      <trkpt lat="42.85429" lon="0.26911">
        <ele>1453</ele>
        <time>2022-02-13T13:12:16Z</time>
      </trkpt>
      <trkpt lat="42.85432" lon="0.26924">
        <ele>1452</ele>
        <time>2022-02-13T13:12:23Z</time>
      </trkpt>
      <trkpt lat="42.85434" lon="0.26929">
        <ele>1452</ele>
        <time>2022-02-13T13:12:35Z</time>
      </trkpt>
      <trkpt lat="42.85436" lon="0.26928">
        <ele>1451</ele>
        <time>2022-02-13T13:12:53Z</time>
      </trkpt>
      <trkpt lat="42.85437" lon="0.26937">
        <ele>1450</ele>
        <time>2022-02-13T13:13:08Z</time>
      </trkpt>
      <trkpt lat="42.85441" lon="0.26938">
        <ele>1449</ele>
        <time>2022-02-13T13:13:26Z</time>
      </trkpt>
      <trkpt lat="42.85445" lon="0.26939">
        <ele>1450</ele>
        <time>2022-02-13T13:13:39Z</time>
      </trkpt>
      <trkpt lat="42.85444" lon="0.2695">
        <ele>1450</ele>
        <time>2022-02-13T13:13:52Z</time>
      </trkpt>
      <trkpt lat="42.85443" lon="0.26956">
        <ele>1450</ele>
        <time>2022-02-13T13:14:00Z</time>
      </trkpt>
      <trkpt lat="42.85438" lon="0.26965">
        <ele>1449</ele>
        <time>2022-02-13T13:14:12Z</time>
      </trkpt>
      <trkpt lat="42.85438" lon="0.26966">
        <ele>1448</ele>
        <time>2022-02-13T13:14:25Z</time>
      </trkpt>
      <trkpt lat="42.85441" lon="0.26967">
        <ele>1448</ele>
        <time>2022-02-13T13:14:44Z</time>
      </trkpt>
      <trkpt lat="42.85442" lon="0.26969">
        <ele>1448</ele>
        <time>2022-02-13T13:15:05Z</time>
      </trkpt>
      <trkpt lat="42.85443" lon="0.26968">
        <ele>1447</ele>
        <time>2022-02-13T13:15:28Z</time>
      </trkpt>
      <trkpt lat="42.85443" lon="0.26968">
        <ele>1448</ele>
        <time>2022-02-13T13:15:43Z</time>
      </trkpt>
      <trkpt lat="42.85439" lon="0.2698">
        <ele>1446</ele>
        <time>2022-02-13T13:16:00Z</time>
      </trkpt>
      <trkpt lat="42.85438" lon="0.26986">
        <ele>1445</ele>
        <time>2022-02-13T13:16:12Z</time>
      </trkpt>
      <trkpt lat="42.85432" lon="0.26996">
        <ele>1445</ele>
        <time>2022-02-13T13:16:16Z</time>
      </trkpt>
      <trkpt lat="42.85428" lon="0.27015">
        <ele>1442</ele>
        <time>2022-02-13T13:16:19Z</time>
      </trkpt>
      <trkpt lat="42.8542" lon="0.27052">
        <ele>1437</ele>
        <time>2022-02-13T13:16:24Z</time>
      </trkpt>
      <trkpt lat="42.85412" lon="0.27062">
        <ele>1436</ele>
        <time>2022-02-13T13:16:26Z</time>
      </trkpt>
      <trkpt lat="42.85404" lon="0.2707">
        <ele>1433</ele>
        <time>2022-02-13T13:16:28Z</time>
      </trkpt>
      <trkpt lat="42.85389" lon="0.27074">
        <ele>1430</ele>
        <time>2022-02-13T13:16:31Z</time>
      </trkpt>
      <trkpt lat="42.85382" lon="0.27083">
        <ele>1428</ele>
        <time>2022-02-13T13:16:33Z</time>
      </trkpt>
      <trkpt lat="42.85364" lon="0.27098">
        <ele>1424</ele>
        <time>2022-02-13T13:16:37Z</time>
      </trkpt>
      <trkpt lat="42.85359" lon="0.27102">
        <ele>1424</ele>
        <time>2022-02-13T13:16:38Z</time>
      </trkpt>
      <trkpt lat="42.85343" lon="0.27113">
        <ele>1420</ele>
        <time>2022-02-13T13:16:42Z</time>
      </trkpt>
      <trkpt lat="42.85343" lon="0.27126">
        <ele>1419</ele>
        <time>2022-02-13T13:16:45Z</time>
      </trkpt>
      <trkpt lat="42.85343" lon="0.27128">
        <ele>1419</ele>
        <time>2022-02-13T13:16:46Z</time>
      </trkpt>
      <trkpt lat="42.85341" lon="0.27137">
        <ele>1417</ele>
        <time>2022-02-13T13:16:49Z</time>
      </trkpt>
      <trkpt lat="42.85338" lon="0.2714">
        <ele>1418</ele>
        <time>2022-02-13T13:16:58Z</time>
      </trkpt>
      <trkpt lat="42.85332" lon="0.27153">
        <ele>1415</ele>
        <time>2022-02-13T13:17:05Z</time>
      </trkpt>
      <trkpt lat="42.85331" lon="0.27159">
        <ele>1415</ele>
        <time>2022-02-13T13:17:06Z</time>
      </trkpt>
      <trkpt lat="42.85324" lon="0.27173">
        <ele>1413</ele>
        <time>2022-02-13T13:17:09Z</time>
      </trkpt>
      <trkpt lat="42.85317" lon="0.27173">
        <ele>1412</ele>
        <time>2022-02-13T13:17:11Z</time>
      </trkpt>
      <trkpt lat="42.85302" lon="0.27161">
        <ele>1410</ele>
        <time>2022-02-13T13:17:15Z</time>
      </trkpt>
      <trkpt lat="42.85299" lon="0.27154">
        <ele>1411</ele>
        <time>2022-02-13T13:17:23Z</time>
      </trkpt>
      <trkpt lat="42.85302" lon="0.27154">
        <ele>1410</ele>
        <time>2022-02-13T13:17:50Z</time>
      </trkpt>
      <trkpt lat="42.853" lon="0.27156">
        <ele>1411</ele>
        <time>2022-02-13T13:18:07Z</time>
      </trkpt>
      <trkpt lat="42.85287" lon="0.27161">
        <ele>1409</ele>
        <time>2022-02-13T13:18:17Z</time>
      </trkpt>
      <trkpt lat="42.85283" lon="0.27146">
        <ele>1409</ele>
        <time>2022-02-13T13:18:30Z</time>
      </trkpt>
      <trkpt lat="42.85279" lon="0.2713">
        <ele>1407</ele>
        <time>2022-02-13T13:18:45Z</time>
      </trkpt>
      <trkpt lat="42.85277" lon="0.27127">
        <ele>1407</ele>
        <time>2022-02-13T13:18:48Z</time>
      </trkpt>
      <trkpt lat="42.85273" lon="0.27122">
        <ele>1406</ele>
        <time>2022-02-13T13:18:52Z</time>
      </trkpt>
      <trkpt lat="42.8527" lon="0.27117">
        <ele>1406</ele>
        <time>2022-02-13T13:18:54Z</time>
      </trkpt>
      <trkpt lat="42.85261" lon="0.27125">
        <ele>1403</ele>
        <time>2022-02-13T13:18:59Z</time>
      </trkpt>
      <trkpt lat="42.85258" lon="0.27129">
        <ele>1402</ele>
        <time>2022-02-13T13:19:00Z</time>
      </trkpt>
      <trkpt lat="42.85246" lon="0.27132">
        <ele>1398</ele>
        <time>2022-02-13T13:19:03Z</time>
      </trkpt>
      <trkpt lat="42.85237" lon="0.2713">
        <ele>1397</ele>
        <time>2022-02-13T13:19:05Z</time>
      </trkpt>
      <trkpt lat="42.85225" lon="0.27126">
        <ele>1395</ele>
        <time>2022-02-13T13:19:08Z</time>
      </trkpt>
      <trkpt lat="42.8522" lon="0.27135">
        <ele>1393</ele>
        <time>2022-02-13T13:19:10Z</time>
      </trkpt>
      <trkpt lat="42.85196" lon="0.2718">
        <ele>1387</ele>
        <time>2022-02-13T13:19:16Z</time>
      </trkpt>
      <trkpt lat="42.85184" lon="0.27194">
        <ele>1386</ele>
        <time>2022-02-13T13:19:18Z</time>
      </trkpt>
      <trkpt lat="42.85179" lon="0.27211">
        <ele>1384</ele>
        <time>2022-02-13T13:19:20Z</time>
      </trkpt>
      <trkpt lat="42.85153" lon="0.27254">
        <ele>1380</ele>
        <time>2022-02-13T13:19:27Z</time>
      </trkpt>
      <trkpt lat="42.85149" lon="0.27271">
        <ele>1378</ele>
        <time>2022-02-13T13:19:30Z</time>
      </trkpt>
      <trkpt lat="42.85137" lon="0.27277">
        <ele>1377</ele>
        <time>2022-02-13T13:19:34Z</time>
      </trkpt>
      <trkpt lat="42.85133" lon="0.27288">
        <ele>1374</ele>
        <time>2022-02-13T13:19:38Z</time>
      </trkpt>
      <trkpt lat="42.85139" lon="0.27292">
        <ele>1375</ele>
        <time>2022-02-13T13:19:49Z</time>
      </trkpt>
      <trkpt lat="42.8514" lon="0.2729">
        <ele>1374</ele>
        <time>2022-02-13T13:20:06Z</time>
      </trkpt>
      <trkpt lat="42.8514" lon="0.27288">
        <ele>1373</ele>
        <time>2022-02-13T13:20:21Z</time>
      </trkpt>
      <trkpt lat="42.85139" lon="0.27293">
        <ele>1374</ele>
        <time>2022-02-13T13:20:35Z</time>
      </trkpt>
      <trkpt lat="42.85144" lon="0.273">
        <ele>1373</ele>
        <time>2022-02-13T13:20:49Z</time>
      </trkpt>
      <trkpt lat="42.85147" lon="0.273">
        <ele>1374</ele>
        <time>2022-02-13T13:20:51Z</time>
      </trkpt>
      <trkpt lat="42.8515" lon="0.27302">
        <ele>1373</ele>
        <time>2022-02-13T13:20:54Z</time>
      </trkpt>
      <trkpt lat="42.85153" lon="0.27313">
        <ele>1372</ele>
        <time>2022-02-13T13:21:01Z</time>
      </trkpt>
      <trkpt lat="42.85148" lon="0.27321">
        <ele>1372</ele>
        <time>2022-02-13T13:21:07Z</time>
      </trkpt>
      <trkpt lat="42.85133" lon="0.27335">
        <ele>1370</ele>
        <time>2022-02-13T13:21:23Z</time>
      </trkpt>
      <trkpt lat="42.85132" lon="0.2733">
        <ele>1369</ele>
        <time>2022-02-13T13:21:36Z</time>
      </trkpt>
      <trkpt lat="42.85132" lon="0.27332">
        <ele>1370</ele>
        <time>2022-02-13T13:21:51Z</time>
      </trkpt>
      <trkpt lat="42.85125" lon="0.27343">
        <ele>1368</ele>
        <time>2022-02-13T13:22:09Z</time>
      </trkpt>
      <trkpt lat="42.85118" lon="0.27354">
        <ele>1367</ele>
        <time>2022-02-13T13:22:15Z</time>
      </trkpt>
      <trkpt lat="42.85101" lon="0.27378">
        <ele>1364</ele>
        <time>2022-02-13T13:22:26Z</time>
      </trkpt>
      <trkpt lat="42.85085" lon="0.27395">
        <ele>1360</ele>
        <time>2022-02-13T13:22:37Z</time>
      </trkpt>
      <trkpt lat="42.85084" lon="0.27395">
        <ele>1361</ele>
        <time>2022-02-13T13:22:38Z</time>
      </trkpt>
      <trkpt lat="42.85077" lon="0.27397">
        <ele>1359</ele>
        <time>2022-02-13T13:22:42Z</time>
      </trkpt>
      <trkpt lat="42.85059" lon="0.27407">
        <ele>1356</ele>
        <time>2022-02-13T13:22:48Z</time>
      </trkpt>
      <trkpt lat="42.85054" lon="0.27412">
        <ele>1353</ele>
        <time>2022-02-13T13:22:52Z</time>
      </trkpt>
      <trkpt lat="42.85051" lon="0.27433">
        <ele>1351</ele>
        <time>2022-02-13T13:22:58Z</time>
      </trkpt>
      <trkpt lat="42.85024" lon="0.27463">
        <ele>1350</ele>
        <time>2022-02-13T13:23:13Z</time>
      </trkpt>
      <trkpt lat="42.85015" lon="0.27479">
        <ele>1350</ele>
        <time>2022-02-13T13:23:30Z</time>
      </trkpt>
      <trkpt lat="42.85012" lon="0.27484">
        <ele>1350</ele>
        <time>2022-02-13T13:23:34Z</time>
      </trkpt>
      <trkpt lat="42.85001" lon="0.27523">
        <ele>1348</ele>
        <time>2022-02-13T13:23:47Z</time>
      </trkpt>
      <trkpt lat="42.84998" lon="0.27546">
        <ele>1347</ele>
        <time>2022-02-13T13:23:52Z</time>
      </trkpt>
      <trkpt lat="42.84983" lon="0.27593">
        <ele>1345</ele>
        <time>2022-02-13T13:24:06Z</time>
      </trkpt>
      <trkpt lat="42.84979" lon="0.27623">
        <ele>1345</ele>
        <time>2022-02-13T13:24:20Z</time>
      </trkpt>
      <trkpt lat="42.84961" lon="0.27658">
        <ele>1344</ele>
        <time>2022-02-13T13:24:28Z</time>
      </trkpt>
      <trkpt lat="42.84959" lon="0.27661">
        <ele>1344</ele>
        <time>2022-02-13T13:24:29Z</time>
      </trkpt>
      <trkpt lat="42.8495" lon="0.27698">
        <ele>1341</ele>
        <time>2022-02-13T13:24:39Z</time>
      </trkpt>
      <trkpt lat="42.84932" lon="0.27737">
        <ele>1338</ele>
        <time>2022-02-13T13:24:49Z</time>
      </trkpt>
      <trkpt lat="42.84918" lon="0.27775">
        <ele>1335</ele>
        <time>2022-02-13T13:24:58Z</time>
      </trkpt>
      <trkpt lat="42.84913" lon="0.27797">
        <ele>1332</ele>
        <time>2022-02-13T13:25:02Z</time>
      </trkpt>
      <trkpt lat="42.84904" lon="0.2783">
        <ele>1328</ele>
        <time>2022-02-13T13:25:09Z</time>
      </trkpt>
      <trkpt lat="42.84894" lon="0.27871">
        <ele>1325</ele>
        <time>2022-02-13T13:25:18Z</time>
      </trkpt>
      <trkpt lat="42.84889" lon="0.27903">
        <ele>1321</ele>
        <time>2022-02-13T13:25:25Z</time>
      </trkpt>
      <trkpt lat="42.84888" lon="0.27916">
        <ele>1320</ele>
        <time>2022-02-13T13:25:28Z</time>
      </trkpt>
      <trkpt lat="42.84879" lon="0.27949">
        <ele>1318</ele>
        <time>2022-02-13T13:25:38Z</time>
      </trkpt>
      <trkpt lat="42.84876" lon="0.27972">
        <ele>1317</ele>
        <time>2022-02-13T13:25:50Z</time>
      </trkpt>
      <trkpt lat="42.84872" lon="0.27973">
        <ele>1316</ele>
        <time>2022-02-13T13:26:08Z</time>
      </trkpt>
      <trkpt lat="42.84873" lon="0.27991">
        <ele>1316</ele>
        <time>2022-02-13T13:26:25Z</time>
      </trkpt>
      <trkpt lat="42.84869" lon="0.27995">
        <ele>1316</ele>
        <time>2022-02-13T13:26:29Z</time>
      </trkpt>
      <trkpt lat="42.84846" lon="0.28013">
        <ele>1314</ele>
        <time>2022-02-13T13:26:43Z</time>
      </trkpt>
      <trkpt lat="42.84843" lon="0.28027">
        <ele>1313</ele>
        <time>2022-02-13T13:26:49Z</time>
      </trkpt>
      <trkpt lat="42.84845" lon="0.28032">
        <ele>1311</ele>
        <time>2022-02-13T13:26:53Z</time>
      </trkpt>
      <trkpt lat="42.84825" lon="0.2808">
        <ele>1308</ele>
        <time>2022-02-13T13:27:04Z</time>
      </trkpt>
      <trkpt lat="42.84824" lon="0.28085">
        <ele>1307</ele>
        <time>2022-02-13T13:27:06Z</time>
      </trkpt>
      <trkpt lat="42.84817" lon="0.28096">
        <ele>1307</ele>
        <time>2022-02-13T13:27:16Z</time>
      </trkpt>
      <trkpt lat="42.84817" lon="0.28113">
        <ele>1305</ele>
        <time>2022-02-13T13:27:26Z</time>
      </trkpt>
      <trkpt lat="42.84812" lon="0.28131">
        <ele>1302</ele>
        <time>2022-02-13T13:27:33Z</time>
      </trkpt>
      <trkpt lat="42.84793" lon="0.28174">
        <ele>1299</ele>
        <time>2022-02-13T13:27:44Z</time>
      </trkpt>
      <trkpt lat="42.84788" lon="0.28203">
        <ele>1296</ele>
        <time>2022-02-13T13:27:52Z</time>
      </trkpt>
      <trkpt lat="42.84788" lon="0.28211">
        <ele>1295</ele>
        <time>2022-02-13T13:28:00Z</time>
      </trkpt>
      <trkpt lat="42.84787" lon="0.2822">
        <ele>1294</ele>
        <time>2022-02-13T13:28:04Z</time>
      </trkpt>
      <trkpt lat="42.84788" lon="0.28225">
        <ele>1293</ele>
        <time>2022-02-13T13:28:06Z</time>
      </trkpt>
      <trkpt lat="42.8479" lon="0.28232">
        <ele>1292</ele>
        <time>2022-02-13T13:28:08Z</time>
      </trkpt>
      <trkpt lat="42.8479" lon="0.28235">
        <ele>1292</ele>
        <time>2022-02-13T13:28:09Z</time>
      </trkpt>
      <trkpt lat="42.84788" lon="0.28251">
        <ele>1292</ele>
        <time>2022-02-13T13:28:16Z</time>
      </trkpt>
      <trkpt lat="42.84786" lon="0.28258">
        <ele>1290</ele>
        <time>2022-02-13T13:28:19Z</time>
      </trkpt>
      <trkpt lat="42.84785" lon="0.28261">
        <ele>1290</ele>
        <time>2022-02-13T13:28:20Z</time>
      </trkpt>
      <trkpt lat="42.84785" lon="0.28275">
        <ele>1289</ele>
        <time>2022-02-13T13:28:23Z</time>
      </trkpt>
      <trkpt lat="42.84785" lon="0.28289">
        <ele>1288</ele>
        <time>2022-02-13T13:28:26Z</time>
      </trkpt>
      <trkpt lat="42.84786" lon="0.28296">
        <ele>1286</ele>
        <time>2022-02-13T13:28:28Z</time>
      </trkpt>
      <trkpt lat="42.84787" lon="0.28299">
        <ele>1285</ele>
        <time>2022-02-13T13:28:29Z</time>
      </trkpt>
      <trkpt lat="42.84787" lon="0.28304">
        <ele>1286</ele>
        <time>2022-02-13T13:28:37Z</time>
      </trkpt>
      <trkpt lat="42.84786" lon="0.28308">
        <ele>1286</ele>
        <time>2022-02-13T13:28:52Z</time>
      </trkpt>
      <trkpt lat="42.84786" lon="0.28309">
        <ele>1286</ele>
        <time>2022-02-13T13:28:53Z</time>
      </trkpt>
      <trkpt lat="42.84785" lon="0.28318">
        <ele>1285</ele>
        <time>2022-02-13T13:28:57Z</time>
      </trkpt>
      <trkpt lat="42.84786" lon="0.28349">
        <ele>1282</ele>
        <time>2022-02-13T13:29:06Z</time>
      </trkpt>
      <trkpt lat="42.84787" lon="0.28352">
        <ele>1282</ele>
        <time>2022-02-13T13:29:07Z</time>
      </trkpt>
      <trkpt lat="42.84793" lon="0.28372">
        <ele>1279</ele>
        <time>2022-02-13T13:29:16Z</time>
      </trkpt>
      <trkpt lat="42.84796" lon="0.28396">
        <ele>1276</ele>
        <time>2022-02-13T13:29:23Z</time>
      </trkpt>
      <trkpt lat="42.84797" lon="0.284">
        <ele>1276</ele>
        <time>2022-02-13T13:29:24Z</time>
      </trkpt>
      <trkpt lat="42.84808" lon="0.28416">
        <ele>1275</ele>
        <time>2022-02-13T13:29:29Z</time>
      </trkpt>
      <trkpt lat="42.8482" lon="0.28423">
        <ele>1274</ele>
        <time>2022-02-13T13:29:34Z</time>
      </trkpt>
      <trkpt lat="42.84823" lon="0.28426">
        <ele>1273</ele>
        <time>2022-02-13T13:29:36Z</time>
      </trkpt>
      <trkpt lat="42.84825" lon="0.28434">
        <ele>1272</ele>
        <time>2022-02-13T13:29:46Z</time>
      </trkpt>
      <trkpt lat="42.84822" lon="0.28438">
        <ele>1273</ele>
        <time>2022-02-13T13:30:01Z</time>
      </trkpt>
      <trkpt lat="42.84821" lon="0.28446">
        <ele>1273</ele>
        <time>2022-02-13T13:30:17Z</time>
      </trkpt>
      <trkpt lat="42.84815" lon="0.28448">
        <ele>1273</ele>
        <time>2022-02-13T13:30:34Z</time>
      </trkpt>
      <trkpt lat="42.8481" lon="0.2845">
        <ele>1272</ele>
        <time>2022-02-13T13:30:52Z</time>
      </trkpt>
      <trkpt lat="42.84813" lon="0.28447">
        <ele>1271</ele>
        <time>2022-02-13T13:31:11Z</time>
      </trkpt>
      <trkpt lat="42.84822" lon="0.28436">
        <ele>1272</ele>
        <time>2022-02-13T13:31:25Z</time>
      </trkpt>
      <trkpt lat="42.8482" lon="0.28429">
        <ele>1272</ele>
        <time>2022-02-13T13:31:38Z</time>
      </trkpt>
      <trkpt lat="42.8482" lon="0.28427">
        <ele>1273</ele>
        <time>2022-02-13T13:31:45Z</time>
      </trkpt>
      <trkpt lat="42.84814" lon="0.28438">
        <ele>1272</ele>
        <time>2022-02-13T13:31:56Z</time>
      </trkpt>
      <trkpt lat="42.84812" lon="0.28445">
        <ele>1272</ele>
        <time>2022-02-13T13:32:21Z</time>
      </trkpt>
      <trkpt lat="42.84814" lon="0.28447">
        <ele>1272</ele>
        <time>2022-02-13T13:32:49Z</time>
      </trkpt>
      <trkpt lat="42.84816" lon="0.28443">
        <ele>1273</ele>
        <time>2022-02-13T13:33:06Z</time>
      </trkpt>
      <trkpt lat="42.84814" lon="0.28446">
        <ele>1272</ele>
        <time>2022-02-13T13:33:33Z</time>
      </trkpt>
      <trkpt lat="42.84821" lon="0.28431">
        <ele>1273</ele>
        <time>2022-02-13T13:34:00Z</time>
      </trkpt>
      <trkpt lat="42.84814" lon="0.28434">
        <ele>1273</ele>
        <time>2022-02-13T13:34:30Z</time>
      </trkpt>
    </trkseg>
  </trk>
</gpx>